     2              OBSERVATION DATA    GPS                 RINEX VERSION / TYPE
teqc 2000Feb29 simon 20000627 23:32:51UTC                   PGM / RUN BY / DATE
                                                            COMMENT
L2: 1 -> 1; 150 -> 5; 250 -> 9                              COMMENT
L2: 1 -> 1; 150 -> 5; 250 -> 9                              COMMENT
L2: 1 -> 1; 150 -> 5; 250 -> 9                              COMMENT
L2: 1 -> 1; 150 -> 5; 250 -> 9                              COMMENT
L2: 1 -> 1; 150 -> 5; 250 -> 9                              COMMENT
Original Marker Name: GS48                                  COMMENT
Campaign Name: China Lake April 2000                        COMMENT
4-Character Station Name: GS48                              COMMENT
6-Character Antenna Code: ASHGD3                            COMMENT
Vertical Measurement Point: TGP                             COMMENT
Vertical Offset to Rinex Ref. Point: 0.0640                 COMMENT
Radial Measurement Point: OOH                               COMMENT
Radial Offset to Rinex Ref. Point: 0.1737                   COMMENT
Antenna Height from Field Measurement: 1.2300 m             COMMENT
Additional Antenna Identification Info.:                    COMMENT
The Whopper (700718AB)                                      COMMENT
Original XYZ: -2394781.8100 -4608306.5500 3691122.0400      COMMENT
New XYZ position is based on association with SCEC monument COMMENT
E1F4B5Y2+0011. Position of that monument is believed to be  COMMENT
valid to within 1 m horizontally; vertical accuracy         COMMENT
should be no worse than 3-times this value.                 COMMENT
                                                            COMMENT
Revised Rinex header created by UCSD GPS archive for        COMMENT
GSAC on 14-Sep-2001 (2001:257) 20:02:58 GMT                 COMMENT
For assistance contact dagnew@ucsd.edu                      COMMENT
or anderson@python.ucsd.edu                                 COMMENT
                                                            COMMENT
NONE                                                        MARKER NAME
gs48                                                        MARKER NUMBER
HEM US NATIONAL IMAGERY MAPPING AGENCY                      OBSERVER / AGENCY
480 ASHTECH Z-XII3 4J30                                     REC # / TYPE / VERS
111 ASHTECH GEODETIC III                                    ANT # / TYPE
 -2394809.5413 -4608452.3873  3691187.9254                  APPROX POSITION XYZ
        1.1537        0.0000        0.0000                  ANTENNA: DELTA H/E/N
     1     1     0                                          WAVELENGTH FACT L1/2
     7    L1    L2    C1    P1    P2    S1    S2            # / TYPES OF OBSERV
    30                                                      INTERVAL
  2000     5     2    15    13    0.000000                  TIME OF FIRST OBS
  2000     5     2    21    29   60.000000                  TIME OF LAST OBS
                                                            END OF HEADER
 00  5  2 15 13  0.0000000  0  6G 2G 4G26G 7G 8G 9
     -5538.87859     -3615.16357  17975070.530    17975072.368    17975079.933
       233.000         201.000
    -25600.11943                  19052608.063
       219.000          74.000
     25012.32249     14797.53046  19678425.193    19678428.714    19678436.785
       226.000         181.000
     -9444.94559     -6009.27557  17113878.440    17113879.861    17113886.131
       230.000         201.000
     16289.66943                  19873778.167
       212.000          74.000
    -23286.04046                  19478652.755                    19478663.380
       226.000         178.000
 00  5  2 15 14  0.0010000  0  6G 2G 4G26G 7G 8G 9
    -13796.69649    -10049.90547  21870802.605    21870803.128    21870810.727
       232.000         201.000
   -321868.96649   -220343.13546  22902356.742    22902358.084    22902367.315
       219.000         169.000
     83166.07649     60112.02646  23586795.881    23586797.072    23586805.441
       225.000         181.000
    -23003.78449    -16574.64147  21008601.338    21008601.609    21008608.219
       230.000         202.000
    206419.57249    140754.54045  23801477.825    23801480.262    23801488.278
       211.000         159.000
   -290967.67349   -200316.45746  23332724.377    23332724.756    23332731.706
       225.000         179.000
 00  5  2 15 14 30.0010000  0  6G 2G 4G26G 7G 8G 9
    -17619.47049    -13028.68447  21870075.550    21870075.881    21870083.194
       236.000         203.000
   -446513.61349   -317468.74146  22878637.878    22878638.859    22878648.238
       220.000         169.000
    112772.85249     83182.17846  23592430.056    23592431.015    23592439.606
       227.000         181.000
    -29250.80649    -21442.45847  21007412.762    21007412.891    21007419.538
       230.000         201.000
    286593.84349    203227.83345  23816734.785    23816735.781    23816743.938
       209.000         159.000
   -404178.25549   -288532.47446  23311181.273    23311181.588    23311188.533
       225.000         178.000
 00  5  2 15 15  0.0010000  0  6G 2G 4G26G 7G 8G 9
    -21173.33649    -15797.97947  21869399.371    21869399.581    21869406.906
       237.000         204.000
   -570863.57549   -414364.72346  22854975.236    22854976.082    22854985.217
       221.000         171.000
    142788.99649    106571.31546  23598142.085    23598142.952    23598151.529
       226.000         179.000
    -35080.42849    -25985.04447  21006303.601    21006303.570    21006310.263
       231.000         201.000
    367024.43049    265900.85245  23832039.720    23832038.885    23832050.648
       208.000         155.000
   -517051.27249   -376485.44246  23289702.333    23289702.507    23289709.689
       227.000         180.000
 00  5  2 15 15 30.0010000  0  6G 2G 4G26G 7G 8G 9
    -24469.68549    -18366.57847  21868772.342    21868772.390    21868779.589
       233.000         200.000
   -694927.98049   -511038.19546  22831366.636    22831367.381    22831376.702
       220.000         173.000
    173199.59549    130267.83246  23603929.167    23603929.929    23603938.433
       225.000         179.000
    -40506.32249    -30213.01847  21005271.236    21005271.105    21005277.746
       229.000         201.000
    447697.10549    328762.53245  23847391.326    23847390.864    23847401.990
       205.000         157.000
   -629596.31449   -464182.87446  23268285.938    23268285.921    23268293.106
       224.000         179.000
 00  5  2 15 16  0.0010000  0  6G 2G 4G26G 7G 8G 9
    -27489.68349    -20719.85347  21868197.751    21868197.728    21868204.906
       235.000         202.000
   -818685.18149   -607472.30246  22807816.427    22807817.150    22807826.493
       221.000         172.000
    204020.42249    154284.00046  23609794.261    23609794.961    23609803.434
       227.000         181.000
    -45511.52649    -34113.19147  21004318.744    21004318.629    21004325.285
       230.000         201.000
    528628.21349    391825.54845  23862792.000    23862791.719    23862802.873
       207.000         156.000
   -741792.63549   -551608.55046  23246935.520    23246935.670    23246942.865
       225.000         179.000
 00  5  2 15 16 30.0010000  0  6G 2G 4G26G 7G 8G 9
    -30214.98449    -22843.48247  21867679.343    21867679.191    21867686.272
       236.000         202.000
   -942114.50449   -703650.89446  22784328.793    22784329.337    22784338.580
       221.000         173.000
    235266.44549    178631.48646  23615740.364    23615740.963    23615749.409
       226.000         182.000
    -50080.03749    -37673.08547  21003449.405    21003449.287    21003455.945
       230.000         201.000
    609833.12349    455101.92945  23878244.993    23878244.752    23878255.943
       208.000         158.000
   -853620.21249   -638746.90346  23225655.394    23225655.581    23225662.755
       225.000         180.000
 00  5  2 15 17  0.0010000  0  7G27G 2G 4G26G 7G 8G 9
    262507.61759    182046.60255  25018393.523    25018392.656    25018408.967
       196.000         141.000
    -32688.45549    -24770.89347  21867208.800    21867208.546    21867215.606
       237.000         203.000
  -1065256.38449   -799605.51046  22760895.665    22760896.225    22760905.441
       222.000         175.000
    266891.35749    203274.20246  23621758.448    23621759.077    23621767.459
       225.000         181.000
    -54256.87949    -40927.77847  21002654.592    21002654.446    21002661.143
       231.000         202.000
    691266.12949    518556.07245  23893741.564    23893741.345    23893752.260
       210.000         159.000
   -965120.14049   -725629.94546  23204437.693    23204437.842    23204445.020
       225.000         178.000
 00  5  2 15 17 30.0010000  0  7G27G 2G 4G26G 7G 8G 9
    350636.46649    250717.96345  25035164.155    25035166.014    25035180.178
       195.000         144.000
    -34875.83349    -26475.36347  21866792.614    21866792.330    21866799.373
       234.000         202.000
  -1188073.99349   -895307.46146  22737524.467    22737524.879    22737534.005
       223.000         176.000
    298926.15949    228236.31946  23627854.725    23627855.186    23627863.517
       227.000         182.000
    -58009.93449    -43852.25547  21001940.464    21001940.276    21001947.001
       230.000         202.000
    772959.10649    582212.77345  23909287.481    23909287.280    23909297.953
       208.000         157.000
  -1076256.43849   -812229.63346  23183289.083    23183289.275    23183296.473
       225.000         179.000
 00  5  2 15 18  0.0010000  0  7G27G 2G 4G26G 7G 8G 9
    438978.08858    319555.08155  25051975.154    25051976.525    25051990.659
       190.000         137.000
    -36751.28449    -27936.78547  21866435.855    21866435.522    21866442.569
       234.000         201.000
  -1310539.02649   -990734.68046  22714220.048    22714220.562    22714229.697
       223.000         176.000
    331393.32949    253535.34946  23634033.372    23634033.617    23634041.913
       227.000         183.000
    -61315.44949    -46427.98947  21001311.454    21001311.272    21001318.006
       230.000         202.000
    854934.98149    646089.92545  23924886.927    23924886.806    23924897.416
       204.000         151.000
  -1187001.41649   -898524.40446  23162214.958    23162215.150    23162222.407
       224.000         178.000
 00  5  2 15 18 30.0010000  0  7G27G 2G 4G26G 7G 8G 9
    527548.94149    388570.80345  25068829.831    25068830.689    25068845.167
       195.000         134.000
    -38294.96349    -29139.65447  21866142.078    21866141.777    21866148.695
       234.000         201.000
  -1432629.09949  -1085869.73946  22690987.003    22690987.563    22690996.690
       223.000         176.000
    364309.41749    279184.17546  23640297.228    23640297.447    23640305.736
       224.000         182.000
    -64155.84649    -48641.29247  21000770.945    21000770.760    21000777.505
       231.000         202.000
    937211.03349    710200.99045  23940543.653    23940543.441    23940553.974
       207.000         149.000
  -1297333.59349   -984497.49646  23141219.381    23141219.607    23141226.916
       225.000         180.000
 00  5  2 15 19  0.0010000  0  7G27G 2G 4G26G 7G 8G 9
    616208.98548    457656.07445  25085701.599    25085702.418    25085716.746
       193.000         140.000
    -39644.30349    -30191.12647  21865885.498    21865885.104    21865892.087
       238.000         204.000
  -1554479.29549  -1180817.84446  22667799.729    22667800.250    22667809.321
       225.000         178.000
    397533.64049    305073.11546  23646619.583    23646619.825    23646628.157
       227.000         180.000
    -66670.66549    -50600.89147  21000292.495    21000292.224    21000299.002
       231.000         202.000
   1019646.93949    774436.61445  23956230.969    23956230.658    23956240.935
       210.000         153.000
  -1407388.53049  -1070254.56546  23120276.324    23120276.767    23120284.160
       223.000         180.000
 00  5  2 15 19 30.0010000  0  7G27G 2G 4G26G 7G 8G 9
    705060.51948    526890.55345  25102609.859    25102610.353    25102624.854
       191.000         141.000
    -40694.05149    -31009.14347  21865685.718    21865685.352    21865692.314
       237.000         203.000
  -1675981.55749  -1275494.85846  22644678.689    22644679.149    22644688.149
       224.000         178.000
    431167.91249    331281.58246  23653019.813    23653020.236    23653028.609
       224.000         180.000
    -68756.84849    -52226.51147  20999895.319    20999895.180    20999902.060
       229.000         202.000
   1102345.60249    838876.97445  23971968.315    23971967.917    23971978.114
       208.000         156.000
  -1517059.03249  -1155712.08246  23099406.713    23099407.151    23099414.625
       224.000         180.000
 00  5  2 15 20  0.0010000  0  7G27G 2G 4G26G 7G 8G 9
    794157.98548    596316.61645  25119564.934    25119565.256    25119579.895
       192.000         140.000
    -41387.01149    -31549.13847  21865553.976    21865553.564    21865560.578
       234.000         200.000
  -1797076.41749  -1369854.39846  22621635.111    22621635.573    22621644.545
       224.000         179.000
    465266.12149    357851.54946  23659508.548    23659508.967    23659517.299
       225.000         180.000
    -70359.19949    -53475.10447  20999590.488    20999590.311    20999597.172
       232.000         202.000
   1185361.10049    903564.20045  23987765.675    23987765.346    23987775.628
       209.000         159.000
  -1626286.36649  -1240824.27646  23078621.422    23078621.854    23078629.396
       226.000         181.000
 00  5  2 15 20 30.0010000  0  8G27G 2G24G 4G26G 7G 8G 9
    883498.56849    665932.10345  25136566.209    25136566.426    25136581.015
       195.000         140.000
    -41722.89249    -31810.86747  21865489.991    21865489.651    21865496.663
       235.000         202.000
  -1542641.29258  -1177689.32355  25256491.717    25256492.028    25256509.478
       189.000         138.000
  -1917761.08149  -1463894.32646  22598669.530    22598670.057    22598678.938
       225.000         179.000
    499825.12849    384780.58046  23666084.865    23666085.317    23666093.732
       223.000         179.000
    -71479.89749    -54348.38947  20999377.342    20999377.097    20999383.955
       231.000         202.000
   1268691.07149    968496.47145  24003622.869    24003622.577    24003632.937
       207.000         158.000
  -1735068.44149  -1325589.50846  23057920.909    23057921.283    23057928.925
       226.000         181.000
 00  5  2 15 21  0.0010000  0  8G27G 2G24G 4G26G 7G 8G 9
    973048.43349    735710.70145  25153607.351    25153607.327    25153621.993
       195.000         139.000
    -41732.39849    -31818.32647  21865488.085    21865487.828    21865494.925
       235.000         202.000
  -1676763.84159  -1282199.91955  25230968.664    25230969.267    25230986.459
       209.000         145.000
  -2038063.92149  -1557636.71546  22575776.728    22575777.231    22575786.009
       225.000         178.000
    534810.64249    412041.94646  23672742.445    23672742.866    23672751.309
       225.000         178.000
    -72151.82649    -54871.97647  20999249.574    20999249.257    20999256.120
       231.000         202.000
   1352302.00249   1033647.65945  24019533.755    24019533.357    24019543.791
       205.000         156.000
  -1843434.38749  -1410030.48046  23037299.527    23037299.940    23037307.655
       225.000         182.000
 00  5  2 15 21 30.0010000  0  8G27G 2G24G 4G26G 7G 8G 9
   1062824.71049    805665.71945  25170691.467    25170691.393    25170705.990
       196.000         137.000
    -41395.70449    -31555.99047  21865552.374    21865552.008    21865559.026
       237.000         204.000
  -1810826.73149  -1386663.94845  25205456.963    25205457.762    25205475.073
       197.000         143.000
  -2157962.43949  -1651064.05446  22552960.756    22552961.255    22552969.965
       224.000         177.000
    570239.27149    439648.60946  23679484.458    23679484.780    23679493.179
       222.000         177.000
    -72357.28449    -55032.09347  20999210.443    20999210.154    20999217.097
       230.000         202.000
   1436211.09649   1099031.19945  24035501.343    24035500.853    24035511.263
       207.000         154.000
  -1951362.62849  -1494130.38446  23016761.600    23016761.907    23016769.592
       228.000         182.000
 00  5  2 15 22  0.0010000  0  8G27G 2G24G 4G26G 7G 8G 9
   1152834.27949    875802.55645  25187820.105    25187819.827    25187834.400
       196.000         133.000
    -40702.86149    -31016.15347  21865684.161    21865683.847    21865690.868
       234.000         202.000
  -1944818.22559  -1491072.42854  25179958.622    25179959.815    25179976.993
       200.000         127.000
  -2277444.49849  -1744166.89046  22530223.821    22530224.469    22530233.163
       222.000         178.000
    606117.54949    467605.62846  23686311.765    23686312.208    23686320.619
       224.000         177.000
    -72088.50549    -54822.66447  20999261.548    20999261.322    20999268.316
       231.000         204.000
   1520425.34749   1164652.53645  24051526.825    24051526.405    24051536.764
       208.000         149.000
  -2058841.19649  -1577879.90746  22996309.221    22996309.462    22996317.053
       227.000         183.000
 00  5  2 15 22 30.0010000  0  8G27G 2G24G 4G26G 7G 8G 9
   1243076.67349    946120.84544  25204992.935    25204992.553    25205007.201
       199.000         126.000
    -39651.77749    -30197.14847  21865884.191    21865883.881    21865890.977
       236.000         205.000
  -2078734.37148  -1595422.12445  25154474.713    25154476.035    25154493.504
       184.000         132.000
  -2396505.23449  -1836941.41046  22507567.431    22507567.947    22507576.642
       226.000         181.000
    642444.31949    495912.13446  23693224.563    23693225.014    23693233.417
       224.000         179.000
    -71345.48949    -54243.70747  20999402.931    20999402.746    20999409.771
       232.000         203.000
   1604944.39049   1230511.33845  24067610.401    24067609.988    24067620.389
       204.000         150.000
  -2165866.29749  -1661276.07046  22975943.062    22975943.270    22975950.843
       228.000         184.000
 00  5  2 15 23  0.0010000  0  8G27G 2G24G 4G26G 7G 8G 9
   1333540.84148   1016611.97144  25222208.094    25222207.733    25222222.214
       192.000         119.000
    -38250.46149    -29105.26347  21866150.817    21866150.558    21866157.747
       237.000         204.000
  -2212581.09549  -1699717.73945  25129003.806    25129005.283    25129023.092
       202.000         132.000
  -2515150.27549  -1929392.02046  22484990.081    22484990.581    22484999.339
       226.000         183.000
    679207.95849    524559.05346  23700220.407    23700220.922    23700229.399
       222.000         176.000
    -70138.42549    -53303.15047  20999632.751    20999632.497    20999639.513
       233.000         204.000
   1689757.42849   1296599.23545  24083749.871    24083749.482    24083759.889
       203.000         149.000
  -2272444.08649  -1744323.68146  22955661.981    22955662.189    22955669.761
       230.000         184.000
 00  5  2 15 23 30.0010000  0  7G 2G24G 4G26G 7G 8G 9
    -36482.87449    -27727.91647  21866487.348    21866487.001    21866494.103
       236.000         202.000
  -2346340.59348  -1803945.45145  25103549.835    25103551.534    25103569.079
       187.000         134.000
  -2633361.17849  -2021504.33146  22462495.396    22462495.810    22462504.608
       226.000         182.000
    716421.11149    553556.24846  23707301.775    23707302.344    23707310.882
       224.000         177.000
    -68453.57149    -51990.28847  20999953.460    20999953.152    20999960.154
       231.000         204.000
   1774877.63249   1362926.45245  24099947.629    24099947.366    24099957.856
       207.000         153.000
  -2378557.05749  -1827009.09346  22935469.311    22935469.566    22935477.112
       229.000         184.000
 00  5  2 15 24  0.0010000  0  7G 2G24G 4G26G 7G 8G 9
    -34344.10349    -26061.37847  21866894.378    21866894.026    21866901.195
       236.000         201.000
  -2480006.04248  -1908099.82544  25078113.632    25078115.398    25078132.829
       192.000         130.000
  -2751130.53149  -2113272.60146  22440084.312    22440084.929    22440093.776
       223.000         179.000
    754085.30249    582904.90246  23714469.114    23714469.699    23714478.241
       224.000         179.000
    -66288.11949    -50302.93547  21000365.511    21000365.277    21000372.321
       234.000         205.000
   1860307.29149   1429494.81145  24116204.688    24116204.362    24116214.711
       209.000         154.000
  -2484198.36249  -1909326.98146  22915366.679    22915366.740    22915374.214
       229.000         184.000
 00  5  2 15 24 30.0010000  0  7G 2G24G 4G26G 7G 8G 9
    -31840.66049    -24110.67847  21867370.714    21867370.423    21867377.670
       237.000         205.000
  -2613582.25349  -2012184.60345  25052694.754    25052696.390    25052713.886
       201.000         135.000
  -2868462.44849  -2204700.00746  22417756.700    22417757.329    22417766.185
       225.000         180.000
    792190.58249    612597.26646  23721720.257    23721720.964    23721729.552
       223.000         178.000
    -63650.94449    -48248.01147  21000867.461    21000867.142    21000874.212
       231.000         205.000
   1946037.05749   1496297.04045  24132518.810    24132518.367    24132528.556
       213.000         154.000
  -2589372.79649  -1991281.07646  22895352.726    22895352.744    22895360.225
       228.000         185.000
 00  5  2 15 25  0.0010000  0  7G 2G24G 4G26G 7G 8G 9
    -28968.84349    -21872.93747  21867917.166    21867916.917    21867924.247
       233.000         201.000
  -2747063.30048  -2116195.28345  25027293.948    25027295.525    25027313.106
       193.000         132.000
  -2985350.69749  -2295781.69046  22395513.684    22395514.252    22395523.049
       224.000         181.000
    830737.22249    642633.55046  23729055.633    23729056.243    23729064.818
       223.000         179.000
    -60540.43049    -45824.25247  21001459.350    21001459.083    21001466.161
       233.000         205.000
   2032067.87149   1563333.85945  24148890.251    24148889.736    24148899.816
       211.000         151.000
  -2694074.59849  -2072866.88046  22875428.512    22875428.663    22875436.200
       228.000         184.000
 00  5  2 15 25 30.0010000  0  7G 2G24G 4G26G 7G 8G 9
    -25729.99749    -19349.18447  21868533.632    21868533.334    21868540.637
       235.000         202.000
  -2880448.96448  -2220131.68144  25001911.016    25001912.481    25001930.056
       190.000         125.000
  -3101794.20849  -2386516.82646  22373355.154    22373355.739    22373364.498
       225.000         181.000
    869720.43649    673010.01646  23736474.141    23736474.660    23736483.147
       224.000         178.000
    -56960.29149    -43034.54747  21002140.712    21002140.404    21002147.484
       233.000         205.000
   2118395.51349   1630601.98445  24165318.073    24165317.506    24165327.550
       209.000         152.000
  -2798303.67949  -2154084.33246  22855594.178    22855594.507    22855602.076
       227.000         186.000
 00  5  2 15 26  0.0010000  0  7G 2G24G 4G26G 7G 8G 9
    -22124.46949    -16539.70447  21869219.819    21869219.498    21869226.859
       236.000         204.000
  -3013737.70648  -2323992.50644  24976546.748    24976548.220    24976565.506
       190.000         127.000
  -3217791.05249  -2476903.91946  22351281.492    22351282.211    22351291.015
       225.000         182.000
    909136.35349    703723.64546  23743974.941    23743975.357    23743983.821
       224.000         177.000
    -52912.86749    -39880.73247  21002910.816    21002910.608    21002917.736
       232.000         204.000
   2205017.13449   1698099.10445  24181801.816    24181801.165    24181811.260
       202.000         149.000
  -2902058.65049  -2234932.34046  22835850.215    22835850.597    22835858.219
       228.000         185.000
 00  5  2 15 26 30.0010000  0  7G 2G24G 4G26G 7G 8G 9
    -18160.86049    -13451.22947  21869974.004    21869973.758    21869981.245
       236.000         203.000
  -3146935.95759  -2427782.79555  24951199.307    24951200.840    24951218.324
       197.000         132.000
  -3333347.20549  -2566947.61746  22329291.905    22329292.598    22329301.416
       225.000         182.000
    948972.94749    734765.08546  23751555.745    23751556.120    23751564.512
       226.000         176.000
    -48409.05449    -36371.28147  21003767.942    21003767.694    21003774.756
       234.000         204.000
   2291921.07949   1765816.21145  24198338.942    24198338.443    24198348.829
       202.000         151.000
  -3005346.34749  -2315416.24446  22816195.450    22816195.591    22816203.252
       229.000         186.000
 00  5  2 15 27  0.0010000  0  7G 2G24G 4G26G 7G 8G 9
    -13835.46349    -10080.77547  21870797.334    21870796.978    21870804.329
       236.000         204.000
  -3280038.29349  -2531498.44545  24925870.401    24925871.990    24925889.431
       195.000         135.000
  -3448456.66049  -2656643.22946  22307387.374    22307387.989    22307396.778
       226.000         183.000
    989230.54049    766134.56146  23759216.486    23759216.917    23759225.327
       225.000         176.000
    -43447.45949    -32505.12147  21004712.083    21004711.865    21004718.940
       232.000         204.000
   2379108.45249   1833754.20645  24214930.230    24214929.745    24214940.284
       201.000         150.000
  -3108161.13049  -2395531.65046  22796630.478    22796630.591    22796638.315
       228.000         186.000
 00  5  2 15 27 30.0010000  0  7G 2G24G 4G26G 7G 8G 9
     -9154.60249     -6433.38947  21871688.193    21871687.792    21871695.140
       234.000         202.000
  -3413049.07049  -2635142.76845  24900559.208    24900560.565    24900577.833
       196.000         137.000
  -3563123.22549  -2745993.73646  22285566.975    22285567.645    22285576.326
       225.000         180.000
   1029899.07949    797824.26046  23766955.384    23766955.907    23766964.357
       223.000         176.000
    -38036.60549    -28288.88747  21005741.780    21005741.546    21005748.641
       233.000         205.000
   2466570.01349   1901905.84945  24231573.453    24231573.220    24231583.941
       198.000         143.000
  -3210507.97649  -2475282.41746  22777154.470    22777154.627    22777162.408
       227.000         187.000
 00  5  2 15 28  0.0010000  0  7G 2G24G 4G26G 7G 8G 9
     -4123.91349     -2513.41747  21872645.613    21872645.186    21872652.483
       237.000         203.000
  -3545972.11149  -2738718.64745  24875264.334    24875265.613    24875283.042
       202.000         139.000
  -3677350.07449  -2835001.61446  22263830.140    22263830.921    22263839.596
       226.000         180.000
   1070969.73149    829827.30646  23774770.986    23774771.505    23774779.934
       224.000         176.000
    -32184.36149    -23728.71547  21006855.355    21006855.196    21006862.299
       233.000         204.000
   2554297.61749   1970264.80345  24248267.615    24248267.288    24248278.011
       198.000         138.000
  -3312390.27449  -2554671.20446  22757766.785    22757767.088    22757774.860
       226.000         187.000
 00  5  2 15 28 30.0010000  0  7G 2G24G 4G26G 7G 8G 9
      1247.65949      1672.20747  21873667.828    21873667.419    21873674.654
       236.000         204.000
  -3678814.27549  -2842231.63045  24849984.529    24849986.157    24850003.657
       203.000         135.000
  -3791143.84349  -2923672.02346  22242175.759    22242176.599    22242185.354
       224.000         181.000
   1112429.90549    862133.85546  23782660.710    23782661.160    23782669.605
       222.000         176.000
    -25901.90149    -18833.30847  21008050.927    21008050.742    21008057.817
       233.000         204.000
   2642279.34449   2038821.77845  24265010.097    24265009.811    24265020.423
       199.000         135.000
  -3413815.41249  -2633703.75946  22738466.349    22738466.519    22738474.305
       228.000         187.000
 00  5  2 15 29  0.0010000  0  7G 2G24G 4G26G 7G 8G 9
      6968.00949      6129.59047  21874756.447    21874756.059    21874763.264
       237.000         204.000
  -3811565.73349  -2945674.00645  24824722.365    24824724.054    24824741.279
       195.000         136.000
  -3904494.16749  -3011996.88246  22220605.924    22220606.700    22220615.494
       226.000         181.000
   1154284.18049    894747.50146  23790625.405    23790625.859    23790634.300
       223.000         176.000
    -19183.48449    -13598.19347  21009329.521    21009329.279    21009336.318
       235.000         205.000
   2730520.46149   2107580.90645  24281802.042    24281801.613    24281812.412
       204.000         139.000
  -3514773.74749  -2712372.57846  22719254.676    22719254.806    22719262.526
       227.000         187.000
 00  5  2 15 29 30.0010000  0  7G 2G24G 4G26G 7G 8G 9
     13019.90849     10845.30847  21875908.009    21875907.706    21875914.956
       236.000         203.000
  -3944241.58849  -3049057.31745  24799474.954    24799476.334    24799493.438
       199.000         139.000
  -4017415.93649  -3099987.83946  22199117.708    22199118.431    22199127.073
       226.000         181.000
   1196511.70249    927651.99646  23798661.184    23798661.602    23798670.078
       222.000         176.000
    -12048.55049     -8038.52947  21010687.289    21010687.076    21010694.060
       233.000         205.000
   2819000.62849   2176526.28245  24298639.543    24298639.041    24298649.769
       208.000         142.000
  -3615280.76449  -2790689.72746  22700128.691    22700128.953    22700136.588
       229.000         187.000
 00  5  2 15 30  0.0010000  0  7G 2G24G 4G26G 7G 8G 9
     19413.51449     15827.32247  21877124.635    21877124.395    21877131.704
       234.000         202.000
  -4076830.25549  -3152372.74845  24774244.090    24774245.241    24774262.173
       204.000         138.000
  -4129896.61449  -3187635.06146  22177713.274    22177714.025    22177722.620
       227.000         182.000
   1239119.19649    960852.57146  23806769.087    23806769.562    23806778.113
       222.000         174.000
     -4489.29049     -2148.21147  21012125.797    21012125.591    21012132.567
       233.000         205.000
   2907727.48749   2245663.87445  24315523.864    24315523.374    24315534.089
       207.000         148.000
  -3715324.67849  -2868646.00246  22681090.894    22681091.202    22681098.837
       227.000         187.000
 00  5  2 15 30 30.0010000  0  7G 2G24G 4G26G 7G 8G 9
     26128.43349     21059.69647  21878402.454    21878402.231    21878409.520
       234.000         200.000
  -4209349.43249  -3255634.10345  24749026.146    24749027.402    24749044.030
       203.000         143.000
  -4241953.89749  -3274952.36946  22156389.568    22156390.277    22156398.767
       228.000         183.000
   1282082.92649    994330.73246  23814944.866    23814945.333    23814953.935
       223.000         176.000
      3471.89149      4055.29347  21013640.818    21013640.588    21013647.551
       234.000         205.000
   2996677.88249   2314975.59945  24332450.830    24332450.306    24332461.120
       207.000         154.000
  -3814923.82949  -2946255.71047  22662137.758    22662138.089    22662145.742
       229.000         188.000
 00  5  2 15 31  0.0010000  0  7G 2G24G 4G26G 7G 8G 9
     33174.54649     26550.14247  21879743.276    21879743.089    21879750.375
       233.000         201.000
  -4341787.64849  -3358832.26745  24723823.761    24723824.960    24723841.471
       203.000         141.000
  -4353575.89049  -3361930.48246  22135148.581    22135149.306    22135157.762
       225.000         183.000
   1325408.95949   1028091.20846  23823189.663    23823190.091    23823198.765
       222.000         174.000
     11842.28349     10577.65647  21015233.657    21015233.442    21015240.387
       234.000         205.000
   3085858.79249   2384466.95145  24349421.541    24349421.054    24349431.987
       205.000         152.000
  -3914066.96849  -3023510.09146  22643271.522    22643271.751    22643279.394
       228.000         187.000
 00  5  2 15 31 30.0010000  0  7G 2G24G 4G26G 7G 8G 9
     40551.67349     32298.52947  21881147.084    21881146.920    21881154.287
       232.000         201.000
  -4474143.31649  -3461966.21445  24698636.979    24698638.301    24698654.468
       204.000         143.000
  -4464760.37449  -3448567.67846  22113990.797    22113991.563    22114000.006
       226.000         183.000
   1369093.78849   1062131.24546  23831502.578    23831503.045    23831511.764
       221.000         172.000
     20619.65649     17417.14947  21016903.901    21016903.748    21016910.681
       234.000         205.000
   3175267.15349   2454135.53245  24366435.544    24366435.119    24366446.176
       202.000         149.000
  -4012752.50249  -3100407.89946  22624492.098    22624492.507    22624500.151
       227.000         187.000
 00  5  2 15 32  0.0010000  0  7G 2G24G 4G26G 7G 8G 9
     48256.72949     38302.39847  21882613.171    21882613.090    21882620.506
       233.000         196.000
  -4606417.46049  -3565036.53345  24673465.733    24673467.100    24673483.208
       206.000         143.000
  -4575508.05749  -3534864.52346  22092916.267    22092916.976    22092925.352
       229.000         184.000
   1413130.54949   1096445.52846  23839882.567    23839883.048    23839891.686
       222.000         174.000
     29798.61949     24569.56447  21018650.590    21018650.467    21018657.434
       234.000         206.000
   3264897.20749   2523976.84445  24383491.697    24383491.330    24383502.450
       195.000         141.000
  -4110981.68149  -3176950.10247  22605799.648    22605800.115    22605807.778
       228.000         188.000
 00  5  2 15 32 30.0000000  0  7G 2G24G 4G26G 7G 8G 9
     56268.78749     44545.56947  21884137.935    21884137.800    21884145.090
       234.000         201.000
  -4738624.18649  -3668054.36145  24648307.495    24648308.697    24648324.602
       210.000         146.000
  -4685833.21849  -3620832.12446  22071922.103    22071922.793    22071931.058
       227.000         184.000
   1457493.87649   1131014.27946  23848324.759    23848325.182    23848333.864
       222.000         174.000
     39356.19749     32017.01547  21020469.393    21020469.243    21020476.232
       234.000         206.000
   3354722.64649   2593970.39445  24400584.995    24400584.622    24400595.967
       196.000         137.000
  -4208770.16849  -3253148.90447  22587191.213    22587191.591    22587199.261
       230.000         189.000
 00  5  2 15 33  0.0000000  0  7G 2G24G 4G26G 7G 8G 9
     64598.95749     51036.60947  21885723.081    21885722.998    21885730.286
       235.000         201.000
  -4870759.62349  -3771016.66245  24623162.598    24623163.893    24623179.648
       205.000         143.000
  -4795730.47749  -3706466.30246  22051009.268    22051010.043    22051018.201
       229.000         185.000
   1502193.76549   1165845.27246  23856830.780    23856831.348    23856840.101
       222.000         173.000
     49301.23949     39766.37747  21022361.796    21022361.718    21022368.737
       233.000         205.000
   3444757.11449   2664126.79745  24417717.967    24417717.818    24417729.238
       199.000         137.000
  -4306112.40749  -3328999.98647  22568667.719    22568668.007    22568675.646
       230.000         188.000
 00  5  2 15 33 30.0000000  0  7G 2G24G 4G26G 7G 8G 9
     73245.54949     57774.15247  21887368.429    21887368.363    21887375.779
       232.000         198.000
  -5002819.02049  -3873919.66345  24598032.175    24598033.580    24598049.170
       202.000         143.000
  -4905195.32949  -3791763.52246  22030178.764    22030179.516    22030187.675
       228.000         186.000
   1547223.82149   1200933.55546  23865399.897    23865400.381    23865409.070
       220.000         174.000
     59629.69949     47814.50247  21024327.214    21024327.184    21024334.193
       236.000         206.000
   3534993.45049   2734440.59645  24434889.761    24434889.524    24434900.833
       206.000         136.000
  -4403004.57849  -3404500.36947  22550229.952    22550230.097    22550237.679
       231.000         189.000
 00  5  2 15 34  0.0000000  0  7G 2G24G 4G26G 7G 8G 9
     82204.60249     64755.20747  21889073.360    21889073.250    21889080.685
       235.000         203.000
  -5134804.28049  -3976764.94845  24572916.227    24572917.419    24572932.682
       205.000         145.000
  -5014229.24149  -3876724.93546  22009430.166    22009430.985    22009439.215
       229.000         187.000
   1592576.47949   1236273.20846  23874030.370    23874030.828    23874039.535
       222.000         175.000
     70335.38249     56156.57747  21026364.556    21026364.448    21026371.454
       235.000         206.000
   3625424.97749   2804906.44945  24452098.780    24452098.423    24452109.638
       207.000         139.000
  -4499448.98549  -3479651.84447  22531877.405    22531877.392    22531884.908
       231.000         190.000
 00  5  2 15 34 30.0000000  0  7G 2G24G 4G26G 7G 8G 9
     91468.98849     71974.16847  21890836.341    21890836.249    21890843.690
       234.000         199.000
  -5266720.11649  -4079556.11145  24547813.129    24547814.359    24547829.433
       209.000         148.000
  -5122836.81049  -3961354.14946  21988762.897    21988763.704    21988771.863
       230.000         187.000
   1638241.34749   1271856.12846  23882720.386    23882720.686    23882729.432
       222.000         175.000
     81409.30349     64785.58647  21028471.927    21028471.778    21028478.803
       234.000         206.000
   3716041.83149   2875516.80545  24469342.871    24469342.590    24469353.527
       207.000         134.000
  -4595450.93649  -3554458.54147  22513608.813    22513608.859    22513616.350
       231.000         189.000
 00  5  2 15 35  0.0000000  0  7G 2G24G 4G26G 7G 8G 9
    101031.42849     79425.41247  21892656.308    21892656.075    21892663.503
       237.000         205.000
  -5398572.18749  -4182297.53745  24522722.169    24522723.423    24522738.525
       208.000         146.000
  -5231023.03749  -4045655.05746  21968175.733    21968176.517    21968184.652
       230.000         185.000
   1684207.45449   1307673.79246  23891467.487    23891467.870    23891476.625
       220.000         172.000
     92841.65749     73693.89647  21030647.470    21030647.319    21030654.371
       235.000         206.000
   3806833.87949   2946263.59545  24486620.544    24486620.072    24486631.017
       208.000         142.000
  -4691016.12049  -3628924.91147  22495423.394    22495423.442    22495430.939
       230.000         190.000
 00  5  2 15 35 30.0000000  0  7G 2G24G 4G26G 7G 8G 9
    110915.65749     87127.34647  21894537.088    21894536.961    21894544.563
       231.000         197.000
  -5530334.68849  -4284969.18945  24497648.248    24497649.496    24497664.673
       205.000         146.000
  -5338762.00149  -4129607.44146  21947673.494    21947674.394    21947682.584
       228.000         186.000
   1730494.90249   1343741.87046  23900275.719    23900276.168    23900284.895
       220.000         172.000
    104653.93749     82898.25947  21032895.318    21032895.155    21032902.209
       235.000         206.000
   3897822.04949   3017163.16545  24503935.350    24503934.781    24503945.829
       204.000         143.000
  -4786119.00449  -3703031.03947  22477325.811    22477325.964    22477333.457
       230.000         190.000
 00  5  2 15 36  0.0000000  0  7G 2G24G 4G26G 7G 8G 9
    121100.35549     95063.48447  21896475.159    21896475.074    21896482.658
       233.000         199.000
  -5662027.07749  -4387586.23845  24472587.670    24472588.946    24472604.066
       208.000         148.000
  -5446072.89649  -4213226.25447  21927252.881    21927253.758    21927261.982
       229.000         188.000
   1777078.81949   1380040.93846  23909140.310    23909140.836    23909149.671
       221.000         173.000
    116822.55649     92380.28547  21035210.911    21035210.764    21035217.856
       234.000         206.000
   3988982.19949   3088196.75945  24521282.656    24521282.193    24521293.352
       200.000         141.000
  -4880779.17349  -3776792.18947  22459312.514    22459312.704    22459320.271
       229.000         190.000
 00  5  2 15 36 30.0000000  0  7G 2G24G 4G26G 7G 8G 9
    131585.42949    103233.60047  21898470.407    21898470.332    21898477.968
       236.000         201.000
  -5793647.29449  -4490147.04145  24447540.668    24447542.191    24447557.227
       206.000         150.000
  -5552953.27749  -4296509.60046  21906914.259    21906915.071    21906923.369
       229.000         187.000
   1823955.54249   1416568.16146  23918060.786    23918061.276    23918070.093
       220.000         171.000
    129345.20349    102138.17347  21037593.938    21037593.778    21037600.859
       233.000         205.000
   4080311.21949   3159361.92645  24538662.271    24538661.777    24538672.991
       199.000         141.000
  -4974995.11549  -3850207.19247  22441383.676    22441383.963    22441391.582
       230.000         190.000
 00  5  2 15 37  0.0000000  0  7G 2G24G 4G26G 7G 8G 9
    142375.45249    111641.40947  21900523.949    21900523.752    21900531.218
       236.000         200.000
  -5925188.76749  -4592646.48845  24422509.054    24422510.460    24422525.338
       206.000         149.000
  -5659396.53449  -4379452.33146  21886658.611    21886659.508    21886667.919
       227.000         186.000
   1871126.06549   1453324.33746  23927037.200    23927037.626    23927046.315
       221.000         169.000
    142223.98549    112173.57247  21040044.790    21040044.577    21040051.646
       234.000         206.000
   4171811.17749   3230660.25945  24556074.362    24556073.789    24556085.278
       197.000         138.000
  -5068760.77449  -3923271.32147  22423540.668    22423540.921    22423548.574
       231.000         190.000
 00  5  2 15 37 30.0000000  0  7G 2G24G 4G26G 7G 8G 9
    153467.66449    120284.68947  21902634.907    21902634.645    21902642.001
       232.000         198.000
  -6056652.23449  -4695085.18945  24397492.331    24397493.519    24397508.308
       206.000         150.000
  -5765402.87249  -4462054.61646  21866486.153    21866487.088    21866495.577
       229.000         187.000
   1918584.35449   1490304.73846  23936068.417    23936068.754    23936077.309
       223.000         169.000
    155454.26249    122482.85747  21042562.373    21042562.227    21042569.314
       233.000         205.000
   4263476.30349   3302087.28645  24573518.035    24573517.376    24573528.877
       203.000         145.000
  -5162077.11649  -3995985.33547  22405783.058    22405783.374    22405791.074
       230.000         190.000
 00  5  2 15 38  0.0000000  0  7G 2G24G 4G26G 7G 8G 9
    164857.58549    129159.87947  21904802.081    21904801.970    21904809.537
       232.000         201.000
  -6188039.87649  -4797464.79045  24372489.821    24372491.014    24372505.746
       203.000         148.000
  -5870974.25049  -4544317.96947  21846396.631    21846397.505    21846405.970
       228.000         188.000
   1966322.30749   1527503.04546  23945152.976    23945153.066    23945161.539
       221.000         169.000
    169029.28849    133060.79247  21045145.695    21045145.530    21045152.577
       236.000         206.000
   4355299.70949   3373637.65945  24590991.719    24590991.066    24591002.528
       200.000         146.000
  -5254946.81049  -4068351.31347  22388110.552    22388110.872    22388118.597
       230.000         191.000
 00  5  2 15 38 30.0000000  0  7G 2G24G 4G26G 7G 8G 9
    176547.23049    138268.66747  21907026.579    21907026.484    21907034.078
       236.000         202.000
  -6319347.76149  -4899782.24945  24347502.488    24347503.633    24347518.515
       203.000         149.000
  -5976106.45149  -4626239.09747  21826390.553    21826391.449    21826399.940
       228.000         189.000
   2014338.57549   1564918.22846  23954290.208    23954290.308    23954298.791
       220.000         167.000
    182948.99349    143907.30547  21047794.510    21047794.356    21047801.415
       234.000         205.000
   4447280.59649   3445310.72745  24608495.224    24608494.627    24608506.201
       201.000         146.000
  -5347365.76449  -4140366.06347  22370523.792    22370524.132    22370531.883
       231.000         191.000
 00  5  2 15 39  0.0000000  0  7G 2G24G 4G26G 7G 8G 9
    188534.60849    147609.46347  21909307.933    21909307.725    21909315.230
       232.000         198.000
  -6450575.75049  -5002037.47245  24322529.898    24322531.319    24322546.423
       200.000         147.000
  -6080799.25049  -4707817.84247  21806468.175    21806469.036    21806477.553
       229.000         189.000
   2062627.52449   1602545.89846  23963479.241    23963479.464    23963487.896
       222.000         169.000
    197209.07049    155019.03547  21050508.102    21050507.967    21050515.043
       234.000         205.000
   4539414.05349   3517102.71645  24626027.986    24626027.196    24626038.917
       204.000         142.000
  -5439334.62949  -4212030.10347  22353022.650    22353023.050    22353030.754
       231.000         191.000
 00  5  2 15 39 30.0000000  0  7G 2G24G 4G26G 7G 8G 9
    200819.45349    157182.01747  21911645.629    21911645.464    21911652.961
       234.000         200.000
  -6581722.15949  -5104229.18545  24297573.513    24297574.627    24297589.764
       204.000         147.000
  -6185050.73749  -4789052.70947  21786629.849    21786630.640    21786639.136
       231.000         192.000
   2111185.15549   1640382.92546  23972719.556    23972719.732    23972728.194
       219.000         168.000
    211806.89849    166393.95247  21053286.030    21053285.892    21053292.941
       235.000         206.000
   4631696.82449   3589011.11745  24643589.015    24643588.335    24643600.048
       201.000         136.000
  -5530852.31149  -4283342.57347  22335607.409    22335607.849    22335615.452
       232.000         191.000
 00  5  2 15 40  0.0000000  0  7G 2G24G 4G26G 7G 8G 9
    213399.54749    166984.70347  21914039.616    21914039.436    21914046.854
       234.000         199.000
  -6712787.03549  -5206357.34545  24272632.617    24272633.539    24272648.553
       208.000         148.000
  -6288860.77049  -4869943.58047  21766875.503    21766876.269    21766884.743
       231.000         192.000
   2160005.89449   1678424.95746  23982009.866    23982010.072    23982018.564
       220.000         168.000
    226738.22949    178028.74047  21056127.335    21056127.240    21056134.305
       236.000         205.000
   4724124.29349   3661032.14644  24661177.566    24661176.824    24661188.703
       200.000         131.000
  -5621919.19549  -4354303.76847  22318278.013    22318278.436    22318285.936
       230.000         191.000
 00  5  2 15 40 30.0000000  0  7G 2G24G 4G26G 7G 8G 9
    226281.05949    177022.17747  21916490.805    21916490.707    21916498.206
       233.000         201.000
  -6843762.16549  -5308415.58945  24247708.383    24247709.497    24247724.511
       201.000         148.000
  -6392220.92349  -4950483.89347  21747206.689    21747207.477    21747215.955
       230.000         192.000
   2209092.32449   1716674.04846  23991350.810    23991351.032    23991359.512
       220.000         168.000
    242006.91149    189926.40047  21059032.838    21059032.765    21059039.841
       235.000         205.000
   4816699.70448   3733168.54044  24678794.330    24678793.614    24678805.342
       191.000         122.000
  -5712527.49949  -4424907.61947  22301035.892    22301036.227    22301043.676
       231.000         191.000
 00  5  2 15 41  0.0000000  0  7G 2G24G 4G26G 7G 8G 9
    239463.23749    187294.00847  21918999.394    21918999.252    21919006.704
       232.000         200.000
  -6974645.95949  -5410402.68645  24222801.956    24222802.923    24222817.838
       202.000         147.000
  -6495129.42249  -5030672.28547  21727623.883    21727624.629    21727633.128
       230.000         191.000
   2258440.31549   1755126.93246  24000741.317    24000741.650    24000750.290
       218.000         168.000
    257610.07449    202084.69947  21062002.064    21062001.977    21062008.979
       236.000         204.000
   4909419.50948   3805417.43044  24696438.580    24696437.852    24696449.522
       190.000         122.000
  -5802675.97749  -4495153.17147  22283881.165    22283881.524    22283888.942
       232.000         192.000
 00  5  2 15 41 30.0000000  0  7G 2G24G 4G26G 7G 8G 9
    252950.44949    197803.44547  21921565.754    21921565.702    21921573.307
       233.000         200.000
  -7105432.19449  -5512313.75345  24197914.047    24197914.863    24197929.720
       201.000         146.000
  -6597579.86149  -5110503.75047  21708128.040    21708128.881    21708137.412
       229.000         192.000
   2308050.62949   1793784.22446  24010181.644    24010182.147    24010191.012
       218.000         169.000
    273549.94949    214505.36447  21065035.277    21065035.207    21065042.216
       235.000         204.000
   5002285.44048   3877780.11744  24714110.458    24714110.086    24714121.735
       189.000         121.000
  -5892358.58049  -4565035.70647  22266815.120    22266815.527    22266822.915
       231.000         192.000
 00  5  2 15 42  0.0000000  0  7G 2G24G 4G26G 7G 8G 9
    266734.21749    208544.04347  21924188.845    21924188.727    21924196.289
       236.000         198.000
  -7236127.14149  -5614153.68445  24173043.186    24173044.079    24173059.012
       203.000         145.000
  -6699578.38949  -5189983.05547  21688718.368    21688719.166    21688727.710
       230.000         190.000
   2357911.36849   1832636.63946  24019669.753    24019670.368    24019679.316
       219.000         167.000
    289815.93149    227180.13647  21068130.569    21068130.521    21068137.544
       235.000         204.000
   5095286.37548   3950248.00744  24731807.861    24731807.543    24731819.437
       186.000         118.000
  -5981581.97849  -4634560.41547  22249836.482    22249836.849    22249844.267
       231.000         192.000
 00  5  2 15 42 30.0000000  0  7G 2G24G 4G26G 7G 8G 9
    280818.77049    219519.03247  21926869.011    21926868.931    21926876.502
       232.000         197.000
  -7366724.45249  -5715917.55945  24148191.142    24148192.034    24148206.853
       203.000         147.000
  -6801118.55149  -5269105.20147  21669395.928    21669396.711    21669405.186
       230.000         190.000
   2408023.03449   1871684.58246  24029205.683    24029206.325    24029215.310
       218.000         166.000
    306409.83749    240110.43447  21071288.351    21071288.275    21071295.264
       235.000         205.000
   5188423.31348   4022821.83745  24749531.671    24749531.177    24749543.186
       194.000         132.000
  -6070340.66349  -4703723.00447  22232946.266    22232946.620    22232954.067
       231.000         193.000
 00  5  2 15 43  0.0000000  0  7G 2G24G 4G26G 7G 8G 9
    295203.18549    230727.63647  21929606.399    21929606.256    21929613.809
       233.000         199.000
  -7497222.97649  -5817604.43945  24123357.595    24123358.784    24123373.559
       201.000         147.000
  -6902199.22749  -5347869.31847  21650160.786    21650161.615    21650170.098
       229.000         190.000
   2458381.25149   1910924.65046  24038788.584    24038789.249    24038798.250
       218.000         168.000
    323328.51749    253293.80247  21074507.975    21074507.862    21074514.770
       237.000         204.000
   5281692.74948   4095498.90945  24767280.384    24767279.968    24767292.244
       192.000         138.000
  -6158633.83049  -4772522.85447  22216144.700    22216144.996    22216152.450
       231.000         193.000
 00  5  2 15 43 30.0000000  0  7G 2G24G 4G26G 7G 8G 9
    309894.28949    242175.22647  21932402.159    21932401.932    21932409.465
       230.000         198.000
  -7627613.80749  -5919207.42045  24098544.924    24098546.039    24098560.684
       203.000         149.000
  -7002811.15949  -5426268.19947  21631014.842    21631015.737    21631024.152
       231.000         190.000
   2508989.28449   1950359.38146  24048419.068    24048419.669    24048428.774
       216.000         165.000
    340576.68949    266733.91647  21077790.240    21077790.119    21077797.011
       236.000         205.000
   5375098.93248   4168282.56345  24785055.399    24785054.779    24785067.328
       194.000         135.000
  -6246452.85449  -4840953.24847  22199433.343    22199433.609    22199441.066
       232.000         194.000
 00  5  2 15 44  0.0000000  0  7G 2G24G 4G26G 7G 8G 9
    324894.44249    253863.60147  21935256.528    21935256.377    21935263.948
       234.000         200.000
  -7757892.63549  -6020723.11445  24073753.278    24073754.515    24073769.094
       206.000         148.000
  -7102950.09549  -5504298.49047  21611959.208    21611959.954    21611968.290
       231.000         192.000
   2559845.72749   1989987.65846  24058096.773    24058097.366    24058106.570
       218.000         167.000
    358154.30149    280430.74047  21081135.239    21081135.060    21081141.902
       236.000         204.000
   5468641.08149   4241172.17045  24802856.203    24802855.509    24802868.075
       196.000         134.000
  -6333794.08649  -4909011.33547  22182812.888    22182813.093    22182820.608
       231.000         193.000
 00  5  2 15 44 30.0000000  0  7G 2G24G 4G26G 7G 8G 9
    340194.02949    265785.34347  21938168.181    21938167.920    21938175.409
       232.000         197.000
  -7888066.42349  -6122156.98545  24048981.865    24048983.042    24048997.507
       203.000         148.000
  -7202623.02449  -5581965.66747  21592992.126    21592992.824    21593001.115
       230.000         191.000
   2610937.88749   2029799.62646  24067819.478    24067820.018    24067829.151
       220.000         168.000
    376050.05749    294375.45547  21084540.679    21084540.544    21084547.394
       237.000         205.000
   5562307.27948   4314158.47145  24820680.524    24820679.784    24820692.545
       191.000         134.000
  -6420665.37949  -4976703.23447  22166281.784    22166282.004    22166289.578
       230.000         194.000
 00  5  2 15 45  0.0000000  0  7G 2G24G 4G26G 7G 8G 9
    355800.70249    277946.36347  21941137.779    21941137.674    21941145.257
       230.000         196.000
  -8018125.60249  -6223501.51545  24024232.138    24024233.354    24024247.772
       207.000         149.000
  -7301820.32549  -5659262.21247  21574115.410    21574116.178    21574124.488
       231.000         192.000
   2662269.78549   2069798.39846  24077587.792    24077588.236    24077597.406
       215.000         165.000
    394269.09249    308572.08647  21088007.707    21088007.543    21088014.382
       235.000         205.000
   5656102.32948   4387245.10345  24838529.184    24838528.495    24838541.612
       191.000         132.000
  -6507057.24849  -5044021.55847  22149841.863    22149842.124    22149849.760
       231.000         193.000
 00  5  2 15 45 30.0000000  0  7G 2G24G 4G26G 7G 8G 9
    371720.85249    290351.64847  21944167.319    21944167.216    21944174.758
       233.000         196.000
  -8148061.67349  -6324750.13445  23999505.972    23999507.169    23999521.395
       204.000         149.000
  -7400533.20049  -5736181.29947  21555331.003    21555331.744    21555339.980
       232.000         192.000
   2713844.25949   2109986.17746  24087402.093    24087402.579    24087411.759
       218.000         167.000
    412815.83749    323024.07147  21091537.068    21091536.897    21091543.730
       237.000         204.000
   5750029.72748   4460434.93944  24856403.279    24856402.421    24856415.738
       188.000         124.000
  -6592961.83649  -5110960.18547  22133494.657    22133494.992    22133502.634
       232.000         194.000
 00  5  2 15 46  0.0000000  0  7G 2G24G 4G26G 7G 8G 9
    387943.41349    302992.61247  21947254.494    21947254.338    21947261.786
       233.000         197.000
  -8277883.61249  -6425909.80245  23974801.517    23974802.559    23974816.798
       208.000         148.000
  -7498770.86349  -5812730.09047  21536636.962    21536637.725    21536645.887
       233.000         193.000
   2765646.57749   2150351.51846  24097260.060    24097260.466    24097269.462
       220.000         167.000
    431676.89849    337720.98247  21095126.191    21095126.050    21095132.893
       237.000         205.000
   5844075.74658   4533717.19354  24874298.859    24874299.022    24874312.564
       175.000         115.000
  -6678388.61849  -5177526.49047  22117238.441    22117238.814    22117246.451
       232.000         194.000
 00  5  2 15 46 30.0000000  0  7G 2G24G 4G26G 7G 8G 9
    404475.78549    315874.90747  21950400.327    21950400.257    21950407.862
       228.000         194.000
  -8407581.70549  -6526972.97645  23950120.561    23950121.599    23950135.730
       200.000         148.000
  -7596523.39849  -5888900.85347  21518035.283    21518036.029    21518044.150
       232.000         194.000
   2817681.00649   2190897.70846  24107161.840    24107162.369    24107171.418
       215.000         165.000
    450857.72549    352667.05947  21098776.274    21098776.087    21098782.924
       236.000         205.000
   5938245.15058   4607095.38154  24892219.222    24892218.590    24892232.976
       184.000         117.000
  -6763328.26349  -5243713.21647  22101075.053    22101075.347    22101082.912
       232.000         194.000
 00  5  2 15 47  0.0000000  0  7G 2G24G 4G26G 7G 8G 9
    421313.37549    328995.10847  21953604.465    21953604.382    21953611.973
       232.000         199.000
  -8537158.13649  -6627941.34145  23925462.303    23925463.693    23925477.793
       204.000         148.000
  -7693793.02549  -5964695.32147  21499525.403    21499526.171    21499534.326
       232.000         191.000
   2869939.43549   2231618.44246  24117106.619    24117106.985    24117115.975
       221.000         168.000
    470351.64649    367857.10147  21102485.795    21102485.656    21102492.502
       236.000         204.000
   6032530.62548   4680564.20344  24910161.521    24910160.859    24910175.124
       176.000         105.000
  -6847783.54149  -5309522.51647  22085003.838    22085004.088    22085011.579
       231.000         194.000
 00  5  2 15 47 30.0000000  0  7G 2G24G 4G26G 7G 8G 9
    438470.53349    342364.28147  21956869.467    21956869.327    21956876.997
       230.000         200.000
  -8666596.71649  -6728802.30545  23900831.065    23900832.234    23900846.147
       207.000         150.000
  -7790563.59249  -6040100.92947  21481110.496    21481111.302    21481119.452
       233.000         193.000
   2922432.42949   2272521.97946  24127095.920    24127096.216    24127105.157
       219.000         166.000
    490170.63549    383300.45947  21106257.320    21106257.136    21106263.930
       237.000         205.000
   6126943.83658   4754132.61454  24928128.074    24928127.299    24928141.823
       189.000         117.000
  -6931738.74049  -5374942.13447  22069027.721    22069027.964    22069035.378
       233.000         194.000
 00  5  2 15 48  0.0000000  0  7G 2G24G 4G26G 7G 8G 9
    455938.13849    355975.35947  21960193.329    21960193.267    21960201.040
       227.000         191.000
  -8795904.34649  -6829561.23545  23876224.828    23876225.705    23876239.470
       209.000         153.000
  -7886842.17649  -6115123.17347  21462789.155    21462790.037    21462798.203
       231.000         192.000
   2975147.47349   2313598.51446  24137127.357    24137127.645    24137136.659
       219.000         166.000
    510303.42149    398988.32747  21110088.410    21110088.294    21110095.091
       237.000         206.000
   6221472.63848   4827791.02444  24946116.791    24946115.973    24946130.356
       191.000         129.000
  -7015201.55649  -5439978.07747  22053145.415    22053145.530    22053152.878
       232.000         194.000
 00  5  2 15 48 30.0000000  0  8G 2G24G 4G26G 5G 7G 8G 9
    473722.66249    369833.40247  21963577.379    21963577.435    21963585.323
       229.000         195.000
  -8925072.56349  -6930211.54245  23851644.826    23851645.713    23851659.329
       208.000         150.000
  -7982620.26349  -6189755.41947  21444563.133    21444564.010    21444572.174
       232.000         192.000
   3028087.15649   2354850.10146  24147201.580    24147201.835    24147210.857
       218.000         165.000
   -311821.10659   -218523.78654  24969196.444    24969195.508    24969207.237
       201.000         124.000
    530754.17049    414923.94547  21113980.196    21113980.000    21113986.876
       237.000         207.000
   6316120.91048   4901542.51244  24964128.294    24964127.355    24964141.652
       191.000         130.000
  -7098164.17449  -5504624.26047  22037358.083    22037358.243    22037365.531
       232.000         193.000
 00  5  2 15 49  0.0000000  0  8G 2G24G 4G26G 5G 7G 8G 9
    491812.62149    383929.43247  21967019.884    21967019.873    21967027.838
       231.000         198.000
  -9054110.39049  -7030760.24145  23827089.448    23827090.389    23827103.965
       206.000         151.000
  -8077906.75749  -6264004.60447  21426430.842    21426431.629    21426439.745
       235.000         194.000
   3081236.97449   2396265.40246  24157315.617    24157315.976    24157325.026
       218.000         166.000
   -417140.65259   -300590.93655  24949155.338    24949158.441    24949167.422
       212.000         153.000
    551509.55749    431096.95647  21117929.830    21117929.642    21117936.523
       236.000         205.000
   6410874.53048   4975376.10845  24982159.774    24982158.601    24982172.835
       194.000         133.000
  -7180635.91349  -5568887.93947  22021664.154    22021664.420    22021671.621
       232.000         193.000
 00  5  2 15 49 30.0000000  0  8G 2G24G 4G26G 5G 7G 8G 9
    510210.62549    398265.51947  21970521.169    21970521.028    21970528.993
       232.000         201.000
  -9183013.02249  -7131203.59945  23802559.804    23802560.859    23802574.378
       209.000         153.000
  -8172697.10049  -6337867.17247  21408392.851    21408393.631    21408401.773
       234.000         194.000
   3134595.93749   2437843.70046  24167469.725    24167470.027    24167478.987
       219.000         165.000
   -522430.65549   -382634.97845  24929119.774    24929120.941    24929131.768
       201.000         151.000
    572569.98149    447507.65647  21121937.533    21121937.329    21121944.219
       236.000         205.000
   6505733.38149   5049291.76845  25000211.318    25000210.068    25000224.180
       195.000         139.000
  -7262612.79249  -5632766.00647  22006064.559    22006064.731    22006071.855
       233.000         194.000
 00  5  2 15 50  0.0000000  0  8G 2G24G 4G26G 5G 7G 8G 9
    528940.48249    412860.16147  21974085.281    21974085.202    21974093.222
       229.000         196.000
  -9311754.46449  -7231521.38445  23778060.965    23778062.069    23778075.538
       210.000         155.000
  -8266965.43949  -6411322.98347  21390454.233    21390454.959    21390463.080
       232.000         194.000
   3188184.30449   2479600.76246  24177667.359    24177667.672    24177676.604
       217.000         163.000
   -627667.33849   -464637.42345  24909094.061    24909094.537    24909105.541
       209.000         138.000
    593957.20249    464172.99247  21126007.326    21126007.186    21126014.157
       235.000         205.000
   6600718.56648   5123305.78745  25018286.739    25018285.572    25018299.768
       188.000         135.000
  -7344069.65449  -5696238.88247  21990563.857    21990564.010    21990571.064
       233.000         194.000
 00  5  2 15 50 30.0000000  0  8G 2G24G 4G26G 5G 7G 8G 9
    547988.68049    427702.88647  21977710.100    21977709.970    21977717.919
       228.000         190.000
  -9440345.92149  -7331722.30545  23753591.072    23753591.817    23753605.188
       213.000         155.000
  -8360723.19249  -6484380.94547  21372612.803    21372613.472    21372621.507
       235.000         194.000
   3241985.22249   2521523.42846  24187905.379    24187905.736    24187914.819
       218.000         167.000
   -732864.04549   -546608.93145  24889076.284    24889076.404    24889086.583
       213.000         141.000
    615655.58949    481080.81447  21130136.407    21130136.266    21130143.198
       237.000         205.000
   6695813.93348   5197405.62745  25036383.017    25036381.982    25036396.264
       187.000         135.000
  -7425018.45149  -5759315.84647  21975159.722    21975159.935    21975167.014
       232.000         194.000
 00  5  2 15 51  0.0000000  0  8G 2G24G 4G26G 5G 7G 8G 9
    567337.93349    442780.18947  21981392.150    21981391.991    21981399.967
       230.000         200.000
  -9568802.70949  -7431818.27845  23729146.347    23729147.128    23729160.454
       211.000         156.000
  -8453985.59449  -6557052.91347  21354865.570    21354866.208    21354874.198
       233.000         194.000
   3295977.61749   2563595.28046  24198180.011    24198180.283    24198189.453
       219.000         164.000
   -838038.10049   -628562.64745  24869062.380    24869062.584    24869072.593
       205.000         147.000
    637645.51449    498215.80747  21134321.008    21134320.835    21134327.807
       236.000         204.000
   6790999.11248   5271575.57144  25054496.626    25054495.396    25054509.604
       191.000         130.000
  -7505474.66549  -5822008.98747  21959849.139    21959849.592    21959856.689
       231.000         194.000
 00  5  2 15 51 30.0000000  0  8G 2G24G 4G26G 5G 7G 8G 9
    587009.38649    458108.52947  21985135.689    21985135.466    21985143.447
       236.000         202.000
  -9697101.32549  -7531790.98845  23704731.800    23704732.569    23704745.824
       212.000         158.000
  -8546729.47649  -6629320.82747  21337217.010    21337217.645    21337225.647
       234.000         196.000
   3350179.49249   2605830.38745  24208494.328    24208494.708    24208503.745
       216.000         162.000
   -943168.65149   -710482.42345  24849056.600    24849056.784    24849066.992
       206.000         143.000
    659946.22249    515592.95747  21138564.673    21138564.527    21138571.495
       236.000         205.000
   6886292.86049   5345830.11245  25072630.773    25072629.534    25072643.737
       195.000         132.000
  -7585415.44049  -5884300.49347  21944636.831    21944637.324    21944644.457
       232.000         195.000
 00  5  2 15 52  0.0000000  0  8G 2G24G 4G26G 5G 7G 8G 9
    606991.71549    473679.16047  21988938.359    21988938.081    21988945.952
       229.000         191.000
  -9825250.82249  -7631647.52345  23680345.621    23680346.420    23680359.586
       212.000         158.000
  -8638963.81249  -6701191.69447  21319665.471    21319666.064    21319674.089
       235.000         197.000
   3404575.91949   2648217.09446  24218845.691    24218846.071    24218855.144
       218.000         166.000
  -1048267.08349   -792377.21745  24829056.945    24829057.113    24829067.282
       207.000         142.000
    682544.28749    533201.82647  21142865.063    21142864.858    21142871.821
       238.000         206.000
   6981681.15349   5420158.31245  25090783.062    25090781.638    25090796.001
       201.000         138.000
  -7664850.47349  -5946197.91447  21929520.908    21929521.349    21929528.437
       233.000         194.000
 00  5  2 15 52 30.0000000  0  8G 2G24G 4G26G 5G 7G 8G 9
    627260.65949    489473.09747  21992795.375    21992795.138    21992803.024
       230.000         194.000
  -9953273.28249  -7731405.06845  23655983.702    23655984.379    23655997.477
       214.000         158.000
  -8730710.93049  -6772682.91847  21302206.588    21302207.169    21302215.263
       235.000         197.000
   3459139.09249   2690733.70246  24229228.870    24229229.282    24229238.463
       219.000         166.000
  -1153357.89749   -874266.15245  24809058.646    24809058.914    24809069.089
       206.000         143.000
    705413.40149    551021.87747  21147216.874    21147216.705    21147223.735
       237.000         206.000
   7077136.99449   5494539.19445  25108948.092    25108946.703    25108960.957
       204.000         138.000
  -7743802.81349  -6007719.20547  21914496.591    21914497.177    21914504.278
       232.000         195.000
 00  5  2 15 53  0.0000000  0  8G 2G24G 4G26G 5G 7G 8G 9
    647849.93449    505516.62447  21996713.463    21996713.201    21996721.055
       229.000         194.000
 -10081132.72249  -7831035.61845  23631652.617    23631653.422    23631666.341
       209.000         157.000
  -8821935.11549  -6843766.66847  21284847.140    21284847.755    21284855.884
       233.000         197.000
   3513899.45149   2733403.98745  24239649.499    24239649.924    24239659.082
       216.000         160.000
  -1258407.17449   -956122.61545  24789068.600    24789068.708    24789078.724
       210.000         146.000
    728585.11849    569077.74547  21151626.399    21151626.183    21151633.194
       236.000         206.000
   7172691.68349   5568997.21645  25127131.944    25127130.512    25127144.911
       201.000         134.000
  -7822237.03649  -6068836.77447  21899571.180    21899571.623    21899578.730
       233.000         194.000
 00  5  2 15 53 30.0000000  0  8G 2G24G 4G26G 5G 7G 8G 9
    668771.72749    521819.27647  22000694.909    22000694.592    22000702.425
       231.000         198.000
 -10208814.48249  -7930527.69245  23607355.370    23607356.202    23607369.036
       212.000         156.000
  -8912622.00849  -6914431.73447  21267589.891    21267590.560    21267598.735
       233.000         196.000
   3568865.81749   2776234.79246  24250109.574    24250109.803    24250118.900
       220.000         164.000
  -1363402.68949  -1037937.20445  24769088.547    24769088.709    24769098.690
       204.000         145.000
    752069.79449    587377.47147  21156095.403    21156095.205    21156102.254
       237.000         206.000
   7268354.60649   5643539.49845  25145336.265    25145334.866    25145349.387
       202.000         138.000
  -7900139.30049  -6129539.83247  21884746.886    21884747.349    21884754.400
       234.000         195.000
 00  5  2 15 54  0.0000000  0  8G 2G24G 4G26G 5G 7G 8G 9
    690008.75549    538367.57147  22004736.203    22004735.916    22004743.730
       229.000         192.000
 -10336333.91049  -8029893.28945  23583088.914    23583089.828    23583102.619
       208.000         156.000
  -9002786.81949  -6984689.97747  21250432.016    21250432.714    21250440.869
       234.000         195.000
   3624017.27549   2819209.80345  24260604.590    24260604.865    24260614.093
       215.000         162.000
  -1468362.12049  -1119723.71745  24749115.296    24749115.569    24749125.556
       206.000         144.000
    775847.85249    605905.82047  21160620.303    21160620.064    21160627.056
       238.000         207.000
   7364105.67949   5718150.44345  25163557.439    25163556.029    25163570.599
       202.000         143.000
  -7977525.60649  -6189840.83847  21870020.997    21870021.244    21870028.284
       234.000         196.000
 00  5  2 15 54 30.0000000  0  8G 2G24G 4G26G 5G 7G 8G 9
    711575.68649    555172.93947  22008840.231    22008839.962    22008847.796
       230.000         193.000
 -10463674.00249  -8129119.14045  23558856.623    23558857.579    23558870.340
       211.000         156.000
  -9092413.09649  -7054528.59647  21233376.644    21233377.359    21233385.463
       233.000         196.000
   3679364.87549   2862337.64845  24271136.691    24271137.192    24271146.461
       216.000         161.000
  -1573270.51049  -1201470.47945  24729152.062    24729152.236    24729162.091
       211.000         148.000
    799931.76949    624672.47947  21165203.322    21165203.086    21165210.140
       236.000         206.000
   7459956.76349   5792839.36045  25181797.671    25181796.241    25181810.826
       199.000         145.000
  -8054379.94949  -6249727.32747  21855396.264    21855396.364    21855403.382
       234.000         196.000
 00  5  2 15 55  0.0000000  0  8G 2G24G 4G26G 5G 7G 8G 9
    733465.66049    572230.02047  22013005.744    22013005.475    22013013.295
       226.000         188.000
 -10590839.33349  -8228208.84045  23534657.731    23534658.691    23534671.284
       211.000         157.000
  -9181505.56149  -7123951.25847  21216422.873    21216423.582    21216431.683
       233.000         196.000
   3734898.53249   2905610.51645  24281704.594    24281705.037    24281714.191
       216.000         162.000
  -1678134.74349  -1283182.76845  24709196.929    24709197.203    24709207.081
       204.000         144.000
    824312.83049    643670.68647  21169842.830    21169842.647    21169849.697
       236.000         206.000
   7555898.56448   5867598.94045  25200054.891    25200053.659    25200068.337
       189.000         133.000
  -8130707.34149  -6309203.20647  21840871.716    21840871.768    21840878.776
       235.000         197.000
 00  5  2 15 55 30.0000000  0  7G 2G24G 4G26G 5G 7G 9
    755680.08249    589539.93447  22017232.889    22017232.686    22017240.550
       226.000         190.000
 -10717825.98149  -8327159.28745  23510492.827    23510493.767    23510506.229
       213.000         158.000
  -9270060.64549  -7192955.17147  21199571.516    21199572.151    21199580.158
       234.000         196.000
   3790616.29349   2949026.78245  24292307.162    24292307.778    24292317.109
       215.000         161.000
  -1782953.48049  -1364859.61945  24689250.582    24689250.728    24689260.745
       209.000         150.000
    848990.64849    662900.12847  21174538.887    21174538.710    21174545.789
       236.000         208.000
  -8206504.74449  -6368266.10847  21826447.792    21826448.020    21826455.021
       234.000         197.000
 00  5  2 15 56  0.0000000  0  7G 2G24G 4G26G 5G 7G 9
    778222.92849    607105.74847  22021522.736    22021522.488    22021530.386
       229.000         191.000
 -10844627.72649  -8425965.68645  23486363.248    23486364.089    23486376.372
       214.000         157.000
  -9358072.51449  -7261535.80347  21182823.493    21182824.056    21182832.028
       234.000         195.000
   3846518.78449   2992587.00645  24302945.149    24302945.770    24302955.130
       216.000         160.000
  -1887722.55749  -1446497.76245  24669313.709    24669313.848    24669323.985
       210.000         152.000
    873966.85049    682362.08847  21179291.811    21179291.569    21179298.630
       236.000         206.000
  -8281766.65049  -6426911.74547  21812125.984    21812126.228    21812133.193
       235.000         197.000
 00  5  2 15 56 30.0000000  0  7G 2G24G 4G26G 5G 7G 9
    801080.84949    624917.03347  22025872.656    22025872.295    22025880.162
       229.000         195.000
 -10971256.18349  -8524637.04645  23462266.492    23462267.292    23462279.517
       215.000         158.000
  -9445552.63649  -7329702.10147  21166176.451    21166177.080    21166185.044
       234.000         195.000
   3902588.88249   3036277.85345  24313615.066    24313615.638    24313624.958
       216.000         159.000
  -1992455.73249  -1528107.95045  24649383.571    24649383.622    24649393.931
       209.000         142.000
    899225.93049    702044.46747  21184098.481    21184098.233    21184105.324
       236.000         206.000
  -8356505.23549  -6485149.58747  21797903.804    21797903.963    21797910.931
       235.000         198.000
 00  5  2 15 57  0.0000000  0  7G 2G24G 4G26G 5G 7G 9
    824263.16249    642981.09447  22030284.017    22030283.697    22030291.702
       226.000         189.000
 -11097699.22149  -8623163.92845  23438205.107    23438205.909    23438218.008
       211.000         157.000
  -9532489.75249  -7397445.26947  21149632.693    21149633.420    21149641.427
       233.000         195.000
   3958832.70549   3080104.06545  24324317.945    24324318.579    24324327.986
       217.000         161.000
  -2097143.41449  -1609682.78545  24629462.062    24629462.190    24629472.359
       208.000         143.000
    924775.40549    721953.12147  21188960.370    21188960.150    21188967.254
       238.000         207.000
  -8430709.53549  -6542971.11547  21783783.074    21783783.349    21783790.306
       234.000         197.000
 00  5  2 15 57 30.0000000  0  7G 2G24G 4G26G 5G 7G 9
    847772.52649    661300.07747  22034757.933    22034757.523    22034765.364
       231.000         188.000
 -11223952.01849  -8721542.56045  23414179.771    23414180.544    23414192.749
       211.000         159.000
  -9618879.16549  -7464761.65947  21133193.347    21133194.047    21133202.005
       235.000         196.000
   4015249.44949   3124064.98645  24335054.094    24335054.498    24335063.942
       217.000         160.000
  -2201783.20149  -1691220.22045  24609549.781    24609549.813    24609559.920
       208.000         149.000
    950615.86749    742088.52547  21193877.746    21193877.481    21193884.552
       238.000         207.000
  -8504375.46449  -6600373.13547  21769764.830    21769765.214    21769772.119
       234.000         197.000
 00  5  2 15 58  0.0000000  0  7G 2G24G 4G26G 5G 7G 9
    871600.66149    679867.47747  22039292.372    22039291.958    22039299.750
       234.000         195.000
 -11350020.30949  -8819777.43045  23390189.593    23390190.392    23390202.679
       211.000         158.000
  -9704726.96749  -7531656.01147  21116857.170    21116857.770    21116865.680
       233.000         196.000
   4071827.62249   3168151.71645  24345820.858    24345821.016    24345830.451
       215.000         157.000
  -2306382.96749  -1772726.40845  24589644.904    24589645.097    24589655.303
       209.000         149.000
    976737.26449    762442.83147  21198848.524    21198848.243    21198855.386
       237.000         207.000
  -8577509.57749  -6657360.74747  21755847.899    21755848.238    21755855.145
       235.000         198.000
 00  5  2 15 58 30.0000000  0  7G 2G24G 4G26G 5G 7G 9
    895763.21149    698695.41347  22043890.449    22043890.030    22043897.836
       226.000         191.000
 -11475886.29749  -8917854.65345  23366237.838    23366238.642    23366251.032
       211.000         158.000
  -9790015.79849  -7598114.80547  21100627.160    21100627.806    21100635.686
       234.000         194.000
   4128579.45549   3212373.78445  24356620.527    24356620.680    24356630.088
       219.000         162.000
  -2410926.91049  -1854189.20245  24569750.847    24569751.046    24569761.231
       212.000         143.000
   1003153.16349    783026.63547  21203875.362    21203875.064    21203882.143
       238.000         207.000
  -8650094.81949  -6713920.66747  21742035.440    21742035.717    21742042.674
       235.000         198.000
 00  5  2 15 59  0.0000000  0  7G 2G24G 4G26G 5G 7G 9
    920243.88449    717771.11147  22048548.807    22048548.492    22048556.485
       225.000         195.000
 -11601564.33249  -9015785.44245  23342321.941    23342322.796    23342335.148
       212.000         159.000
  -9874760.09849  -7664149.29847  21084500.910    21084501.522    21084509.199
       234.000         195.000
   4185485.00349   3256715.58345  24367449.640    24367449.642    24367459.131
       218.000         161.000
  -2515431.78749  -1935621.60145  24549864.300    24549864.435    24549874.403
       209.000         146.000
   1029844.95149    803825.40947  21208954.677    21208954.368    21208961.455
       239.000         208.000
  -8722146.45249  -6770064.79447  21728324.439    21728324.749    21728331.744
       236.000         199.000
 00  5  2 15 59 30.0000000  0  7G 2G24G 4G26G 5G 7G 9
    945046.47749    737097.73347  22053268.652    22053268.320    22053276.410
       232.000         195.000
 -11727048.00749  -9113564.77945  23318443.256    23318443.954    23318456.219
       216.000         160.000
  -9958954.02949  -7729754.92047  21068479.347    21068479.939    21068487.540
       233.000         196.000
   4242544.80549   3301177.59345  24378308.047    24378307.877    24378317.382
       218.000         158.000
  -2619893.21949  -2017019.92145  24529985.763    24529985.924    24529996.024
       211.000         149.000
   1056814.67849    824840.74547  21214086.828    21214086.561    21214093.718
       237.000         206.000
  -8793658.91549  -6825788.77847  21714716.161    21714716.405    21714723.438
       235.000         199.000
 00  5  2 16  0  0.0000000  0  7G 2G24G 4G26G 5G 7G 9
    970192.17849    756691.80546  22058053.895    22058053.503    22058061.286
       232.000         183.000
 -11852313.74049  -9211174.27645  23294605.958    23294606.571    23294618.810
       214.000         161.000
 -10042574.66349  -7794913.83747  21052566.794    21052567.418    21052575.065
       234.000         196.000
   4299776.61749   3345773.68045  24389199.075    24389198.894    24389208.317
       216.000         159.000
  -2724289.88349  -2098367.90745  24510119.824    24510119.906    24510130.040
       213.000         147.000
   1084081.66349    846087.73747  21219275.599    21219275.331    21219282.389
       237.000         206.000
  -8864609.43949  -6881074.89247  21701214.745    21701214.966    21701222.057
       234.000         199.000
 00  5  2 16  0 30.0000000  0  7G 2G24G 4G26G 5G 7G 9
    995633.06549    776515.89447  22062895.214    22062894.838    22062902.407
       229.000         189.000
 -11977407.04649  -9308649.43645  23270801.386    23270802.027    23270814.159
       214.000         162.000
 -10125668.03149  -7859661.88947  21036754.543    21036755.221    21036762.956
       233.000         197.000
   4357129.45749   3390463.99445  24400112.942    24400112.817    24400122.454
       219.000         159.000
  -2828669.70349  -2179702.84645  24490256.937    24490257.079    24490267.033
       211.000         140.000
   1111595.88849    867527.38147  21224511.414    21224511.135    21224518.190
       239.000         206.000
  -8935044.63449  -6935959.45047  21687811.313    21687811.595    21687818.699
       236.000         199.000
 00  5  2 16  1  0.0000000  0  7G 2G24G 4G26G 5G 7G 9
   1021417.70849    796607.73547  22067801.728    22067801.441    22067809.197
       228.000         193.000
 -12102277.19849  -9405950.70945  23247039.371    23247039.911    23247052.008
       213.000         162.000
 -10208183.59049  -7923959.69847  21021052.219    21021052.961    21021060.773
       232.000         198.000
   4414648.22349   3435283.64245  24411058.707    24411058.460    24411068.106
       219.000         161.000
  -2932983.92249  -2260986.57845  24470406.378    24470406.638    24470416.551
       209.000         146.000
   1139404.05249    889196.05547  21229803.209    21229802.894    21229809.930
       239.000         206.000
  -9004914.53549  -6990403.52747  21674515.529    21674515.808    21674522.914
       235.000         199.000
 00  5  2 16  1 30.0000000  0  7G 2G24G 4G26G 5G 7G 9
   1047498.03349    816929.98447  22072764.823    22072764.468    22072772.238
       232.000         198.000
 -12226969.78749  -9503113.63846  23223311.162    23223311.631    23223323.653
       215.000         164.000
 -10290167.38149  -7987843.13747  21005451.260    21005451.949    21005459.837
       234.000         198.000
   4472281.61549   3480192.61045  24422026.008    24422025.800    24422035.474
       211.000         155.000
  -3037280.56249  -2342256.58845  24450559.529    24450559.647    24450569.606
       211.000         150.000
   1167456.16249    911054.82247  21235141.328    21235141.018    21235148.055
       237.000         205.000
  -9074265.82249  -7044443.47647  21661318.416    21661318.715    21661325.845
       235.000         200.000
 00  5  2 16  2  0.0000000  0  7G 2G24G 4G26G 5G 7G 9
   1073909.75649    837510.48447  22077790.864    22077790.516    22077798.377
       224.000         188.000
 -12351446.82549  -9600108.59845  23199623.851    23199624.305    23199636.311
       215.000         162.000
 -10371582.14149  -8051283.18247  20989958.446    20989959.200    20989967.119
       234.000         198.000
   4530062.06849   3525216.14345  24433021.255    24433021.069    24433030.792
       214.000         158.000
  -3141523.38949  -2423484.73245  24430722.864    24430722.906    24430732.762
       212.000         143.000
   1195786.00049    933129.99247  21240532.275    21240531.998    21240539.101
       236.000         205.000
  -9143061.18249  -7098050.24447  21648227.119    21648227.391    21648234.563
       235.000         200.000
 00  5  2 16  2 30.0000000  0  7G 2G24G 4G26G 5G 7G 9
   1100644.95549    858343.06946  22082878.064    22082877.910    22082885.919
       222.000         180.000
 -12475713.84249  -9696939.89446  23175976.544    23175976.952    23175989.021
       214.000         164.000
 -10452433.72649  -8114284.38247  20974572.975    20974573.677    20974581.560
       235.000         198.000
   4587978.19749   3570345.41046  24444042.460    24444042.327    24444052.118
       216.000         163.000
  -3245720.44649  -2504677.19645  24410894.734    24410894.664    24410904.364
       210.000         141.000
   1224383.75349    955413.94647  21245974.317    21245974.023    21245981.116
       237.000         207.000
  -9211307.20449  -7151228.95147  21635240.374    21635240.618    21635247.806
       235.000         200.000
 00  5  2 16  3  0.0000000  0  7G 2G24G 4G26G 5G 7G 9
   1127721.82949    879441.87647  22088030.583    22088030.424    22088038.492
       228.000         188.000
 -12599750.62049  -9793591.80846  23152373.065    23152373.478    23152385.520
       217.000         167.000
 -10532702.39549  -8176831.37747  20959298.360    20959299.035    20959306.931
       234.000         198.000
   4646044.81349   3615591.91545  24455092.125    24455092.077    24455102.032
       212.000         154.000
  -3349853.48049  -2585819.76045  24391078.933    24391078.966    24391088.426
       214.000         149.000
   1253265.32849    977919.03847  21251470.276    21251470.016    21251477.158
       238.000         207.000
  -9278984.72549  -7203964.66647  21622361.820    21622361.994    21622369.240
       235.000         200.000
 00  5  2 16  3 30.0000000  0  7G 2G24G 4G26G 5G 7G 9
   1155122.04449    900792.63447  22093244.972    22093244.653    22093252.690
       232.000         197.000
 -12723572.56749  -9890076.33346  23128810.491    23128810.873    23128822.869
       216.000         167.000
 -10612404.38749  -8238936.79947  20944131.548    20944132.214    20944140.133
       233.000         198.000
   4704240.59549   3660939.10245  24466166.637    24466166.448    24466176.355
       216.000         159.000
  -3453940.39249  -2666926.33245  24371271.731    24371271.810    24371281.343
       211.000         146.000
   1282410.99649   1000629.91947  21257016.504    21257016.261    21257023.404
       237.000         205.000
  -9346110.04149  -7256270.09847  21609588.356    21609588.481    21609595.722
       235.000         200.000
 00  5  2 16  4  0.0000000  0  7G 2G24G 4G26G 5G 7G 9
   1182857.36249    922404.52147  22098523.018    22098522.633    22098530.659
       233.000         198.000
 -12847165.68149  -9986382.55646  23105291.336    23105291.828    23105303.739
       218.000         166.000
 -10691526.10249  -8300590.06347  20929075.237    20929075.864    20929083.799
       234.000         198.000
   4762573.81149   3706393.36345  24477267.352    24477267.122    24477277.070
       215.000         160.000
  -3557969.21949  -2747987.78845  24351475.651    24351475.760    24351485.088
       212.000         142.000
   1311830.62549   1023554.28847  21262614.875    21262614.638    21262621.777
       237.000         206.000
  -9412670.12449  -7308135.09447  21596922.339    21596922.542    21596929.747
       236.000         200.000
 00  5  2 16  4 30.0000000  0  7G 2G24G 4G26G 5G 7G 9
   1210916.89049    944269.04247  22103862.696    22103862.293    22103870.312
       229.000         194.000
 -12970538.74249 -10082517.31046  23081814.252    23081814.652    23081826.504
       218.000         167.000
 -10770076.86849  -8361798.43047  20914127.577    20914128.157    20914136.105
       233.000         199.000
   4821030.32049   3751943.65445  24488391.004    24488391.008    24488401.136
       211.000         155.000
  -3661950.76849  -2829012.31345  24331688.687    24331688.699    24331698.107
       209.000         151.000
   1341511.14949   1046681.96047  21268263.021    21268262.720    21268269.811
       237.000         206.000
  -9478674.80649  -7359567.30147  21584362.092    21584362.290    21584369.473
       236.000         200.000
 00  5  2 16  5  0.0000000  0  7G 2G24G 4G26G 5G 7G 9
   1239301.45449    966386.78146  22109264.012    22109263.678    22109271.832
       223.000         187.000
 -13093688.46549 -10178478.03346  23058379.500    23058379.990    23058391.699
       218.000         166.000
 -10848054.09249  -8422559.87747  20899288.981    20899289.569    20899297.604
       233.000         199.000
   4879607.50849   3797588.03645  24499537.933    24499538.021    24499548.114
       215.000         153.000
  -3765883.96849  -2909999.11945  24311910.607    24311910.752    24311920.355
       211.000         148.000
   1371451.58749   1070012.13447  21273960.447    21273960.198    21273967.366
       238.000         206.000
  -9544121.83949  -7410564.98547  21571907.813    21571908.133    21571915.303
       236.000         201.000
 00  5  2 16  5 30.0000000  0  7G 2G24G 4G26G 5G 7G 9
   1268036.66549    988777.83047  22114732.190    22114731.835    22114740.075
       228.000         189.000
 -13216586.60949 -10274242.71346  23034992.640    23034993.152    23035004.761
       217.000         167.000
 -10925430.15149  -8482852.88247  20884564.736    20884565.356    20884573.403
       233.000         198.000
   4938327.90249   3843344.01945  24510712.267    24510712.274    24510722.374
       211.000         156.000
  -3869742.60849  -2990927.93945  24292146.978    24292147.113    24292156.473
       211.000         142.000
   1401675.96849   1093563.58147  21279711.955    21279711.711    21279718.907
       238.000         207.000
  -9608984.17249  -7461107.05247  21559564.884    21559565.234    21559572.431
       237.000         201.000
 00  5  2 16  6  0.0000000  0  7G 2G24G 4G26G 5G 7G 9
   1297085.76249   1011413.45247  22120260.153    22120259.765    22120267.982
       229.000         190.000
 -13339267.66849 -10369838.23846  23011647.276    23011647.661    23011659.161
       220.000         168.000
 -11002240.16649  -8542704.81547  20869948.274    20869948.884    20869956.879
       234.000         198.000
   4997151.62649   3889180.42345  24521905.899    24521906.028    24521916.460
       211.000         156.000
  -3973563.48549  -3071827.30245  24272390.593    24272390.605    24272399.950
       209.000         150.000
   1432145.52049   1117306.07747  21285510.196    21285509.915    21285517.135
       237.000         205.000
  -9673297.25649  -7511221.13147  21547326.627    21547326.855    21547334.069
       237.000         201.000
 00  5  2 16  6 30.0000000  0  7G 2G24G 4G26G 5G 7G 9
   1326454.25849   1034297.93847  22125848.880    22125848.487    22125856.682
       231.000         192.000
 -13461723.72749 -10465258.45646  22988344.616    22988344.992    22988356.454
       222.000         169.000
 -11078476.65049  -8602109.83047  20855440.913    20855441.540    20855449.540
       233.000         198.000
   5056080.61449   3935098.90445  24533119.915    24533119.965    24533130.479
       215.000         153.000
  -4077340.86449  -3152692.68145  24252642.347    24252642.274    24252651.942
       211.000         152.000
   1462864.02549   1141242.54647  21291355.700    21291355.428    21291362.692
       236.000         205.000
  -9737054.02549  -7560901.72147  21535194.093    21535194.355    21535201.566
       238.000         201.000
 00  5  2 16  7  0.0000000  0  7G 2G24G 4G26G 5G 7G 9
   1356156.82249   1057442.79947  22131501.252    22131500.806    22131508.919
       232.000         192.000
 -13583937.86149 -10560490.14546  22965087.876    22965088.296    22965099.806
       219.000         169.000
 -11154123.69749  -8661055.53247  20841045.595    20841046.312    20841054.357
       232.000         198.000
   5115126.30949   3981108.35945  24544356.204    24544356.202    24544366.619
       212.000         156.000
  -4181059.89549  -3233512.66045  24232905.354    24232905.262    24232914.818
       215.000         147.000
   1493843.98549   1165382.75347  21297250.994    21297250.763    21297258.027
       238.000         205.000
  -9800238.81149  -7610136.61447  21523170.609    21523170.715    21523177.868
       237.000         201.000
 00  5  2 16  7 30.0000000  0  7G 2G24G 4G26G 5G 7G 9
   1386189.21149   1080844.55447  22137216.137    22137215.772    22137223.955
       224.000         190.000
 -13705911.93749 -10655534.80046  22941876.860    22941877.318    22941888.812
       221.000         168.000
 -11229183.77249  -8719543.86747  20826762.110    20826762.810    20826770.776
       233.000         198.000
   5174281.32949   4027202.92345  24555612.740    24555612.986    24555623.866
       206.000         158.000
  -4284724.17449  -3314290.03145  24213178.585    24213178.507    24213187.701
       207.000         142.000
   1525079.54949   1189722.13147  21303194.971    21303194.717    21303201.963
       239.000         205.000
  -9862854.34349  -7658927.93647  21511255.248    21511255.390    21511262.529
       237.000         202.000
 00  5  2 16  8  0.0000000  0  7G 2G24G 4G26G 5G 7G 9
   1416540.90549   1104495.10747  22142991.787    22142991.506    22142999.799
       226.000         189.000
 -13827653.84449 -10750398.54846  22918709.854    22918710.487    22918721.914
       219.000         168.000
 -11303665.47949  -8777581.51747  20812588.749    20812589.424    20812597.304
       235.000         200.000
   5233532.07949   4073372.09945  24566887.774    24566888.092    24566899.272
       211.000         155.000
  -4388343.97849  -3395032.62845  24193460.227    24193460.196    24193469.589
       212.000         153.000
   1556558.61849   1214251.22947  21309185.188    21309184.967    21309192.248
       237.000         206.000
  -9924909.90649  -7707282.91147  21499446.389    21499446.614    21499453.757
       239.000         202.000
 00  5  2 16  8 30.0000000  0  7G 2G24G 4G26G 5G 7G 9
   1447216.54249   1128398.15647  22148829.255    22148828.920    22148837.220
       230.000         190.000
 -13949156.64849 -10845075.97046  22895588.745    22895589.216    22895600.532
       220.000         169.000
 -11377562.68849  -8835163.71347  20798526.722    20798527.298    20798535.215
       234.000         200.000
   5292879.66049   4119616.77845  24578181.341    24578181.689    24578192.907
       206.000         152.000
  -4491914.53649  -3475736.87045  24173751.686    24173751.461    24173760.837
       213.000         154.000
   1588283.57649   1238971.97447  21315222.403    21315222.112    21315229.308
       238.000         205.000
  -9986399.55649  -7755196.91347  21487745.501    21487745.525    21487752.661
       238.000         202.000
 00  5  2 16  9  0.0000000  0  7G 2G24G 4G26G 5G 7G 9
   1478230.31549   1152564.72046  22154731.150    22154730.747    22154738.978
       226.000         184.000
 -14070403.70649 -10939554.11646  22872516.250    22872516.618    22872527.844
       221.000         169.000
 -11450859.40949  -8892278.00147  20784578.649    20784579.332    20784587.367
       232.000         199.000
   5352335.27249   4165945.55545  24589495.253    24589495.700    24589507.296
       208.000         157.000
  -4595421.17649  -3556391.38245  24154054.708    24154054.747    24154063.983
       209.000         142.000
   1620267.19549   1263894.23747  21321308.627    21321308.389    21321315.647
       237.000         204.000
 -10047307.78549  -7802657.86347  21476154.937    21476155.091    21476162.192
       237.000         202.000
 00  5  2 16  9 30.0000000  0  7G 2G24G 4G26G 5G 7G 9
   1509568.63849   1176984.14846  22160694.609    22160694.240    22160702.509
       223.000         182.000
 -14191406.19249 -11033841.69046  22849490.088    22849490.530    22849501.732
       219.000         169.000
 -11523567.48749  -8948933.60147  20770742.780    20770743.422    20770751.459
       234.000         199.000
   5411882.01049   4212345.36245  24600827.138    24600827.295    24600838.950
       209.000         152.000
  -4698877.05349  -3637006.30945  24134367.735    24134367.747    24134376.997
       216.000         156.000
   1652494.12449   1289006.11447  21327441.232    21327440.983    21327448.215
       238.000         204.000
 -10107646.86049  -7849675.31847  21464672.620    21464672.934    21464680.040
       237.000         201.000
 00  5  2 16 10  0.0000000  0  7G 2G24G 4G26G 5G 7G 9
   1541231.78149   1201656.66247  22166719.926    22166719.581    22166727.889
       229.000         192.000
 -14312161.36449 -11127936.53946  22826511.130    22826511.513    22826522.750
       223.000         171.000
 -11595685.14049  -9005129.12747  20757019.308    20757019.893    20757027.892
       234.000         199.000
   5471517.13249   4258814.07045  24612175.652    24612175.660    24612187.296
       208.000         153.000
  -4802281.66349  -3717581.26145  24114690.836    24114690.598    24114699.958
       211.000         152.000
   1684962.74749   1314306.31647  21333619.838    21333619.575    21333626.826
       237.000         204.000
 -10167415.34649  -7896248.15647  21453299.007    21453299.360    21453306.463
       238.000         202.000
 00  5  2 16 10 30.0000000  0  7G 2G24G 4G26G 5G 7G 9
   1573212.99449   1226577.04047  22172805.919    22172805.505    22172813.842
       231.000         196.000
 -14432673.42549 -11221841.96946  22803578.584    22803578.838    22803589.976
       222.000         171.000
 -11667217.40049  -9060868.51347  20743407.216    20743407.763    20743415.717
       233.000         199.000
   5531230.61849   4305343.81345  24623538.902    24623538.888    24623550.590
       210.000         155.000
  -4905641.24349  -3798121.10345  24095021.879    24095021.798    24095031.313
       213.000         146.000
   1717664.59949   1339788.26747  21339842.944    21339842.590    21339849.803
       238.000         205.000
 -10226618.51249  -7942380.49047  21442033.002    21442033.354    21442040.454
       237.000         202.000
 00  5  2 16 11  0.0000000  0  7G 2G24G 4G26G 5G 7G 9
   1605527.08449   1251756.78947  22178955.168    22178954.741    22178963.084
       231.000         193.000
 -14552925.18549 -11315544.56046  22780695.476    22780695.673    22780706.735
       220.000         168.000
 -11738148.02249  -9116139.08647  20729909.526    20729910.082    20729917.963
       233.000         198.000
   5591034.03749   4351943.63145  24634919.454    24634919.229    24634931.039
       209.000         152.000
  -5008940.43949  -3878614.05445  24075364.819    24075364.731    24075373.985
       212.000         153.000
   1750612.83949   1365462.18847  21346112.746    21346112.433    21346119.703
       237.000         206.000
 -10285240.31149  -7988059.81047  21430877.643    21430877.978    21430885.067
       237.000         202.000
 00  5  2 16 11 30.0000000  0  7G 2G24G 4G26G 5G 7G 9
   1638166.47949   1277190.02746  22185166.363    22185165.907    22185174.190
       227.000         187.000
 -14672921.79349 -11409048.31746  22757860.771    22757861.024    22757872.034
       219.000         168.000
 -11808482.76649  -9170945.33847  20716525.286    20716525.819    20716533.493
       233.000         199.000
   5650916.99149   4398605.44745  24646315.062    24646314.741    24646326.557
       212.000         153.000
  -5112186.56349  -3959065.43745  24055717.418    24055717.493    24055727.004
       208.000         152.000
   1783798.25949   1391320.93847  21352427.725    21352427.425    21352434.657
       236.000         203.000
 -10343287.21549  -8033291.16247  21419831.677    21419832.019    21419839.121
       238.000         203.000
 00  5  2 16 11 59.9990000  0  7G 2G24G 4G26G 5G 7G 9
   1671127.75149   1302874.07146  22191438.726    22191438.277    22191446.418
       226.000         182.000
 -14792659.16049 -11502350.08846  22735075.499    22735075.762    22735086.656
       220.000         168.000
 -11878220.17349  -9225286.13147  20703254.625    20703255.196    20703262.787
       234.000         200.000
   5710871.62049   4445323.10345  24657724.212    24657723.951    24657735.734
       208.000         157.000
  -5215377.88649  -4039474.20845  24036080.822    24036080.794    24036090.374
       218.000         152.000
   1817215.58949   1417360.39647  21358786.912    21358786.572    21358793.791
       235.000         203.000
 -10400758.39849  -8078073.88747  21408895.408    21408895.638    21408902.739
       238.000         203.000
 00  5  2 16 12 29.9990000  0  7G 2G24G 4G26G 5G 7G 9
   1704422.34049   1328817.86146  22197774.426    22197774.014    22197782.168
       224.000         183.000
 -14912133.56849 -11595446.93646  22712340.306    22712340.523    22712351.302
       221.000         168.000
 -11947354.15549  -9279156.71547  20690098.881    20690099.423    20690107.045
       234.000         201.000
   5770908.22949   4492104.59145  24669148.740    24669148.678    24669160.608
       209.000         152.000
  -5318511.70749  -4119838.29245  24016455.266    24016455.146    24016464.256
       210.000         146.000
   1850874.59649   1443588.16947  21365192.008    21365191.696    21365198.893
       238.000         204.000
 -10457647.51249  -8122403.06247  21398069.803    21398069.997    21398077.105
       237.000         202.000
 00  5  2 16 12 59.9990000  0  7G 2G24G 4G26G 5G 7G 9
   1738046.79049   1355018.69047  22204173.000    22204172.589    22204180.707
       231.000         190.000
 -15031340.94549 -11688335.71346  22689655.766    22689656.042    22689666.716
       220.000         168.000
 -12015883.01549  -9332555.79447  20677058.244    20677058.796    20677066.416
       234.000         201.000
   5831019.34149   4538944.19745  24680587.975    24680587.766    24680599.447
       212.000         151.000
  -5421586.44549  -4200156.15245  23996840.239    23996840.453    23996849.974
       215.000         159.000
   1884770.05849   1470000.18747  21371642.124    21371641.816    21371649.026
       237.000         204.000
 -10513953.66449  -8166277.98447  21387354.949    21387355.268    21387362.430
       237.000         202.000
 00  5  2 16 13 29.9990000  0  7G 2G24G 4G26G 5G 7G 9
   1772006.46849   1381480.71747  22210635.422    22210634.985    22210643.083
       228.000         189.000
 -15150273.39849 -11781010.26346  22667023.563    22667023.874    22667034.443
       220.000         168.000
 -12083799.95249  -9385478.03847  20664134.056    20664134.590    20664142.205
       234.000         201.000
   5891207.21649   4585843.60445  24692041.727    24692041.394    24692053.069
       208.000         154.000
  -5524596.28649  -4280423.47045  23977238.394    23977238.414    23977247.967
       214.000         155.000
   1918905.86549   1496599.50647  21378138.063    21378137.673    21378144.908
       236.000         205.000
 -10569669.94249  -8209693.25947  21376752.355    21376752.798    21376760.004
       236.000         203.000
 00  5  2 16 13 59.9990000  0  7G 2G24G 4G26G 5G 7G 9
   1806304.45249   1408206.39246  22217162.175    22217161.732    22217169.805
       224.000         183.000
 -15268925.48049 -11873466.34446  22644444.711    22644445.064    22644455.514
       221.000         169.000
 -12151100.35049  -9437919.86747  20651327.174    20651327.730    20651335.314
       235.000         201.000
   5951471.80549   4632802.72245  24703509.590    24703509.595    24703521.424
       208.000         155.000
  -5627537.91549  -4360637.77645  23957648.973    23957649.137    23957658.451
       207.000         142.000
   1953283.18149   1523387.00147  21384679.793    21384679.435    21384686.733
       237.000         204.000
 -10624792.18749  -8252645.65247  21366262.933    21366263.342    21366270.573
       237.000         202.000
 00  5  2 16 14 29.9990000  0  7G 2G24G 4G26G 5G 7G 9
   1840925.34949   1435183.62946  22223750.375    22223749.901    22223757.960
       222.000         180.000
 -15387310.06949 -11965713.98746  22621916.941    22621917.199    22621927.490
       221.000         168.000
 -12217798.04349  -9489892.06147  20638635.002    20638635.561    20638643.160
       235.000         202.000
   6011794.55949   4679807.20945  24714988.986    24714988.898    24715000.726
       210.000         151.000
  -5730425.65849  -4440809.95945  23938070.184    23938070.227    23938079.707
       219.000         162.000
   1987885.13949   1550349.53047  21391264.423    21391264.020    21391271.322
       238.000         205.000
 -10679334.66149  -8295146.28447  21355883.939    21355884.255    21355891.470
       237.000         203.000
 00  5  2 16 14 59.9990000  0  7G 2G24G 4G26G 5G 7G 9
   1875871.97449   1462414.71046  22230400.302    22230399.944    22230408.037
       219.000         176.000
 -15505421.76249 -12057748.97646  22599440.991    22599441.229    22599451.423
       220.000         170.000
 -12283888.77049  -9541391.27447  20626058.349    20626058.892    20626066.530
       235.000         202.000
   6072175.30749   4726856.92045  24726479.470    24726479.171    24726490.884
       206.000         150.000
  -5833256.39549  -4520937.70745  23918502.331    23918502.208    23918511.869
       211.000         151.000
   2022712.94949   1577488.05547  21397891.889    21397891.545    21397898.863
       237.000         203.000
 -10733293.47449  -8337192.10347  21345615.949    21345616.212    21345623.478
       236.000         203.000
 00  5  2 16 15 29.9990000  0  7G 2G24G 4G26G 5G 7G 9
   1911149.21449   1489903.39146  22237113.209    22237112.918    22237121.069
       220.000         176.000
 -15623253.39849 -12149565.72946  22577018.248    22577018.521    22577028.640
       221.000         171.000
 -12349366.18049  -9592412.59047  20613598.329    20613598.925    20613606.592
       236.000         203.000
   6132615.84149   4773953.13145  24737980.982    24737980.815    24737992.747
       208.000         154.000
  -5936024.75649  -4601016.99645  23898945.985    23898945.891    23898955.342
       211.000         147.000
   2057769.79649   1604805.06547  21404563.067    21404562.673    21404569.929
       237.000         203.000
 -10786662.45149  -8378778.31147  21335460.203    21335460.414    21335467.724
       237.000         203.000
 00  5  2 16 15 59.9990000  0  7G 2G24G 4G26G 5G 7G 9
   1946756.68149   1517649.38546  22243889.286    22243888.895    22243896.972
       224.000         184.000
 -15740802.61949 -12241162.43246  22554649.301    22554649.599    22554659.698
       221.000         172.000
 -12414229.13849  -9642955.11547  20601255.398    20601255.939    20601263.575
       235.000         203.000
   6193112.75749   4821093.29245  24749493.594    24749493.293    24749505.183
       209.000         153.000
  -6038730.35949  -4681047.28345  23879401.917    23879401.759    23879411.095
       212.000         157.000
   2093053.81349   1632299.07847  21411277.404    21411277.022    21411284.287
       239.000         205.000
 -10839440.97049  -8419904.42147  21325416.699    21325416.985    21325424.326
       236.000         203.000
 00  5  2 16 16 29.9990000  0  7G 2G24G 4G26G 5G 7G 9
   1982677.24549   1545639.38146  22250724.893    22250724.437    22250732.530
       228.000         185.000
 -15858084.25249 -12332550.61846  22532331.299    22532331.603    22532341.682
       222.000         173.000
 -12478493.49349  -9693031.19047  20589026.438    20589026.875    20589034.499
       237.000         203.000
   6253646.06449   4868261.80345  24761012.789    24761012.540    24761024.427
       208.000         146.000
  -6141389.86449  -4761041.61545  23859866.600    23859866.257    23859875.658
       212.000         154.000
   2128546.20849   1659955.46247  21418031.459    21418031.049    21418038.293
       236.000         203.000
 -10891645.10349  -8460582.96647  21315482.471    21315482.871    21315490.239
       237.000         203.000
 00  5  2 16 16 59.9990000  0  7G 2G24G 4G26G 5G 7G 9
   2018950.79549   1573904.45847  22257627.667    22257627.167    22257635.265
       229.000         189.000
 -15975055.68049 -12423697.08846  22510072.324    22510072.602    22510082.653
       222.000         173.000
 -12542117.51749  -9742608.31347  20576919.193    20576919.657    20576927.214
       236.000         202.000
   6314252.51249   4915487.35545  24772546.064    24772545.832    24772557.622
       209.000         153.000
  -6243962.90349  -4840968.62945  23840347.460    23840347.241    23840356.443
       211.000         149.000
   2164285.33349   1687804.10147  21424832.386    21424832.005    21424839.224
       238.000         203.000
 -10943233.75649  -8500781.90747  21305665.502    21305665.849    21305673.222
       236.000         203.000
 00  5  2 16 17 29.9990000  0  7G 2G24G 4G26G 5G 7G 9
   2055544.51749   1602418.99147  22264591.439    22264590.853    22264598.922
       233.000         192.000
 -16091747.35649 -12514625.56446  22487866.664    22487866.865    22487876.917
       222.000         175.000
 -12605132.69549  -9791711.01147  20564927.780    20564928.260    20564935.765
       235.000         201.000
   6374896.30049   4962741.94845  24784086.645    24784086.304    24784098.204
       211.000         155.000
  -6346481.46849  -4920853.20645  23820838.856    23820838.643    23820847.642
       211.000         155.000
   2200236.87949   1715818.26247  21431673.780    21431673.398    21431680.671
       237.000         205.000
 -10994238.43949  -8540525.80947  21295959.638    21295959.969    21295967.318
       237.000         203.000
 00  5  2 16 17 59.9990000  0  7G 2G24G 4G26G 5G 7G 9
   2092469.27449   1631191.47547  22271618.113    22271617.514    22271625.562
       228.000         189.000
 -16208146.10249 -12605325.78846  22465716.676    22465716.908    22465726.853
       223.000         175.000
 -12667527.05149  -9840329.95347  20553054.511    20553054.983    20553062.447
       236.000         201.000
   6435585.34149   5010031.77545  24795635.765    24795635.311    24795647.374
       209.000         154.000
  -6448934.22949  -5000686.45645  23801342.596    23801342.422    23801351.602
       212.000         155.000
   2236410.12749   1744005.16847  21438557.278    21438556.931    21438564.278
       236.000         205.000
 -11044647.38549  -8579805.50447  21286367.109    21286367.467    21286374.790
       237.000         204.000
 00  5  2 16 18 29.9990000  0  7G 2G24G 4G26G 5G 7G 9
   2129723.96949   1660221.03146  22278707.529    22278706.929    22278714.971
       223.000         183.000
 -16324250.26149 -12695796.46346  22443622.742    22443622.999    22443632.910
       221.000         176.000
 -12729300.21949  -9888464.86347  20541299.334    20541299.915    20541307.386
       235.000         201.000
   6496315.29849   5057353.54245  24807192.858    24807192.191    24807204.142
       212.000         153.000
  -6551321.68349  -5080468.85145  23781858.860    23781858.768    23781868.065
       214.000         158.000
   2272802.32949   1772362.70647  21445482.515    21445482.170    21445489.501
       238.000         204.000
 -11094460.77049  -8618621.12347  21276888.026    21276888.308    21276895.595
       237.000         204.000
 00  5  2 16 18 59.9990000  0  7G 2G24G 4G26G 5G 7G 9
   2167323.09449   1689518.96946  22285862.346    22285861.796    22285869.928
       225.000         182.000
 -16440042.97849 -12786024.46346  22421588.106    22421588.341    22421598.245
       224.000         176.000
 -12790436.35449  -9936103.37747  20529665.495    20529666.069    20529673.519
       235.000         200.000
   6557097.87549   5104716.32145  24818759.391    24818758.904    24818770.814
       207.000         152.000
  -6653628.78749  -5160188.63545  23762390.395    23762390.307    23762399.704
       211.000         153.000
   2309426.35949   1800900.88147  21452451.851    21452451.534    21452458.853
       238.000         203.000
 -11143662.87049  -8656960.41847  21267525.250    21267525.449    21267532.747
       238.000         205.000
 00  5  2 16 19 29.9990000  0  7G 2G24G 4G26G 5G 7G 9
   2205277.52549   1719093.80946  22293084.955    22293084.384    22293092.462
       230.000         187.000
 -16555510.80449 -12875999.30446  22399615.143    22399615.488    22399625.414
       223.000         177.000
 -12850923.16649  -9983235.90947  20518155.206    20518155.784    20518163.189
       235.000         201.000
   6617941.02049   5152126.19045  24830337.839    24830337.209    24830349.212
       212.000         157.000
  -6755843.96649  -5239836.80545  23742939.543    23742939.402    23742948.757
       216.000         158.000
   2346291.73749   1829627.12447  21459467.132    21459466.802    21459474.161
       238.000         203.000
 -11192241.63649  -8694814.00047  21258280.996    21258281.222    21258288.532
       238.000         205.000
 00  5  2 16 19 59.9990000  0  7G 2G24G 4G26G 5G 7G 9
   2243517.93149   1748891.49646  22300362.021    22300361.420    22300369.420
       229.000         185.000
 -16670720.51849 -12965773.00646  22377691.318    22377691.721    22377701.718
       223.000         178.000
 -12910828.77549 -10029915.57147  20506755.427    20506756.037    20506763.437
       235.000         200.000
   6678772.36849   5199526.87145  24841914.081    24841913.310    24841925.488
       211.000         154.000
  -6858035.55949  -5319466.55545  23723493.140    23723492.987    23723502.446
       214.000         159.000
   2383327.74349   1858486.31447  21466514.867    21466514.533    21466521.894
       237.000         204.000
 -11240265.24149  -8732234.99147  21249142.465    21249142.667    21249149.944
       238.000         205.000
 00  5  2 16 20 29.9990000  0  7G 2G24G 4G26G 5G 7G 9
   2282080.71149   1778940.37046  22307700.227    22307699.690    22307707.703
       215.000         171.000
 -16785633.23149 -13055315.27846  22355824.168    22355824.510    22355834.556
       225.000         179.000
 -12970115.28149 -10076112.81947  20495473.595    20495474.188    20495481.471
       237.000         201.000
   6739625.49649   5246944.66945  24853493.987    24853493.504    24853505.441
       200.000         140.000
  -6960166.55149  -5399049.11545  23704058.165    23704057.961    23704067.444
       214.000         152.000
   2420569.09649   1887505.52647  21473601.699    21473601.350    21473608.670
       237.000         204.000
 -11287696.49649  -8769194.40647  21240116.643    21240116.824    21240124.083
       238.000         205.000
 00  5  2 16 20 59.9990000  0  7G 2G24G 4G26G 5G 7G 9
   2321012.65749   1809276.82046  22315108.455    22315108.091    22315116.222
       215.000         170.000
 -16900199.75349 -13144587.80946  22334022.811    22334023.130    22334033.199
       224.000         177.000
 -13028734.70349 -10121790.25647  20484318.781    20484319.309    20484326.452
       237.000         202.000
   6800544.14249   5294413.36645  24865086.484    24865085.986    24865098.139
       213.000         150.000
  -7062189.40949  -5478547.44145  23684643.960    23684643.718    23684652.937
       218.000         161.000
   2458061.21649   1916720.13447  21480736.211    21480735.898    21480743.250
       237.000         204.000
 -11334487.71749  -8805655.10147  21231212.629    21231212.792    21231219.989
       239.000         205.000
 00  5  2 16 21 29.9990000  0  7G 2G24G 4G26G 5G 7G 9
   2360254.93949   1839855.14146  22322576.123    22322575.686    22322583.893
       222.000         179.000
 -17014476.17149 -13233634.29046  22312276.586    22312276.983    22312286.997
       225.000         178.000
 -13086744.37249 -10166992.57647  20473279.959    20473280.460    20473287.564
       236.000         203.000
   6861466.67749   5341885.13045  24876679.972    24876679.585    24876691.640
       209.000         154.000
  -7164162.13649  -5558006.61345  23665239.183    23665238.937    23665248.260
       211.000         157.000
   2495743.72349   1946083.07947  21487907.044    21487906.669    21487914.084
       236.000         204.000
 -11380696.37849  -8841661.85247  21222419.476    21222419.599    21222426.748
       238.000         205.000
 00  5  2 16 21 59.9990000  0  7G 2G24G 4G26G 5G 7G 9
   2399773.32049   1870648.62846  22330096.419    22330095.906    22330104.020
       228.000         182.000
 -17128494.41449 -13322479.59846  22290579.612    22290579.981    22290589.926
       225.000         178.000
 -13144177.43049 -10211745.56447  20462350.785    20462351.295    20462358.418
       236.000         202.000
   6922356.02149   5389331.03345  24888266.618    24888266.651    24888278.754
       197.000         138.000
  -7266118.24949  -5637452.95845  23645837.578    23645837.363    23645846.448
       218.000         155.000
   2533581.14449   1975566.74147  21495107.382    21495106.920    21495114.368
       238.000         203.000
 -11426355.91249  -8877240.70847  21213730.773    21213730.907    21213738.007
       238.000         205.000
 00  5  2 16 22 29.9990000  0  7G 2G24G 4G26G 5G 7G 9
   2439629.63949   1901705.49046  22337680.938    22337680.391    22337688.495
       227.000         182.000
 -17242190.00349 -13411073.48746  22268944.006    22268944.354    22268954.283
       225.000         178.000
 -13200970.81249 -10256000.11547  20451543.269    20451543.805    20451550.954
       235.000         202.000
   6983270.95049   5436796.85745  24899858.273    24899858.395    24899870.650
       212.000         146.000
  -7367995.38649  -5716837.67345  23626451.203    23626450.789    23626459.882
       216.000         158.000
   2571633.74949   2005218.10947  21502348.511    21502348.129    21502355.508
       236.000         202.000
 -11471403.44749  -8912342.68647  21205158.631    21205158.673    21205165.705
       239.000         205.000
 00  5  2 16 22 59.9990000  0  7G 2G24G 4G26G 5G 7G 9
   2479838.08049   1933036.68446  22345332.412    22345331.875    22345339.992
       227.000         184.000
 -17355546.14249 -13499402.86646  22247373.052    22247373.338    22247383.228
       226.000         178.000
 -13257108.97049 -10299744.10547  20440860.487    20440861.033    20440868.227
       236.000         201.000
   7044222.82549   5484291.48345  24911457.859    24911457.644    24911469.844
       210.000         156.000
  -7469778.47549  -5796149.10245  23607082.228    23607082.004    23607091.305
       218.000         159.000
   2609914.34649   2035047.10747  21509633.101    21509632.702    21509640.133
       236.000         201.000
 -11515823.67949  -8946955.85447  21196705.894    21196705.840    21196712.781
       238.000         205.000
 00  5  2 16 23 29.9990000  0  7G 2G24G 4G26G 5G 7G 9
   2520409.55549   1964650.77546  22353053.012    22353052.446    22353060.576
       226.000         180.000
 -17468549.50349 -13587457.34746  22225869.276    22225869.480    22225879.368
       226.000         179.000
 -13312579.80049 -10342968.10347  20430304.741    20430305.267    20430312.494
       236.000         202.000
   7105219.94748   5531821.29845  24923065.433    24923065.329    24923077.633
       194.000         138.000
  -7571455.70149  -5875378.10145  23587733.881    23587733.527    23587742.700
       216.000         157.000
   2648432.46749   2065061.20247  21516962.964    21516962.512    21516969.894
       239.000         203.000
 -11559604.89549  -8981071.09147  21188374.608    21188374.574    21188381.509
       238.000         205.000
 00  5  2 16 23 59.9990000  0  7G 2G24G 4G26G 5G 7G 9
   2561284.70749   1996501.50746  22360831.313    22360830.779    22360838.912
       220.000         173.000
 -17581256.94949 -13675281.26246  22204421.825    22204421.963    22204431.743
       227.000         179.000
 -13367441.56549 -10385717.49647  20419865.013    20419865.418    20419872.588
       236.000         201.000
   7166199.87349   5579337.67945  24934669.700    24934669.394    24934681.833
       215.000         142.000
  -7673085.77449  -5954570.33445  23568393.999    23568393.869    23568402.954
       214.000         154.000
   2687127.11749   2095212.87447  21524326.442    21524325.934    21524333.246
       238.000         202.000
 -11602805.70549  -9014734.05747  21180153.791    21180153.736    21180160.689
       238.000         205.000
 00  5  2 16 24 29.9990000  0  7G 2G24G 4G26G 5G 7G 9
   2602496.68249   2028614.63946  22368673.646    22368673.145    22368681.316
       218.000         170.000
 -17693632.96349 -13762846.91046  22183037.424    22183037.483    22183047.143
       226.000         179.000
 -13421660.03749 -10427965.62447  20409547.487    20409547.941    20409555.133
       235.000         201.000
   7227192.74949   5626864.27945  24946276.950    24946276.412    24946288.442
       214.000         146.000
  -7774634.69549  -6033699.31845  23549069.993    23549069.743    23549078.803
       214.000         159.000
   2726030.27249   2125526.97047  21531729.407    21531728.950    21531736.388
       236.000         201.000
 -11645391.99149  -9047918.17847  21172049.750    21172049.817    21172056.798
       237.000         204.000
 00  5  2 16 24 59.9990000  0  7G 2G24G 4G26G 5G 7G 9
   2644040.55249   2060986.41346  22376579.244    22376578.728    22376586.895
       223.000         173.000
 -17805679.55549 -13850155.86446  22161715.414    22161715.629    22161725.293
       225.000         180.000
 -13475238.68849 -10469715.19647  20399351.754    20399352.231    20399359.478
       235.000         202.000
   7288191.39148   5674395.30245  24957884.825    24957884.479    24957896.465
       194.000         141.000
  -7876106.45849  -6112768.20845  23529760.513    23529760.265    23529769.214
       214.000         151.000
   2765135.71749   2155998.74447  21539171.019    21539170.518    21539177.918
       236.000         202.000
 -11687367.67649  -9080626.50247  21164062.032    21164062.118    21164069.085
       237.000         204.000
 00  5  2 16 25 29.9990000  0  7G 2G24G 4G26G 5G 7G 9
   2685908.34049   2093610.64046  22384546.524    22384545.964    22384554.151
       225.000         177.000
 -17917402.23249 -13937212.42946  22140455.145    22140455.405    22140465.137
       225.000         181.000
 -13528184.36649 -10510971.55147  20389276.451    20389276.963    20389284.240
       234.000         202.000
   7349184.70549   5721922.04745  24969491.384    24969491.093    24969503.622
       213.000         151.000
  -7977507.94049  -6191782.31845  23510464.509    23510464.191    23510473.079
       215.000         161.000
   2804434.10749   2186620.82547  21546649.183    21546648.737    21546656.161
       237.000         202.000
 -11728739.63849  -9112864.40647  21156189.221    21156189.299    21156196.270
       237.000         204.000
 00  5  2 16 25 59.9990000  0  7G 2G24G 4G26G 5G 7G 9
   2728088.79049   2126478.48946  22392573.231    22392572.665    22392580.939
       222.000         175.000
 -18028809.63649 -14024023.31346  22119254.828    22119255.166    22119265.000
       225.000         180.000
 -13580507.27549 -10551742.62147  20379319.663    20379320.208    20379327.498
       235.000         202.000
   7410158.67849   5769433.86545  24981095.034    24981094.548    24981106.887
       210.000         149.000
  -8078849.54949  -6270749.72745  23491179.976    23491179.535    23491188.558
       214.000         158.000
   2843912.90449   2217383.48647  21554161.721    21554161.320    21554168.755
       236.000         202.000
 -11769518.20049  -9144639.91547  21148429.419    21148429.402    21148436.382
       238.000         204.000
 00  5  2 16 26 29.9990000  0  7G 2G24G 4G26G 5G 7G 9
   2770598.58949   2159602.96346  22400662.607    22400662.052    22400670.365
       222.000         175.000
 -18139882.66649 -14110573.64646  22098118.296    22098118.583    22098128.485
       226.000         181.000
 -13632189.54549 -10592014.47547  20369484.819    20369485.333    20369492.688
       234.000         201.000
   7471127.43948   5816941.63245  24992697.170    24992696.876    24992709.030
       190.000         137.000
  -8180113.83749  -6349656.94245  23471909.750    23471909.506    23471918.453
       215.000         156.000
   2883587.54149   2248298.78047  21561711.692    21561711.215    21561718.623
       236.000         201.000
 -11809685.82149  -9175939.36747  21140785.832    21140785.757    21140792.754
       237.000         204.000
 00  5  2 16 26 59.9990000  0  7G 2G24G 4G26G 5G 7G 9
   2813491.44549   2193025.90946  22408824.996    22408824.387    22408832.723
       223.000         177.000
 -18250564.91349 -14196819.47946  22077056.024    22077056.374    22077066.352
       226.000         182.000
 -13683176.35649 -10631744.42647  20359782.298    20359782.846    20359790.229
       235.000         202.000
   7532141.73649   5864484.72945  25004307.962    25004307.491    25004320.181
       210.000         152.000
  -8281246.26249  -6428461.39745  23452665.069    23452664.684    23452673.575
       216.000         161.000
   2923510.37449   2279407.44647  21569308.761    21569308.296    21569315.734
       237.000         202.000
 -11849187.78449  -9206720.11947  21133268.802    21133268.764    21133275.817
       237.000         204.000
 00  5  2 16 27 29.9990000  0  7G 2G24G 4G26G 5G 7G 9
   2856700.77349   2226695.48746  22417047.508    22417046.903    22417055.313
       223.000         179.000
 -18360920.50449 -14282810.76846  22056056.080    22056056.368    22056066.369
       227.000         183.000
 -13733533.26349 -10670983.54547  20350199.798    20350200.269    20350207.666
       235.000         202.000
   7593132.29749   5912009.36345  25015914.763    25015914.089    25015926.847
       211.000         156.000
  -8382312.55649  -6507214.28945  23433432.423    23433432.253    23433441.317
       212.000         158.000
   2963613.48149   2310656.60647  21576940.211    21576939.735    21576947.140
       235.000         201.000
 -11888089.96149  -9237033.51347  21125865.929    21125865.917    21125873.009
       238.000         204.000
 00  5  2 16 27 59.9990000  0  7G 2G24G 4G26G 5G 7G 9
   2900242.20749   2260623.81046  22425333.126    22425332.580    22425341.068
       222.000         178.000
 -18470931.38049 -14368533.46046  22035121.728    22035121.959    22035131.946
       229.000         183.000
 -13783243.62249 -10709718.85447  20340740.153    20340740.639    20340748.036
       234.000         201.000
   7654111.95249   5959525.59645  25027519.223    25027518.499    25027531.085
       200.000         142.000
  -8483296.16949  -6585902.80545  23414215.827    23414215.690    23414224.678
       218.000         160.000
   3003911.14849   2342057.33847  21584608.559    21584608.102    21584615.593
       234.000         200.000
 -11926376.35449  -9266867.07047  21118580.286    21118580.265    21118587.370
       238.000         204.000
 00  5  2 16 28 29.9990000  0  7G 2G24G 4G26G 5G 7G 9
   2944110.82749   2294807.07846  22433681.061    22433680.546    22433689.093
       222.000         181.000
 -18580599.59149 -14453989.13046  22014252.609    22014252.749    22014262.727
       229.000         183.000
 -13832311.00649 -10747953.15647  20331402.905    20331403.399    20331410.763
       235.000         201.000
   7715073.58649   6007027.66445  25039119.727    25039119.200    25039131.908
       204.000         139.000
  -8584200.73649  -6664529.68045  23395014.386    23395014.157    23395023.264
       215.000         162.000
   3044397.51749   2373605.13347  21592312.920    21592312.431    21592319.923
       237.000         201.000
 -11964050.26349  -9296223.37247  21111411.185    21111411.168    21111418.249
       238.000         204.000
 00  5  2 16 28 59.9990000  0  7G 2G24G 4G26G 5G 7G 9
   2988332.48849   2329265.44446  22442096.255    22442095.708    22442104.325
       219.000         178.000
 -18689896.98149 -14539155.86546  21993453.947    21993454.134    21993464.075
       228.000         184.000
 -13880708.68149 -10785665.60347  20322193.233    20322193.664    20322200.996
       236.000         202.000
   7776039.70849   6054533.27845  25050721.570    25050721.012    25050733.911
       214.000         155.000
  -8684999.66949  -6743074.26245  23375833.075    23375832.793    23375841.918
       217.000         162.000
   3085097.11249   2405319.07047  21600057.833    21600057.327    21600064.821
       237.000         200.000
 -12001085.29649  -9325081.85047  21104363.599    21104363.642    21104370.724
       238.000         204.000
 00  5  2 16 29 29.9990000  0  7G 2G24G 4G26G 5G 7G 9
   3032833.80349   2363941.72346  22450564.580    22450564.041    22450572.744
       220.000         179.000
 -18798894.15549 -14624088.64846  21972712.618    21972712.655    21972722.582
       230.000         185.000
 -13928509.01449 -10822912.58047  20313097.119    20313097.529    20313104.924
       234.000         202.000
   7836934.48349   6101983.25745  25062310.094    25062309.375    25062322.355
       202.000         148.000
  -8785765.23049  -6821592.84545  23356657.972    23356657.653    23356666.839
       216.000         161.000
   3125935.20149   2437140.92747  21607829.014    21607828.531    21607836.053
       233.000         199.000
 -12037554.07849  -9353499.09147  21097423.952    21097423.887    21097430.951
       239.000         204.000
 00  5  2 16 29 59.9990000  0  7G 2G24G 4G26G 5G 7G 9
   3077714.59449   2398913.68346  22459105.222    22459104.638    22459113.364
       220.000         177.000
 -18907489.07249 -14708707.99946  21952047.745    21952047.744    21952057.585
       231.000         184.000
 -13975611.30849 -10859615.63347  20304133.837    20304134.231    20304141.675
       235.000         202.000
   7897855.40248   6149453.52344  25073902.520    25073902.555    25073915.085
       187.000         119.000
  -8886396.44749  -6900006.73346  23337508.375    23337508.122    23337517.387
       215.000         164.000
   3167010.31849   2469147.48947  21615645.454    21615644.929    21615652.419
       235.000         199.000
 -12073356.20649  -9381396.85747  21090611.047    21090610.984    21090618.032
       239.000         204.000
 00  5  2 16 30 29.9990000  0  7G 2G24G 4G26G 5G 7G 9
   3122960.36649   2434170.07546  22467715.306    22467714.696    22467723.431
       221.000         177.000
 -19015693.40349 -14793022.99646  21931457.152    21931457.131    21931466.938
       230.000         185.000
 -14022029.06249 -10895785.29147  20295300.860    20295301.225    20295308.687
       234.000         201.000
   7958784.67949   6196930.58045  25085497.573    25085497.451    25085509.429
       210.000         147.000
  -8986906.89149  -6978326.49245  23318381.940    23318381.619    23318390.891
       217.000         161.000
   3208306.82449   2501326.59047  21623504.132    21623503.499    21623510.907
       235.000         200.000
 -12108505.24649  -9408785.73147  21083922.433    21083922.361    21083929.405
       238.000         205.000
 00  5  2 16 30 59.9990000  0  7G 2G24G 4G26G 5G 7G 9
   3168461.74349   2469625.65146  22476373.955    22476373.375    22476382.103
       220.000         174.000
 -19123614.00149 -14877116.89846  21910920.361    21910920.469    21910930.276
       228.000         185.000
 -14067870.62149 -10931505.97247  20286577.465    20286577.850    20286585.304
       235.000         201.000
   8019610.85949   6244327.08145  25097072.797    25097072.723    25097085.229
       202.000         148.000
  -9087404.76049  -7056636.48846  23299257.804    23299257.487    23299266.642
       217.000         163.000
   3249714.27149   2533592.09247  21631383.623    21631383.089    21631390.509
       234.000         199.000
 -12143109.70049  -9435750.25247  21077337.451    21077337.381    21077344.435
       238.000         205.000
 00  5  2 16 31 29.9990000  0  7G 2G24G 4G26G 5G 7G 9
   3214317.36449   2505357.24546  22485099.928    22485099.400    22485108.156
       218.000         170.000
 -19231149.62549 -14960910.81246  21890456.888    21890457.030    21890466.851
       230.000         185.000
 -14113036.27049 -10966699.97147  20277982.741    20277983.083    20277990.525
       234.000         201.000
   8080429.90149   6291717.82945  25108646.451    25108646.269    25108659.627
       202.000         140.000
  -9187790.45749  -7134859.02746  23280155.061    23280154.727    23280164.010
       218.000         164.000
   3291330.13449   2566019.99247  21639302.720    21639302.282    21639309.786
       233.000         200.000
 -12177070.09949  -9462212.91247  21070875.048    21070874.958    21070882.006
       239.000         205.000
 00  5  2 16 31 59.9990000  0  7G 2G24G 4G26G 5G 7G 9
   3260567.90049   2541396.56046  22493901.087    22493900.599    22493909.411
       218.000         172.000
 -19338257.10849 -15044371.12046  21870074.863    21870075.095    21870084.885
       229.000         185.000
 -14157484.68649 -11001335.07647  20269524.471    20269524.824    20269532.270
       235.000         202.000
   8141279.60849   6339132.79345  25120226.602    25120226.110    25120239.376
       208.000         141.000
  -9288022.17549  -7212961.64245  23261081.747    23261081.292    23261090.480
       219.000         162.000
   3333193.88749   2598641.06847  21647269.295    21647268.761    21647276.267
       236.000         203.000
 -12210345.27249  -9488141.63047  21064543.073    21064542.940    21064549.974
       239.000         205.000
 00  5  2 16 32 29.9990000  0  7G 2G24G 4G26G 5G 7G 9
   3307147.61349   2577692.38446  22502764.997    22502764.446    22502773.319
       220.000         176.000
 -19444999.35749 -15127546.82546  21849762.524    21849762.668    21849772.418
       230.000         186.000
 -14201280.21949 -11035461.44847  20261190.616    20261190.889    20261198.214
       236.000         203.000
   8202091.95748   6386518.72245  25131799.116    25131798.735    25131811.469
       193.000         139.000
  -9388164.36249  -7290994.45646  23242025.400    23242024.862    23242034.000
       218.000         163.000
   3375238.89249   2631403.38847  21655270.387    21655269.738    21655277.193
       236.000         200.000
 -12242999.78549  -9513586.72247  21058329.067    21058329.010    21058336.040
       238.000         205.000
 00  5  2 16 32 59.9990000  0  7G 2G24G 4G26G 5G 7G 9
   3354045.08349   2614235.79846  22511689.320    22511688.770    22511697.750
       221.000         178.000
 -19551385.27849 -15210444.86846  21829517.959    21829518.049    21829527.781
       230.000         186.000
 -14244433.61049 -11069087.45247  20252978.874    20252979.116    20252986.389
       235.000         203.000
   8262853.27549   6433864.52945  25143361.341    25143361.269    25143374.997
       196.000         144.000
  -9488227.28949  -7368965.50546  23222983.902    23222983.440    23222992.626
       220.000         163.000
   3417452.71149   2664297.25747  21663303.319    21663302.792    21663310.180
       236.000         200.000
 -12275044.68849  -9538556.79147  21052231.147    21052231.076    21052238.118
       239.000         205.000
 00  5  2 16 33 29.9990000  0  7G 2G24G 4G26G 5G 7G 9
   3401297.22849   2651055.55346  22520681.102    22520680.592    22520689.610
       218.000         178.000
 -19657375.63049 -15293034.68146  21809348.527    21809348.684    21809358.436
       228.000         187.000
 -14286907.10249 -11102183.66547  20244896.360    20244896.642    20244903.985
       234.000         202.000
   8323597.27549   6481196.91745  25154921.343    25154920.908    25154934.651
       208.000         147.000
  -9588173.22349  -7446845.43246  23203964.648    23203964.283    23203973.490
       215.000         163.000
   3459870.79749   2697350.26447  21671375.234    21671374.695    21671382.138
       236.000         201.000
 -12306442.44849  -9563022.59547  21046256.351    21046256.291    21046263.344
       239.000         206.000
 00  5  2 16 33 59.9990000  0  7G 2G24G 4G26G 5G 7G 9
   3448799.64049   2688070.31346  22529720.622    22529720.054    22529729.057
       221.000         180.000
 -19763072.24149 -15375395.59746  21789234.976    21789235.214    21789245.014
       230.000         187.000
 -14328804.43149 -11134830.92447  20236923.560    20236923.860    20236931.158
       235.000         203.000
   8384217.26749   6528432.80645  25166457.514    25166456.930    25166470.644
       201.000         132.000
  -9688105.52249  -7524714.67646  23184948.082    23184947.711    23184957.004
       221.000         167.000
   3502387.72549   2730480.31947  21679465.974    21679465.419    21679472.852
       234.000         198.000
 -12337296.80649  -9587064.96747  21040385.030    21040384.923    21040391.990
       239.000         206.000
 00  5  2 16 34 29.9990000  0  7G 2G24G 4G26G 5G 7G 9
   3496661.92749   2725365.50246  22538828.569    22538827.995    22538836.976
       220.000         176.000
 -19868362.70749 -15457440.04047  21769198.719    21769199.052    21769208.832
       230.000         188.000
 -14370014.94749 -11166943.00447  20229081.475    20229081.774    20229089.067
       234.000         203.000
   8444820.51749   6575655.58145  25177989.849    25177989.587    25178003.306
       203.000         133.000
  -9787913.18449  -7602486.84846  23165955.312    23165954.977    23165964.139
       217.000         163.000
   3545112.11449   2763772.03547  21687596.235    21687595.662    21687603.136
       237.000         203.000
 -12367497.23549  -9610597.78247  21034638.066    21034638.004    21034645.082
       238.000         206.000
 00  5  2 16 34 59.9990000  0  7G 2G24G 4G26G 5G 7G 9
   3544854.32949   2762917.94846  22547999.386    22547998.801    22548007.752
       220.000         174.000
 -19973274.23149 -15539189.21346  21749234.753    21749235.002    21749244.772
       229.000         187.000
 -14410567.42249 -11198542.32547  20221364.633    20221364.883    20221372.156
       236.000         202.000
   8505374.55249   6622839.97245  25189513.674    25189513.220    25189527.053
       209.000         150.000
  -9887624.67449  -7680184.08046  23146980.830    23146980.498    23146989.576
       218.000         167.000
   3588013.29649   2797201.49447  21695760.105    21695759.515    21695767.009
       235.000         204.000
 -12397072.72849  -9633643.64147  21029010.107    21029009.971    21029017.088
       238.000         206.000
 00  5  2 16 35 29.9990000  0  7G 2G24G 4G26G 5G 7G 9
   3593400.13249   2800745.77946  22557237.387    22557236.805    22557245.759
       219.000         168.000
 -20077781.00449 -15620622.98046  21729347.785    21729347.966    21729357.712
       229.000         187.000
 -14450438.09649 -11229610.36447  20213777.505    20213777.764    20213784.959
       236.000         203.000
   8565900.35149   6670002.34145  25201032.040    25201031.413    25201045.467
       199.000         142.000
  -9987215.55849  -7757787.30246  23128029.268    23128028.984    23128038.102
       219.000         166.000
   3631113.32049   2830785.87847  21703961.626    21703961.112    21703968.699
       231.000         198.000
 -12425999.68949  -9656184.13647  21023505.405    21023505.338    21023512.532
       238.000         206.000
 00  5  2 16 35 59.9990000  0  7G 2G24G 4G26G 5G 7G 9
   3642218.77649   2838786.26146  22566527.339    22566526.739    22566535.671
       221.000         170.000
 -20181961.14549 -15701802.24047  21709522.811    21709523.080    21709532.776
       229.000         188.000
 -14489706.51449 -11260209.12347  20206304.918    20206305.211    20206312.367
       235.000         203.000
   8626314.77348   6717077.93444  25212528.742    25212528.153    25212542.105
       193.000         122.000
 -10086765.19449  -7835358.40646  23109085.697    23109085.339    23109094.338
       219.000         165.000
   3674330.78549   2864461.79447  21712185.842    21712185.210    21712192.849
       236.000         201.000
 -12454357.75149  -9678281.33847  21018109.100    21018109.001    21018116.200
       239.000         207.000
 00  5  2 16 36 29.9990000  0  7G 2G24G 4G26G 5G 7G 9
   3691394.69149   2877105.09746  22575885.282    22575884.675    22575893.600
       224.000         176.000
 -20285727.49349 -15782659.05047  21689776.647    21689776.921    21689786.631
       229.000         188.000
 -14528287.47849 -11290272.20447  20198963.199    20198963.496    20198970.656
       235.000         204.000
   8686699.72749   6764130.64745  25224019.974    25224019.307    25224033.265
       202.000         142.000
 -10186187.79749  -7912830.51646  23090166.187    23090165.837    23090174.762
       221.000         168.000
   3717748.82149   2898294.03047  21720448.165    21720447.480    21720454.996
       234.000         199.000
 -12482061.98449  -9699869.07647  21012837.175    21012837.090    21012844.281
       238.000         207.000
 00  5  2 16 36 59.9990000  0  7G 2G24G 4G26G 5G 7G 9
   3740926.62949   2915701.34646  22585311.010    22585310.364    22585319.324
       225.000         183.000
 -20389078.72049 -15863192.39247  21670109.579    21670109.784    21670119.470
       229.000         188.000
 -14566181.55349 -11319800.04647  20191752.130    20191752.458    20191759.629
       234.000         203.000
   8747051.69949   6811157.50545  25235505.183    25235504.388    25235518.857
       203.000         146.000
 -10285483.32249  -7990203.60546  23071270.792    23071270.515    23071279.390
       220.000         165.000
   3761365.60849   2932281.05847  21728748.006    21728747.407    21728755.041
       235.000         199.000
 -12509113.00949  -9720947.80747  21007689.436    21007689.417    21007696.648
       239.000         206.000
 00  5  2 16 37 29.9990000  0  7G 2G24G 4G26G 5G 7G 9
   3790784.58049   2954551.63346  22594798.807    22594798.124    22594807.108
       224.000         184.000
 -20492042.02149 -15943423.46947  21650516.191    21650516.422    21650526.117
       229.000         188.000
 -14603417.65349 -11348815.17847  20184666.316    20184666.653    20184673.809
       234.000         204.000
   8807338.60149   6858133.66545  25246977.788    25246976.971    25246991.751
       197.000         133.000
 -10384680.22149  -8067499.86146  23052394.320    23052393.957    23052402.776
       220.000         167.000
   3805150.14549   2966398.87547  21737080.160    21737079.449    21737086.969
       235.000         198.000
 -12535540.12249  -9741540.38147  21002660.559    21002660.524    21002667.743
       239.000         207.000
 00  5  2 16 37 59.9990000  0  6G 2G24G 4G 5G 7G 9
   3840974.29349   2993660.41846  22604349.632    22604348.947    22604358.002
       216.000         180.000
 -20594609.32849 -16023345.96647  21630998.066    21630998.407    21631008.156
       229.000         189.000
 -14639989.62249 -11377312.80447  20177706.968    20177707.275    20177714.348
       236.000         204.000
 -10483771.66349  -8144713.91346  23033537.613    23033537.416    23033546.367
       221.000         167.000
   3849107.16149   3000651.07147  21745444.806    21745444.163    21745451.638
       236.000         197.000
 -12561337.17949  -9761641.99947  20997751.594    20997751.531    20997758.744
       239.000         207.000
 00  5  2 16 38 29.9990000  0  6G 2G24G 4G 5G 7G 9
   3891426.08349   3032973.37746  22613950.278    22613949.630    22613958.770
       215.000         178.000
 -20696847.71949 -16103012.17347  21611542.755    21611543.031    21611552.763
       231.000         190.000
 -14675966.54349 -11405346.75747  20170860.851    20170861.132    20170868.130
       235.000         204.000
 -10582826.25649  -8221899.28246  23014688.288    23014687.949    23014696.805
       220.000         164.000
   3893165.93649   3034982.54647  21753828.905    21753828.286    21753835.787
       234.000         197.000
 -12586573.36749  -9781306.57447  20992949.348    20992949.290    20992956.472
       240.000         207.000
 00  5  2 16 38 59.9990000  0  6G 2G24G 4G 5G 7G 9
   3942176.94149   3072519.38746  22623607.783    22623607.243    22623616.467
       213.000         177.000
 -20798717.84249 -16182391.40947  21592157.529    21592157.750    21592167.507
       231.000         190.000
 -14711310.60649 -11432887.57747  20164134.994    20164135.317    20164142.430
       234.000         203.000
 -10681805.70949  -8299026.08046  22995853.041    22995852.754    22995861.586
       221.000         165.000
   3937362.52649   3069421.41047  21762239.340    21762238.665    21762246.153
       233.000         197.000
 -12611211.04149  -9800504.77547  20988261.091    20988260.968    20988268.080
       240.000         207.000
 00  5  2 16 39 29.9990000  0  6G 2G24G 4G 5G 7G 9
   3993308.29949   3112361.87546  22633337.850    22633337.302    22633346.560
       218.000         176.000
 -20900135.46749 -16261418.06347  21572858.418    21572858.567    21572868.329
       232.000         190.000
 -14745939.80649 -11459871.36047  20157545.336    20157545.597    20157552.715
       234.000         203.000
 -10780627.15349  -8376029.75246  22977047.979    22977047.622    22977056.347
       220.000         165.000
   3981777.42549   3104030.39147  21770691.241    21770690.560    21770698.060
       232.000         195.000
 -12635168.32449  -9819172.80547  20983702.281    20983702.098    20983709.177
       241.000         207.000
 00  5  2 16 39 59.9990000  0  6G 2G24G 4G 5G 7G 9
   4044767.49649   3152459.84946  22643130.438    22643129.769    22643139.015
       216.000         171.000
 -21001150.63149 -16340131.10847  21553635.848    21553635.965    21553645.693
       233.000         189.000
 -14779906.04949 -11486338.55347  20151081.773    20151082.020    20151089.159
       235.000         202.000
 -10879341.58949  -8452950.03846  22958263.248    22958262.882    22958271.568
       222.000         165.000
   4026357.28849   3138767.92247  21779174.531    21779173.833    21779181.340
       234.000         196.000
 -12658497.01349  -9837351.02147  20979262.986    20979262.810    20979269.863
       240.000         207.000
 00  5  2 16 40 29.9990000  0  6G 2G24G 4G 5G 7G 9
   4096463.47649   3192742.34246  22652968.032    22652967.268    22652976.483
       220.000         166.000
 -21101851.74449 -16418599.43747  21534472.955    21534473.094    21534482.828
       232.000         190.000
 -14813299.65349 -11512359.53447  20144727.177    20144727.412    20144734.494
       234.000         202.000
 -10978038.79749  -8529856.92246  22939481.644    22939481.353    22939490.032
       220.000         165.000
   4071010.18049   3173562.35247  21787671.821    21787671.071    21787678.519
       236.000         199.000
 -12681287.87949  -9855110.14647  20974926.074    20974925.869    20974932.931
       239.000         207.000
 00  5  2 16 40 59.9990000  0  6G 2G24G 4G 5G 7G 9
   4148534.78349   3233317.36646  22662877.045    22662876.213    22662885.365
       223.000         168.000
 -21202097.77449 -16496713.16347  21515396.743    21515396.834    21515406.555
       233.000         191.000
 -14845981.44549 -11537825.85247  20138508.163    20138508.305    20138515.338
       236.000         203.000
 -11076578.73249  -8606641.22946  22920730.218    22920729.832    22920738.508
       222.000         166.000
   4115873.89649   3208521.05047  21796209.036    21796208.364    21796215.842
       234.000         196.000
 -12703402.03649  -9872341.97447  20970717.856    20970717.702    20970724.757
       240.000         207.000
 00  5  2 16 41 29.9990000  0  6G 2G24G 4G 5G 7G 9
   4200922.57049   3274138.98646  22672846.171    22672845.360    22672854.482
       225.000         173.000
 -21301945.03849 -16574516.16247  21496396.384    21496396.498    21496406.118
       232.000         190.000
 -14878009.92549 -11562783.09447  20132413.169    20132413.428    20132420.488
       233.000         203.000
 -11175019.23449  -8683348.08146  22901997.683    22901997.187    22902005.875
       221.000         167.000
   4160888.36149   3243597.22947  21804775.147    21804774.405    21804781.829
       236.000         199.000
 -12724897.92649  -9889092.03247  20966627.348    20966627.192    20966634.227
       239.000         207.000
 00  5  2 16 41 59.9990000  0  6G 2G24G 4G 5G 7G 9
   4253632.27349   3315211.40746  22682876.591    22682875.768    22682884.869
       225.000         176.000
 -21401385.59249 -16652002.24147  21477473.433    21477473.545    21477483.106
       233.000         191.000
 -14909378.93249 -11587226.47347  20126443.681    20126444.047    20126451.190
       233.000         203.000
 -11273353.09049  -8759971.82046  22883285.174    22883284.845    22883293.567
       220.000         166.000
   4206058.55149   3278794.72947  21813370.674    21813369.981    21813377.405
       234.000         197.000
 -12745769.44849  -9905355.56847  20962655.626    20962655.480    20962662.530
       240.000         207.000
 00  5  2 16 42 29.9990000  0  6G 2G24G 4G 5G 7G 9
   4306662.36549   3356533.48746  22692967.945    22692967.141    22692976.200
       227.000         175.000
 -21500418.29149 -16729170.51247  21458628.119    21458628.191    21458637.737
       234.000         192.000
 -14940089.42249 -11611156.71747  20120599.683    20120600.033    20120607.179
       234.000         202.000
 -11371580.36449  -8836512.51446  22864593.201    22864592.766    22864601.497
       222.000         167.000
   4251382.01249   3314111.71447  21821995.604    21821994.834    21822002.196
       233.000         199.000
 -12766017.76549  -9921133.49847  20958802.560    20958802.383    20958809.407
       240.000         206.000
 00  5  2 16 42 59.9990000  0  6G 2G24G 4G 5G 7G 9
   4360045.30149   3398130.49746  22703126.509    22703125.675    22703134.672
       226.000         177.000
 -21599008.09749 -16805993.67247  21439867.088    21439867.127    21439876.698
       233.000         192.000
 -14970108.32949 -11634548.05547  20114887.226    20114887.609    20114894.729
       233.000         202.000
 -11469667.10049  -8912943.68846  22845927.850    22845927.452    22845936.262
       219.000         167.000
   4296890.59949   3349572.86747  21830655.485    21830654.803    21830662.296
       234.000         194.000
 -12785609.72649  -9936399.97547  20955074.342    20955074.183    20955081.164
       240.000         206.000
 00  5  2 16 43 29.9990000  0  6G 2G24G 4G 5G 7G 9
   4413752.20649   3439979.93446  22713346.706    22713345.844    22713354.811
       221.000         174.000
 -21697181.17949 -16882492.11947  21421185.327    21421185.357    21421194.906
       233.000         192.000
 -14999464.08449 -11657422.66147  20109301.165    20109301.437    20109308.549
       234.000         202.000
 -11567640.78949  -8989286.80246  22827284.138    22827283.614    22827292.379
       223.000         167.000
   4342554.52949   3385155.10447  21839344.919    21839344.341    21839351.917
       232.000         195.000
 -12804573.82049  -9951177.21847  20951465.723    20951465.476    20951472.430
       240.000         207.000
 00  5  2 16 43 59.9990000  0  6G 2G24G 4G 5G 7G 9
   4467761.53149   3482065.04346  22723624.364    22723623.524    22723632.496
       218.000         172.000
 -21794956.72649 -16958680.79047  21402579.146    21402579.260    21402588.778
       233.000         193.000
 -15028177.85649 -11679797.02147  20103837.185    20103837.403    20103844.520
       234.000         202.000
 -11665521.47049  -9065557.41146  22808657.970    22808657.506    22808666.257
       221.000         168.000
   4388351.36449   3420840.92047  21848059.929    21848059.249    21848066.816
       232.000         194.000
 -12822931.43949  -9965481.87447  20947972.403    20947972.144    20947979.122
       240.000         206.000
 00  5  2 16 44 29.9990000  0  6G 2G24G 4G 5G 7G 9
   4522106.18049   3524411.41146  22733965.781    22733965.009    22733974.037
       215.000         170.000
 -21892299.10849 -17034531.93747  21384055.543    21384055.573    21384065.056
       234.000         193.000
 -15056215.88549 -11701644.82047  20098501.944    20098502.026    20098509.062
       234.000         202.000
 -11763274.55049  -9141728.61946  22790056.113    22790055.667    22790064.323
       223.000         168.000
   4434313.55349   3456655.58747  21856806.342    21856805.650    21856813.122
       233.000         191.000
 -12840649.20149  -9979287.93947  20944600.863    20944600.571    20944607.581
       239.000         206.000
 00  5  2 16 44 59.9990000  0  6G 2G24G 4G 5G 7G 9
   4576736.01749   3566980.01046  22744361.536    22744360.768    22744369.839
       213.000         169.000
 -21989255.87649 -17110082.59747  21365605.273    21365605.275    21365614.797
       233.000         193.000
 -15083627.94349 -11723004.84047  20093285.736    20093285.733    20093292.699
       235.000         202.000
 -11860948.52749  -9217838.13946  22771469.492    22771468.954    22771477.639
       223.000         169.000
   4480390.39749   3492559.52447  21865574.350    21865573.743    21865581.361
       230.000         193.000
 -12857776.75949  -9992634.10347  20941341.531    20941341.276    20941348.343
       239.000         206.000
 00  5  2 16 45 29.9990000  0  6G 2G24G 4G 5G 7G 9
   4631715.74949   3609821.23246  22754823.884    22754823.099    22754832.240
       212.000         169.000
 -22085759.92649 -17185280.49247  21347241.141    21347241.109    21347250.658
       234.000         193.000
 -15110349.05849 -11743826.45547  20088200.982    20088200.903    20088207.846
       235.000         202.000
 -11958477.33649  -9293834.58846  22752910.372    22752909.851    22752918.379
       222.000         168.000
   4526645.52849   3528602.50447  21874376.614    21874375.888    21874383.417
       233.000         197.000
 -12874249.14849 -10005469.74347  20938206.887    20938206.670    20938213.771
       239.000         206.000
 00  5  2 16 45 59.9990000  0  6G 2G24G 4G 5G 7G 9
   4687011.74149   3652908.90046  22765346.447    22765345.630    22765354.809
       214.000         172.000
 -22181842.11249 -17260149.68047  21328957.215    21328957.222    21328966.766
       235.000         193.000
 -15136412.19149 -11764135.37647  20083241.223    20083241.225    20083248.204
       235.000         202.000
 -12055892.99649  -9369742.83646  22734372.669    22734372.234    22734380.762
       222.000         169.000
   4573044.75049   3564757.72047  21883206.096    21883205.380    21883212.912
       235.000         199.000
 -12890099.79649 -10017820.91547  20935190.517    20935190.379    20935197.517
       238.000         206.000
 00  5  2 16 46 29.9990000  0  6G 2G24G 4G 5G 7G 9
   4742643.57049   3696258.26446  22775932.946    22775932.084    22775941.303
       216.000         173.000
 -22277480.51649 -17334673.05547  21310757.890    21310757.811    21310767.261
       235.000         194.000
 -15161797.53549 -11783916.14047  20078410.437    20078410.521    20078417.546
       234.000         202.000
 -12153174.15049  -9445546.30346  22715860.649    22715860.200    22715868.674
       222.000         168.000
   4619606.93449   3601039.90447  21892066.591    21892065.895    21892073.456
       233.000         196.000
 -12905308.64449 -10029671.98047  20932296.412    20932296.251    20932303.388
       239.000         206.000
 00  5  2 16 46 59.9990000  0  6G 2G24G 4G 5G 7G 9
   4798607.35949   3739866.29946  22786582.608    22786581.727    22786590.976
       220.000         174.000
 -22372676.27749 -17408851.51347  21292642.808    21292642.682    21292651.968
       236.000         194.000
 -15186508.49349 -11803171.40847  20073707.964    20073708.141    20073715.201
       235.000         202.000
 -12250323.06549  -9521246.69246  22697373.883    22697373.332    22697381.844
       222.000         169.000
   4666327.65049   3637445.61447  21900957.402    21900956.592    21900964.153
       233.000         192.000
 -12919879.20849 -10041025.67747  20929523.777    20929523.588    20929530.735
       240.000         206.000
 00  5  2 16 47 29.9990000  0  6G 2G24G 4G 5G 7G 9
   4854914.80449   3783742.13346  22797297.738    22797296.796    22797306.030
       223.000         175.000
 -22467415.31149 -17482674.07347  21274614.501    21274614.419    21274623.637
       233.000         194.000
 -15210533.03149 -11821891.80447  20069136.234    20069136.409    20069143.471
       235.000         202.000
 -12347326.39849  -9596833.67346  22678914.699    22678914.196    22678922.665
       222.000         169.000
   4713217.93049   3673983.44547  21909880.303    21909879.546    21909887.157
       231.000         191.000
 -12933799.48449 -10051872.65647  20926874.903    20926874.667    20926881.831
       239.000         207.000
 00  5  2 16 47 59.9990000  0  6G 2G24G 4G 5G 7G 9
   4911515.95449   3827846.82546  22808068.765    22808067.748    22808076.984
       224.000         174.000
 -22561745.00249 -17556177.66947  21256664.103    21256664.004    21256673.227
       233.000         194.000
 -15233920.74549 -11840115.98447  20064685.595    20064685.854    20064692.913
       235.000         202.000
 -12444232.58249  -9672344.94546  22660473.944    22660473.497    22660481.984
       221.000         169.000
   4760227.22149   3710614.07547  21918825.998    21918825.174    21918832.657
       234.000         196.000
 -12947119.07949 -10062251.57247  20924340.214    20924340.044    20924347.221
       238.000         206.000
 00  5  2 16 48 29.9990000  0  6G 2G24G 4G 5G 7G 9
   4968436.94749   3872200.76246  22818900.601    22818899.575    22818908.811
       226.000         175.000
 -22655636.42249 -17629339.74847  21238797.036    21238797.024    21238806.225
       234.000         194.000
 -15256645.11349 -11857823.26347  20060361.376    20060361.574    20060368.555
       235.000         202.000
 -12541013.65249  -9747758.71546  22642057.096    22642056.629    22642065.123
       222.000         170.000
   4807381.15549   3747357.35047  21927799.000    21927798.245    21927805.793
       232.000         193.000
 -12959811.91749 -10072142.10447  20921924.867    20921924.670    20921931.864
       239.000         206.000
 00  5  2 16 48 59.9990000  0  6G 2G24G 4G 5G 7G 9
   5025690.44449   3916813.81446  22829795.718    22829794.684    22829803.895
       225.000         174.000
 -22749074.58749 -17702148.65447  21221016.385    21221016.300    21221025.471
       235.000         194.000
 -15278692.90749 -11875003.34547  20056165.774    20056165.983    20056172.933
       235.000         202.000
 -12637655.26349  -9823063.82346  22623666.879    22623666.301    22623674.828
       221.000         170.000
   4854691.69949   3784222.64547  21936801.766    21936801.117    21936808.831
       230.000         192.000
 -12971864.65849 -10081533.86047  20919631.325    20919631.111    20919638.300
       239.000         206.000
 00  5  2 16 49 29.9990000  0  6G 2G24G 4G 5G 7G 9
   5083298.02749   3961702.74246  22840758.229    22840757.154    22840766.349
       224.000         172.000
 -22842035.24549 -17774585.47447  21203326.561    21203326.451    21203335.623
       234.000         194.000
 -15300042.62349 -11891639.46847  20052103.078    20052103.278    20052110.176
       235.000         203.000
 -12734134.25849  -9898242.21146  22605307.345    22605306.908    22605315.443
       221.000         171.000
   4902179.83949   3821226.40147  21945838.518    21945837.833    21945845.453
       230.000         190.000
 -12983255.76849 -10090410.05847  20917463.745    20917463.473    20917470.676
       240.000         207.000
 00  5  2 16 49 59.9990000  0  6G 2G24G 4G 5G 7G 9
   5141222.99549   4006838.99846  22851781.133    22851780.027    22851789.177
       221.000         169.000
 -22934552.47549 -17846676.76247  21185720.943    21185720.917    21185730.162
       234.000         194.000
 -15320730.35349 -11907759.75147  20048166.386    20048166.526    20048173.449
       236.000         203.000
 -12830485.56049  -9973321.09046  22586972.338    22586971.816    22586980.423
       222.000         171.000
   4949808.52849   3858339.58947  21954901.986    21954901.295    21954909.082
       231.000         192.000
 -12994021.39749 -10098798.87147  20915415.193    20915414.890    20915422.069
       240.000         207.000
 00  5  2 16 50 29.9990000  0  6G 2G24G 4G 5G 7G 9
   5199456.73349   4052215.86546  22862862.663    22862861.604    22862870.776
       219.000         168.000
 -23026632.44549 -17918427.33847  21168198.687    21168198.628    21168207.845
       234.000         193.000
 -15340764.39749 -11923370.67747  20044354.021    20044354.164    20044361.063
       236.000         203.000
 -12926715.82649 -10048305.67546  22568660.202    22568659.781    22568668.378
       222.000         173.000
   4997568.62349   3895555.25047  21963990.610    21963989.840    21963997.503
       234.000         198.000
 -13004170.05449 -10106706.92347  20913483.952    20913483.659    20913490.827
       240.000         207.000
 00  5  2 16 50 59.9990000  0  6G 2G24G 4G 5G 7G 9
   5257986.28349   4097823.20346  22874000.426    22873999.458    22874008.633
       215.000         164.000
 -23118285.64549 -17989845.36447  21150757.601    21150757.545    21150766.715
       233.000         193.000
 -15360157.54949 -11938482.20147  20040663.749    20040663.819    20040670.666
       236.000         203.000
 -13022836.21049 -10123204.62346  22550369.022    22550368.577    22550377.253
       222.000         172.000
   5045446.61249   3932862.71447  21973101.540    21973100.766    21973108.452
       234.000         195.000
 -13013714.46949 -10114144.14247  20911667.674    20911667.415    20911674.620
       240.000         207.000
 00  5  2 16 51 29.9990000  0  6G 2G24G 4G 5G 7G 9
   5316848.75849   4143689.96246  22885201.639    22885200.707    22885209.814
       211.000         163.000
 -23209472.22649 -18060899.78147  21133405.193    21133405.238    21133414.423
       233.000         194.000
 -15378872.47449 -11953065.24147  20037102.313    20037102.428    20037109.378
       234.000         202.000
 -13118807.79249 -10197987.62146  22532106.150    22532105.746    22532114.404
       222.000         174.000
   5093479.13349   3970290.65447  21982241.940    21982241.127    21982248.690
       230.000         189.000
 -13022617.69849 -10121081.73047  20909973.561    20909973.223    20909980.420
       240.000         206.000
 00  5  2 16 51 59.9990000  0  6G 2G24G 4G 5G 7G 9
   5376063.31749   4189831.04545  22896469.781    22896468.869    22896478.073
       206.000         162.000
 -23300170.66849 -18131573.83747  21116145.849    21116145.863    21116155.029
       235.000         195.000
 -15396889.90749 -11967104.78747  20033673.545    20033673.740    20033680.749
       235.000         202.000
 -13214610.02349 -10272638.66846  22513875.658    22513875.161    22513883.718
       223.000         173.000
   5141684.74449   4007853.42247  21991415.249    21991414.389    21991422.011
       231.000         193.000
 -13030860.32149 -10127504.56747  20908405.134    20908404.734    20908411.924
       240.000         206.000
 00  5  2 16 52 29.9990000  0  6G 2G24G 4G 5G 7G 9
   5435514.26249   4236156.32246  22907782.965    22907782.054    22907791.283
       212.000         165.000
 -23390494.15149 -18201955.71647  21098957.928    21098957.839    21098967.033
       235.000         195.000
 -15414325.28549 -11980690.77147  20030355.802    20030355.924    20030362.860
       235.000         202.000
 -13310356.60949 -10347246.34146  22495655.691    22495655.193    22495663.672
       223.000         175.000
   5189947.33449   4045460.57847  22000599.305    22000598.452    22000606.113
       234.000         198.000
 -13038557.71749 -10133502.54847  20906940.389    20906939.970    20906947.147
       239.000         206.000
 00  5  2 16 52 59.9990000  0  6G 2G24G 4G 5G 7G 9
   5495320.92449   4282758.80346  22919163.975    22919162.952    22919172.183
       214.000         165.000
 -23480320.91549 -18271950.54347  21081864.346    21081864.305    21081873.532
       236.000         195.000
 -15431059.04949 -11993730.04847  20027171.496    20027171.580    20027178.480
       234.000         201.000
 -13405926.31549 -10421716.19846  22477469.414    22477468.898    22477477.269
       224.000         176.000
   5238385.72849   4083204.73947  22009816.781    22009815.985    22009823.684
       230.000         188.000
 -13045590.56149 -10138982.69547  20905602.006    20905601.644    20905608.806
       239.000         205.000
 00  5  2 16 53 29.9990000  0  6G 2G24G 4G 5G 7G 9
   5555494.73249   4329647.36746  22930614.784    22930613.756    22930622.986
       215.000         169.000
 -23569636.72049 -18341547.21947  21064868.070    21064868.023    21064877.239
       235.000         196.000
 -15447079.46749 -12006213.46647  20024122.752    20024122.911    20024129.839
       234.000         201.000
 -13501305.67949 -10496037.73346  22459319.332    22459318.801    22459327.149
       225.000         176.000
   5287011.14949   4121094.64747  22019069.926    22019069.132    22019076.885
       226.000         192.000
 -13051946.86949 -10143935.67947  20904392.507    20904392.113    20904399.239
       240.000         205.000
 00  5  2 16 53 59.9990000  0  6G 2G24G 4G 5G 7G 9
   5615963.36849   4376765.67346  22942121.690    22942120.637    22942129.892
       218.000         170.000
 -23658511.35049 -18410800.11847  21047955.846    21047955.737    21047964.920
       235.000         196.000
 -15462458.56449 -12018197.15747  20021196.140    20021196.339    20021203.278
       235.000         202.000
 -13596565.02149 -10570265.74546  22441192.026    22441191.551    22441199.815
       224.000         174.000
   5335750.87549   4159073.68046  22028344.934    22028344.068    22028351.692
       235.000         183.000
 -13057698.93649 -10148417.81847  20903297.996    20903297.571    20903304.670
       240.000         205.000
 00  5  2 16 54 29.9990000  0  6G 2G24G 4G 5G 7G 9
   5676721.86649   4424109.84046  22953683.832    22953682.715    22953691.954
       221.000         173.000
 -23746947.30449 -18479711.19147  21031127.007    21031126.907    21031136.050
       235.000         196.000
 -15477201.38049 -12029685.04247  20018390.906    20018390.938    20018397.888
       236.000         204.000
 -13691707.48049 -10644402.67346  22423087.114    22423086.515    22423094.782
       224.000         176.000
   5384599.66949   4197137.57747  22037640.452    22037639.683    22037647.415
       231.000         189.000
 -13062851.81549 -10152433.06447  20902317.499    20902317.026    20902324.124
       239.000         205.000
 00  5  2 16 54 59.9990000  0  6G 2G24G 4G 5G 7G 9
   5737777.93249   4471685.89346  22965302.569    22965301.419    22965310.705
       221.000         174.000
 -23834934.46449 -18548272.55047  21014383.582    21014383.455    21014392.609
       235.000         196.000
 -15491300.03749 -12040670.99747  20015707.971    20015708.035    20015715.045
       235.000         202.000
 -13786723.56249 -10718441.14046  22405006.006    22405005.509    22405013.811
       224.000         176.000
   5433564.60149   4235292.11947  22046958.251    22046957.453    22046965.110
       231.000         195.000
 -13067397.81049 -10155975.41147  20901452.360    20901451.978    20901459.061
       239.000         206.000
 00  5  2 16 55 29.9990000  0  6G 2G24G 4G 5G 7G 9
   5799196.59249   4519544.46946  22976990.291    22976989.108    22976998.427
       221.000         173.000
 -23922405.28349 -18616431.56547  20997738.412    20997738.268    20997747.428
       236.000         196.000
 -15504689.55149 -12051104.36347  20013160.049    20013160.109    20013167.054
       236.000         202.000
 -13881546.38649 -10792329.00046  22386961.847    22386961.301    22386969.643
       223.000         176.000
   5482710.42449   4273587.48447  22056310.453    22056309.639    22056317.366
       230.000         192.000
 -13071271.60849 -10158993.96747  20900715.169    20900714.830    20900721.934
       239.000         206.000
 00  5  2 16 55 59.9990000  0  6G 2G24G 4G 5G 7G 9
   5860924.28349   4567643.86846  22988736.804    22988735.610    22988744.953
       222.000         173.000
 -24009410.74549 -18684227.96747  20981181.798    20981181.641    20981190.799
       235.000         197.000
 -15517423.04649 -12061026.55347  20010736.831    20010736.954    20010743.875
       235.000         202.000
 -13976227.56849 -10866106.50746  22368944.508    22368944.010    22368952.370
       223.000         176.000
   5531983.43249   4311981.96847  22065686.755    22065685.945    22065693.740
       231.000         192.000
 -13074526.50249 -10161530.26547  20900095.873    20900095.474    20900102.583
       240.000         206.000
 00  5  2 16 56 29.9990000  0  6G 2G24G 4G 5G 7G 9
   5922940.56749   4615968.14346  23000538.167    23000537.018    23000546.380
       222.000         171.000
 -24095968.83649 -18751675.76347  20964710.334    20964710.167    20964719.288
       235.000         197.000
 -15529521.19149 -12070453.65647  20008434.742    20008434.798    20008441.635
       237.000         204.000
 -14070785.42749 -10939787.91746  22350950.767    22350950.181    22350958.598
       224.000         177.000
   5581362.58949   4350459.26447  22075083.460    22075082.573    22075090.331
       228.000         190.000
 -13077183.43749 -10163600.61647  20899590.300    20899589.914    20899597.028
       239.000         206.000
 00  5  2 16 56 59.9990000  0  6G 2G24G 4G 5G 7G 9
   5985293.66049   4664554.85046  23012403.686    23012402.515    23012411.938
       222.000         170.000
 -24182028.77449 -18818735.39447  20948333.656    20948333.479    20948342.599
       235.000         198.000
 -15540935.49949 -12079347.89947  20006262.765    20006262.763    20006269.607
       236.000         204.000
 -14165169.61949 -11013333.99346  22332990.008    22332989.426    22332997.875
       223.000         177.000
   5630896.00249   4389056.63947  22084509.287    22084508.454    22084516.286
       231.000         193.000
 -13079193.80549 -10165167.15447  20899207.812    20899207.367    20899214.490
       240.000         206.000
 00  5  2 16 57 29.9990000  0  6G 2G24G 4G 5G 7G 9
   6047972.89149   4713395.70546  23024331.167    23024330.054    23024339.526
       222.000         163.000
 -24267598.77449 -18885413.24347  20932050.120    20932049.998    20932059.194
       235.000         198.000
 -15551676.62649 -12087717.59047  20004218.778    20004218.774    20004225.632
       235.000         202.000
 -14259388.96149 -11086751.62346  22315060.486    22315060.008    22315068.531
       223.000         178.000
   5680572.64349   4427765.71246  22093962.552    22093961.677    22093969.456
       229.000         187.000
 -13080568.35149 -10166238.24647  20898946.324    20898945.823    20898952.946
       240.000         206.000
 00  5  2 16 57 59.9990000  0  6G 2G24G 4G 5G 7G 9
   6110998.03549   4762506.11345  23036324.500    23036323.401    23036332.936
       219.000         162.000
 -24352656.55449 -18951691.96747  20915864.247    20915864.037    20915873.189
       236.000         199.000
 -15561724.84849 -12095547.36447  20002306.623    20002306.645    20002313.488
       235.000         202.000
 -14353421.65049 -11160023.80746  22297166.656    22297166.139    22297174.721
       224.000         179.000
   5730412.11649   4466601.64646  22103446.617    22103445.796    22103453.556
       228.000         185.000
 -13081287.44849 -10166798.59747  20898809.586    20898809.027    20898816.120
       239.000         206.000
 00  5  2 16 58 29.9990000  0  6G 2G24G 4G 5G 7G 9
   6174322.02449   4811849.38645  23048374.700    23048373.610    23048383.191
       215.000         155.000
 -24437246.75749 -19017606.35147  20899767.236    20899767.034    20899776.163
       237.000         199.000
 -15571127.06649 -12102873.74947  20000517.503    20000517.478    20000524.230
       236.000         203.000
 -14447312.69549 -11233185.62846  22279299.714    22279299.241    22279307.848
       223.000         178.000
   5780367.00349   4505527.46147  22112952.852    22112951.961    22112959.722
       231.000         192.000
 -13081398.07349 -10166884.81747  20898788.552    20898787.983    20898795.097
       239.000         205.000
 00  5  2 16 58 59.9990000  0  6G 2G24G 4G 5G 7G 9
   6237928.61549   4861412.85545  23060478.656    23060477.584    23060487.210
       212.000         153.000
 -24521383.19949 -19083167.15147  20883756.685    20883756.380    20883765.510
       236.000         200.000
 -15579899.72049 -12109709.56847  19998848.191    19998848.109    19998854.804
       237.000         202.000
 -14541076.34049 -11306248.16046  22261457.085    22261456.554    22261465.221
       225.000         178.000
   5830420.83349   4544530.47746  22122477.825    22122476.959    22122484.572
       234.000         186.000
 -13080916.53949 -10166509.61047  20898880.097    20898879.621    20898886.761
       239.000         205.000
 00  5  2 16 59 29.9990000  0  6G 2G24G 4G 5G 7G 9
   6301842.95749   4911216.12845  23072641.240    23072640.179    23072649.836
       211.000         154.000
 -24605038.39049 -19148352.94847  20867837.560    20867837.279    20867846.444
       237.000         199.000
 -15588017.79849 -12116035.32447  19997303.467    19997303.341    19997309.936
       237.000         203.000
 -14634685.29849 -11379190.16846  22243643.897    22243643.326    22243651.978
       225.000         178.000
   5880598.52549   4583629.98347  22132026.368    22132025.493    22132033.099
       224.000         188.000
 -13079817.75149 -10165653.43247  20899089.130    20899088.699    20899095.878
       239.000         205.000
 00  5  2 16 59 59.9990000  0  6G 2G24G 4G 5G 7G 9
   6366089.12249   4961277.93145  23084866.955    23084865.855    23084875.621
       211.000         157.000
 -24688185.51549 -19213142.85547  20852015.172    20852014.889    20852024.028
       236.000         200.000
 -15595456.87349 -12121831.99447  19995887.936    19995887.775    19995894.334
       235.000         203.000
 -14728113.34049 -11451991.20446  22225865.084    22225864.519    22225873.170
       224.000         178.000
   5930924.10849   4622844.58247  22141602.836    22141602.054    22141609.810
       234.000         196.000
 -13078077.36849 -10164297.30047  20899420.267    20899419.894    20899427.058
       240.000         205.000
 00  5  2 17  0 29.9990000  0  6G 2G24G 4G 5G 7G 9
   6430618.40749   5011560.35445  23097146.519    23097145.461    23097155.302
       212.000         159.000
 -24770870.89149 -19277572.96047  20836280.751    20836280.377    20836289.442
       237.000         199.000
 -15602265.83349 -12127137.66747  19994592.016    19994591.992    19994598.632
       235.000         203.000
 -14821406.98149 -11524687.50246  22208112.039    22208111.369    22208119.962
       225.000         178.000
   5981348.51249   4662136.38846  22151198.699    22151197.714    22151205.369
       228.000         186.000
 -13075744.33149 -10162479.36247  20899864.348    20899863.877    20899871.007
       239.000         204.000
 00  5  2 17  0 59.9990000  0  6G 2G24G 4G 5G 7G 9
   6495472.62849   5062095.96345  23109487.985    23109486.898    23109496.796
       212.000         160.000
 -24853050.46849 -19341608.93347  20820642.402    20820642.072    20820651.091
       235.000         199.000
 -15608403.25149 -12131920.06047  19993424.167    19993424.089    19993430.722
       236.000         203.000
 -14914522.48149 -11597245.00246  22190392.827    22190392.097    22190400.597
       225.000         178.000
   6031913.58349   4701537.63347  22160820.680    22160819.780    22160827.547
       232.000         192.000
 -13072777.14849 -10160167.28747  20900428.972    20900428.488    20900435.650
       239.000         204.000
 00  5  2 17  1 29.9990000  0  6G 2G24G 4G 5G 7G 9
   6560650.11649   5112883.48045  23121890.962    23121889.864    23121899.765
       210.000         161.000
 -24934723.26449 -19405250.01247  20805100.463    20805100.186    20805109.193
       235.000         199.000
 -15613870.50249 -12136180.24747  19992383.721    19992383.676    19992390.326
       235.000         203.000
 -15007459.10249 -11669663.10846  22172707.497    22172706.811    22172715.237
       225.000         178.000
   6082617.38149   4741047.07046  22170469.377    22170468.446    22170476.172
       226.000         183.000
 -13069177.16449 -10157362.12047  20901113.948    20901113.562    20901120.686
       239.000         204.000
 00  5  2 17  1 59.9990000  0  6G 2G24G 4G 5G 7G 9
   6626120.29649   5163899.07345  23134349.672    23134348.533    23134358.458
       210.000         159.000
 -25015917.41049 -19468518.12247  20789649.567    20789649.386    20789658.412
       236.000         199.000
 -15618698.51949 -12139942.32447  19991465.076    19991464.966    19991471.563
       237.000         204.000
 -15100245.44349 -11741964.10646  22155050.823    22155050.108    22155058.534
       225.000         179.000
   6133429.19049   4780640.70547  22180138.563    22180137.648    22180145.275
       229.000         189.000
 -13064975.48449 -10154088.10147  20901913.498    20901913.124    20901920.200
       239.000         204.000
 00  5  2 17  2 29.9990000  0  6G 2G24G 4G 5G 7G 9
   6691880.03549   5215140.27145  23146863.435    23146862.260    23146872.303
       207.000         158.000
 -25096633.57749 -19531413.78047  20774289.864    20774289.592    20774298.557
       236.000         199.000
 -15622890.34449 -12143208.67147  19990667.449    19990667.319    19990673.912
       237.000         203.000
 -15192882.18149 -11814148.54446  22137422.614    22137421.929    22137430.263
       226.000         179.000
   6184345.81449   4820315.90747  22189827.774    22189826.802    22189834.542
       232.000         200.000
 -13060175.17649 -10150347.62647  20902826.955    20902826.604    20902833.640
       239.000         204.000
 00  5  2 17  2 59.9990000  0  6G 2G24G 4G 5G 7G 9
   6757948.63849   5266622.11845  23159435.919    23159434.758    23159444.891
       212.000         161.000
 -25176850.17049 -19593920.16247  20759025.088    20759024.857    20759033.753
       236.000         199.000
 -15626426.85449 -12145964.37847  19989994.441    19989994.313    19990000.961
       237.000         204.000
 -15285348.10149 -11886199.87746  22119826.999    22119826.275    22119834.529
       227.000         179.000
   6235386.43349   4860087.76946  22199540.435    22199539.529    22199547.329
       221.000         180.000
 -13054757.32849 -10146125.94247  20903857.915    20903857.580    20903864.631
       239.000         205.000
 00  5  2 17  3 29.9990000  0  6G 2G24G 4G 5G 7G 9
   6824302.33549   5318326.13346  23172062.690    23172061.569    23172071.673
       210.000         163.000
 -25256588.48449 -19656053.85847  20743851.378    20743851.129    20743860.001
       237.000         200.000
 -15629332.11049 -12148228.20747  19989441.618    19989441.485    19989448.100
       237.000         204.000
 -15377664.70849 -11958134.85346  22102259.736    22102259.031    22102267.179
       228.000         180.000
   6286527.35349   4899937.83647  22209272.214    22209271.353    22209279.099
       233.000         190.000
 -13048745.92649 -10141441.75447  20905001.859    20905001.523    20905008.578
       239.000         205.000
 00  5  2 17  3 59.9990000  0  6G 2G24G 4G 5G 7G 9
   6890944.62249   5370255.04046  23184744.428    23184743.283    23184753.431
       209.000         163.000
 -25335842.51449 -19717810.19047  20728769.822    20728769.566    20728778.431
       236.000         200.000
 -15631602.61149 -12149997.41847  19989009.525    19989009.408    19989016.060
       235.000         204.000
 -15469826.04849 -12029948.84346  22084722.038    22084721.304    22084729.364
       228.000         180.000
   6337771.87449   4939868.60546  22219023.778    22219022.929    22219030.659
       226.000         184.000
 -13042137.16749 -10136292.09547  20906259.553    20906259.155    20906266.222
       240.000         206.000
 00  5  2 17  4 29.9990000  0  6G 2G24G 4G 5G 7G 9
   6957892.42749   5422421.99346  23197484.327    23197483.179    23197493.318
       211.000         165.000
 -25414592.89649 -19779174.07147  20713784.132    20713783.839    20713792.711
       237.000         201.000
 -15633221.60049 -12151258.95847  19988701.323    19988701.271    19988707.975
       236.000         204.000
 -15561813.17249 -12101627.08546  22067217.399    22067216.715    22067224.705
       227.000         180.000
   6389137.15749   4979893.45246  22228798.233    22228797.405    22228805.194
       229.000         187.000
 -13034914.27849 -10130663.89147  20907633.989    20907633.635    20907640.722
       239.000         206.000
 00  5  2 17  4 59.9990000  0  6G 2G24G 4G 5G 7G 9
   7025140.12449   5474822.62946  23210281.317    23210280.137    23210290.254
       215.000         168.000
 -25492842.85149 -19840148.01047  20698893.664    20698893.343    20698902.232
       237.000         201.000
 -15634194.92249 -12152017.37447  19988516.073    19988516.026    19988522.705
       236.000         204.000
 -15653629.28249 -12173172.06346  22049745.301    22049744.649    22049752.600
       226.000         180.000
   6440617.30149   5020007.81446  22238594.683    22238593.796    22238601.526
       226.000         178.000
 -13027083.06249 -10124561.66447  20909124.186    20909123.885    20909130.978
       240.000         206.000
 00  5  2 17  5 29.9990000  0  6G 2G24G 4G 5G 7G 9
   7092696.04549   5527463.43646  23223136.948    23223135.734    23223145.871
       216.000         169.000
 -25570581.76749 -19900723.73547  20684100.455    20684100.071    20684108.987
       238.000         200.000
 -15634514.41449 -12152266.32147  19988455.394    19988455.282    19988461.833
       236.000         204.000
 -15745263.73149 -12244575.49246  22032307.888    22032307.183    22032315.050
       227.000         179.000
   6492220.65549   5060218.28546  22248414.536    22248413.625    22248421.250
       229.000         185.000
 -13018635.49949 -10117979.16647  20910731.781    20910731.443    20910738.541
       240.000         206.000
 00  5  2 17  5 59.9990000  0  6G 2G24G 4G 5G 7G 9
   7160556.77249   5580341.76546  23236050.524    23236049.328    23236059.504
       216.000         170.000
 -25647810.87449 -19960902.22047  20669404.170    20669403.833    20669412.695
       237.000         200.000
 -15634183.84549 -12152008.72447  19988518.372    19988518.207    19988524.721
       236.000         203.000
 -15836717.86449 -12315838.40646  22014904.640    22014903.986    22014911.882
       225.000         180.000
   6543943.77449   5100521.85047  22258257.044    22258256.177    22258263.924
       228.000         190.000
 -13009575.76449 -10110919.66447  20912455.859    20912455.477    20912462.609
       240.000         207.000
 00  5  2 17  6 29.9980000  0  6G 2G24G 4G 5G 7G 9
   7228704.02749   5633443.36146  23249018.661    23249017.443    23249027.672
       218.000         170.000
 -25724540.89549 -20020691.79647  20654802.867    20654802.562    20654811.386
       238.000         200.000
 -15633219.42049 -12151257.21447  19988701.866    19988701.725    19988708.241
       236.000         203.000
 -15928002.28949 -12386969.08546  21997533.661    21997533.081    21997541.000
       228.000         181.000
   6595768.85049   5140905.09846  22268119.263    22268118.276    22268125.844
       231.000         173.000
 -12999920.18349 -10103395.85547  20914293.324    20914292.926    20914300.064
       240.000         206.000
 00  5  2 17  6 59.9980000  0  6G 2G24G 4G 5G 7G 9
   7297141.73949   5686771.27646  23262042.041    23262040.838    23262051.086
       215.000         169.000
 -25800775.18049 -20080095.08447  20640295.944    20640295.612    20640304.431
       237.000         200.000
 -15631621.71849 -12150012.24347  19989005.646    19989005.640    19989012.264
       234.000         202.000
 -16019121.05949 -12457970.68746  21980194.309    21980193.740    21980201.643
       228.000         180.000
   6647699.17249   5181370.23347  22278001.204    22278000.237    22278007.838
       226.000         189.000
 -12989668.45449 -10095407.52247  20916244.151    20916243.756    20916250.933
       240.000         206.000
 00  5  2 17  7 29.9980000  0  6G 2G24G 4G 5G 7G 9
   7365867.18549   5740323.39746  23275120.187    23275118.980    23275129.267
       216.000         169.000
 -25876509.39149 -20139108.70747  20625884.218    20625883.867    20625892.662
       237.000         200.000
 -15629391.80049 -12148274.65247  19989429.728    19989429.881    19989436.598
       234.000         203.000
 -16110069.31849 -12528839.41746  21962887.591    21962886.861    21962894.775
       228.000         181.000
   6699732.39549   5221915.52347  22287902.875    22287901.909    22287909.573
       232.000         193.000
 -12978822.11149 -10086955.85347  20918308.128    20918307.761    20918314.947
       240.000         206.000
 00  5  2 17  7 59.9980000  0  6G 2G24G 4G 5G 7G 9
   7434879.92149   5794099.38446  23288252.981    23288251.777    23288262.126
       216.000         169.000
 -25951741.63149 -20197731.18347  20611568.022    20611567.596    20611576.387
       238.000         200.000
 -15626530.32549 -12146044.92647  19989974.410    19989974.444    19989981.087
       237.000         204.000
 -16200844.98649 -12599573.67546  21945613.430    21945612.797    21945620.747
       227.000         183.000
   6751868.31749   5262540.93445  22297823.909    22297822.995    22297830.571
       226.000         161.000
 -12967381.67149 -10078041.25147  20920485.326    20920484.855    20920492.024
       240.000         206.000
 00  5  2 17  8 29.9980000  0  6G 2G24G 4G 5G 7G 9
   7504200.89649   5848115.54746  23301444.529    23301443.257    23301453.637
       215.000         169.000
 -26026448.54849 -20255944.32147  20597351.655    20597351.303    20597360.035
       238.000         200.000
 -15623016.62749 -12143306.97647  19990643.230    19990643.144    19990649.732
       237.000         204.000
 -16291425.10249 -12670155.54346  21928376.488    21928375.905    21928383.966
       227.000         183.000
   6804127.52249   5303262.41647  22307768.642    22307767.659    22307775.268
       235.000         201.000
 -12955326.45649 -10068647.60247  20922779.223    20922778.917    20922786.087
       239.000         206.000
 00  5  2 17  8 59.9980000  0  6G 2G24G 4G 5G 7G 9
   7573823.04649   5902366.39746  23314693.353    23314692.047    23314702.447
       215.000         168.000
 -26100634.79849 -20313751.74147  20583234.450    20583234.103    20583242.763
       238.000         201.000
 -15618858.03149 -12140066.50447  19991434.632    19991434.504    19991441.112
       237.000         204.000
 -16381814.04049 -12740588.44046  21911175.955    21911175.420    21911183.573
       228.000         183.000
   6856503.55249   5344074.82846  22317735.585    22317734.543    22317742.285
       218.000         187.000
 -12942663.80649 -10058780.62847  20925188.848    20925188.552    20925195.758
       240.000         206.000
 00  5  2 17  9 29.9980000  0  6G 2G24G 4G 5G 7G 9
   7643713.54349   5956826.33746  23327993.240    23327991.879    23328002.316
       215.000         166.000
 -26174330.93249 -20371177.25647  20569210.518    20569210.162    20569218.804
       238.000         201.000
 -15614087.71749 -12136349.38047  19992342.220    19992342.195    19992348.871
       237.000         204.000
 -16472042.23649 -12810896.09646  21894006.147    21894005.539    21894013.740
       227.000         184.000
   6908963.65449   5384952.61946  22327718.136    22327717.253    22327725.222
       232.000         187.000
 -12929427.27449 -10048466.47047  20927707.762    20927707.412    20927714.635
       240.000         207.000
 00  5  2 17  9 59.9980000  0  6G 2G24G 4G 5G 7G 9
   7713902.76149   6011519.03646  23341349.975    23341348.557    23341359.054
       214.000         166.000
 -26247504.32449 -20428195.44147  20555286.048    20555285.704    20555294.331
       238.000         201.000
 -15608675.75649 -12132132.26747  19993372.217    19993372.107    19993378.704
       237.000         204.000
 -16562076.89049 -12881052.93546  21876872.988    21876872.444    21876880.754
       228.000         184.000
   6961537.95949   5425919.78546  22337722.927    22337721.923    22337729.746
       236.000         184.000
 -12915586.62549 -10037681.57447  20930341.677    20930341.224    20930348.480
       241.000         206.000
 00  5  2 17 10 29.9980000  0  6G 2G24G 4G 5G 7G 9
   7784401.37349   6066452.82446  23354765.499    23354764.144    23354774.644
       214.000         164.000
 -26320142.03449 -20484796.21047  20541463.585    20541463.194    20541471.792
       239.000         201.000
 -15602611.76949 -12127407.07047  19994526.191    19994526.057    19994532.616
       237.000         203.000
 -16651904.90449 -12951048.75846  21859779.235    21859778.698    21859787.028
       228.000         183.000
   7014237.69649   5466984.46946  22347751.385    22347750.400    22347758.211
       216.000         178.000
 -12901131.44449 -10026417.82247  20933092.473    20933091.980    20933099.231
       241.000         206.000
 00  5  2 17 10 59.9980000  0  6G 2G24G 4G 5G 7G 9
   7855191.55749   6121613.81146  23368236.620    23368235.245    23368245.719
       214.000         164.000
 -26392259.55549 -20540991.63447  20527740.062    20527739.653    20527748.242
       238.000         201.000
 -15595913.86449 -12122187.91847  19995800.778    19995800.630    19995807.202
       237.000         204.000
 -16741541.59249 -13020895.48446  21842722.074    21842721.382    21842729.713
       229.000         185.000
   7067045.24349   5508133.03547  22357800.214    22357799.305    22357807.249
       229.000         188.000
 -12886079.91049 -10014689.37547  20935956.690    20935956.219    20935963.448
       241.000         206.000
 00  5  2 17 11 29.9980000  0  6G 2G24G 4G 5G 7G 9
   7926265.26249   6176995.72245  23381761.637    23381760.254    23381770.747
       214.000         162.000
 -26463862.42949 -20596786.03547  20514114.320    20514114.007    20514122.614
       237.000         200.000
 -15588590.53449 -12116481.41347  19997194.394    19997194.229    19997200.792
       237.000         204.000
 -16830992.30749 -13090597.31846  21825700.073    21825699.460    21825707.746
       228.000         185.000
   7119952.56949   5549359.54846  22367868.473    22367867.393    22367875.224
       234.000         182.000
 -12870440.26749 -10002502.66947  20938932.814    20938932.372    20938939.590
       241.000         206.000
 00  5  2 17 11 59.9980000  0  6G 2G24G 4G 5G 7G 9
   7997619.21349   6232596.00745  23395340.014    23395338.613    23395349.104
       214.000         162.000
 -26534951.68549 -20652180.21447  20500586.428    20500586.141    20500594.742
       238.000         201.000
 -15580645.31949 -12110290.33847  19998706.359    19998706.186    19998712.772
       239.000         205.000
 -16920257.97649 -13160154.93846  21808713.460    21808712.756    21808721.049
       229.000         185.000
   7172956.62649   5590661.42946  22377954.830    22377953.798    22377961.519
       225.000         176.000
 -12854216.34749  -9989860.67447  20942020.218    20942019.720    20942026.905
       241.000         206.000
 00  5  2 17 12 29.9980000  0  6G 2G24G 4G 5G 7G 9
   8069261.21649   6288420.75145  23408973.234    23408971.793    23408982.267
       213.000         159.000
 -26605517.42149 -20707166.45947  20487158.241    20487157.891    20487166.521
       237.000         200.000
 -15572071.03449 -12103609.08347  20000338.088    20000337.862    20000344.424
       236.000         204.000
 -17009328.27049 -13229560.34046  21791763.972    21791763.236    21791771.518
       229.000         185.000
   7226065.32649   5632044.79347  22388061.140    22388060.100    22388067.850
       231.000         191.000
 -12837400.79449  -9976757.67847  20945220.206    20945219.652    20945226.783
       241.000         206.000
 00  5  2 17 12 59.9980000  0  6G 2G24G 4G 5G 7G 9
   8141199.42349   6344476.30645  23422662.769    23422661.332    23422671.861
       212.000         157.000
 -26675549.14749 -20761736.57747  20473831.619    20473831.254    20473839.888
       237.000         200.000
 -15562859.94549 -12096431.59847  20002090.889    20002090.667    20002097.220
       236.000         203.000
 -17098192.56649 -13298805.21846  21774853.663    21774852.928    21774861.172
       230.000         185.000
   7279287.23649   5673516.33147  22398188.992    22398187.943    22398195.741
       229.000         191.000
 -12819985.75749  -9963187.54647  20948534.252    20948533.676    20948540.750
       241.000         206.000
 00  5  2 17 13 29.9980000  0  6G 2G24G 4G 5G 7G 9
   8213441.85149   6400768.91045  23436410.264    23436408.765    23436419.273
       212.000         156.000
 -26745036.46249 -20815882.49447  20460608.574    20460608.211    20460616.810
       237.000         200.000
 -15553004.43349 -12088751.97847  20003966.237    20003966.093    20003972.602
       237.000         203.000
 -17186840.10349 -13367881.18846  21757984.787    21757983.897    21757992.048
       231.000         184.000
   7332630.76849   5715082.66946  22408340.019    22408338.927    22408346.761
       227.000         180.000
 -12801963.69449  -9949144.40647  20951963.743    20951963.194    20951970.226
       241.000         206.000
 00  5  2 17 13 59.9980000  0  6G 2G24G 4G 5G 7G 9
   8285965.79149   6457280.87845  23450211.236    23450209.771    23450220.303
       210.000         153.000
 -26813999.83449 -20869620.14047  20447485.218    20447484.859    20447493.445
       237.000         199.000
 -15542527.50549 -12080588.13147  20005959.935    20005959.782    20005966.200
       238.000         203.000
 -17275290.99549 -13436803.93546  21741153.212    21741152.280    21741160.333
       230.000         185.000
   7386073.46649   5756726.34446  22418509.751    22418508.699    22418516.493
       225.000         169.000
 -12783357.74749  -9934646.29647  20955504.311    20955503.805    20955510.819
       241.000         206.000
 00  5  2 17 14 29.9980000  0  6G 2G24G 4G 5G 7G 9
   8358797.51649   6514032.65745  23464070.750    23464069.358    23464079.862
       208.000         149.000
 -26882410.76949 -20922927.31247  20434467.064    20434466.637    20434475.216
       238.000         200.000
 -15531403.30649 -12071919.92647  20008076.785    20008076.646    20008083.060
       237.000         203.000
 -17363516.36049 -13505550.94046  21724364.512    21724363.558    21724371.507
       230.000         184.000
   7439641.92949   5798468.01446  22428703.434    22428702.421    22428710.188
       221.000         175.000
 -12764141.99749  -9919673.01247  20959161.034    20959160.466    20959167.492
       242.000         207.000
 00  5  2 17 14 59.9980000  0  6G 2G24G 4G 5G 7G 9
   8431907.99649   6571001.64545  23477983.351    23477981.930    23477992.475
       206.000         146.000
 -26950295.87749 -20975824.75747  20421548.809    20421548.477    20421557.019
       237.000         200.000
 -15519661.39649 -12062770.38147  20010311.341    20010311.096    20010317.474
       238.000         203.000
 -17451542.46849 -13574142.67346  21707613.608    21707612.718    21707620.625
       229.000         183.000
   7493307.44849   5840285.21847  22438915.612    22438914.611    22438922.498
       230.000         195.000
 -12744345.88949  -9904247.50947  20962928.216    20962927.576    20962934.605
       241.000         206.000
 00  5  2 17 15 29.9980000  0  6G 2G24G 4G 5G 7G 9
   8505314.50949   6628201.31745  23491952.230    23491950.872    23491961.471
       205.000         145.000
 -27017635.78149 -21028297.35847  20408734.499    20408734.104    20408742.577
       238.000         200.000
 -15507284.89749 -12053126.34647  20012666.468    20012666.252    20012672.594
       237.000         203.000
 -17539349.29949 -13642563.55746  21690904.359    21690903.570    21690911.471
       229.000         183.000
   7547087.58449   5882191.75647  22449149.693    22449148.692    22449156.665
       228.000         194.000
 -12723952.57449  -9888356.64547  20966808.887    20966808.306    20966815.365
       241.000         206.000
 00  5  2 17 15 59.9980000  0  6G 2G24G 4G 5G 7G 9
   8579006.03349   6685623.06245  23505975.430    23505973.951    23505984.698
       202.000         142.000
 -27084439.21049 -21080351.92647  20396022.228    20396021.837    20396030.258
       238.000         201.000
 -15494285.44449 -12042996.90747  20015140.133    20015139.948    20015146.345
       237.000         204.000
 -17626945.56849 -13710820.35646  21674235.349    21674234.527    21674242.376
       228.000         183.000
   7600971.72449   5924179.31146  22459403.403    22459402.452    22459410.586
       218.000         177.000
 -12702973.46949  -9872009.32147  20970801.029    20970800.507    20970807.601
       240.000         206.000
 00  5  2 17 16 29.9980000  0  6G 2G24G 4G 5G 7G 9
   8653013.28049   6743290.82045  23520058.660    23520057.260    23520068.041
       205.000         142.000
 -27150673.35849 -21131962.90047  20383418.299    20383417.876    20383426.261
       238.000         201.000
 -15480632.93149 -12032358.59147  20017738.212    20017737.983    20017744.359
       238.000         204.000
 -17714297.97949 -13778887.14246  21657612.621    21657611.856    21657619.679
       229.000         183.000
   7654990.87449   5966272.04246  22469682.777    22469681.859    22469690.114
       218.000         167.000
 -12681378.76249  -9855182.31147  20974910.361    20974909.853    20974916.967
       242.000         207.000
 00  5  2 17 16 59.9980000  0  6G 2G24G 4G 5G 7G 9
   8727292.97849   6801170.86645  23534193.796    23534192.356    23534203.200
       200.000         137.000
 -27216379.46149 -21183162.40947  20370914.817    20370914.391    20370922.763
       238.000         201.000
 -15466371.06949 -12021245.46747  20020452.053    20020451.871    20020458.268
       236.000         203.000
 -17801447.03949 -13846795.46146  21641028.676    21641027.879    21641035.692
       230.000         184.000
   7709102.00349   6008436.57846  22479979.846    22479978.900    22479987.040
       226.000         165.000
 -12659212.42049  -9837909.86847  20979128.521    20979128.016    20979135.126
       240.000         207.000
 00  5  2 17 17 29.9980000  0  6G 2G24G 4G 5G 7G 9
   8801865.77949   6859279.32745  23548384.682    23548383.243    23548394.165
       201.000         135.000
 -27281534.29249 -21233932.35847  20358516.211    20358515.821    20358524.214
       238.000         201.000
 -15451479.75549 -12009641.83547  20023285.840    20023285.591    20023291.911
       238.000         203.000
 -17888369.24449 -13914527.02246  21624487.837    21624487.099    21624494.838
       229.000         184.000
   7763326.36649   6050689.42546  22490298.465    22490297.491    22490305.581
       228.000         175.000
 -12636453.84749  -9820175.94647  20983459.315    20983458.862    20983465.978
       241.000         206.000
 00  5  2 17 17 59.9980000  0  6G 2G24G 4G 5G 7G 9
   8876729.21049   6917614.23645  23562630.992    23562629.447    23562640.441
       197.000         132.000
 -27346138.35149 -21284273.13447  20346222.438    20346222.029    20346230.474
       238.000         201.000
 -15435961.93349 -11997550.02747  20026238.775    20026238.541    20026244.758
       238.000         204.000
 -17975064.52549 -13982081.75146  21607990.301    21607989.505    21607997.209
       229.000         184.000
   7817661.88349   6093028.74346  22500638.282    22500637.247    22500645.366
       226.000         185.000
 -12613106.03449  -9801982.87947  20987902.383    20987901.842    20987908.975
       242.000         206.000
 00  5  2 17 18 29.9980000  0  7G 2G24G 4G30G 5G 7G 9
   8951843.72049   6976144.77245  23576925.042    23576923.499    23576934.465
       199.000         132.000
 -27410228.97649 -21334213.83547  20334026.349    20334025.970    20334034.429
       237.000         201.000
 -15419857.79649 -11985001.35347  20029303.399    20029303.093    20029309.322
       239.000         205.000
   -635770.51659   -466972.71354  24760475.955    24760474.721    24760483.690
       198.000         124.000
 -18061569.67749 -14049488.32246  21591528.887    21591528.107    21591535.802
       230.000         184.000
   7872069.48849   6135424.19246  22510991.724    22510990.688    22510998.878
       220.000         182.000
 -12589209.10249  -9783361.92547  20992449.971    20992449.323    20992456.458
       242.000         206.000
 00  5  2 17 18 59.9980000  0  7G 2G24G 4G30G 5G 7G 9
   9027246.40149   7034899.88245  23591273.999    23591272.183    23591283.425
       197.000         132.000
 -27473766.97549 -21383723.91547  20321935.441    20321935.065    20321943.534
       237.000         201.000
 -15403130.69649 -11971967.25347  20032486.524    20032486.208    20032492.414
       239.000         205.000
   -745498.92149   -552475.37045  24739595.501    24739594.553    24739602.856
       211.000         136.000
 -18147844.91649 -14116715.75046  21575111.242    21575110.432    21575118.158
       230.000         185.000
   7926586.59449   6177904.94046  22521365.940    22521364.952    22521373.174
       218.000         179.000
 -12564726.66549  -9764284.73947  20997108.841    20997108.213    20997115.362
       241.000         206.000
 00  5  2 17 19 29.9980000  0  7G 2G24G 4G30G 5G 7G 9
   9102924.57649   7093869.64644  23605675.281    23605673.373    23605684.798
       195.000         128.000
 -27536763.12849 -21432811.78147  20309947.674    20309947.270    20309955.705
       237.000         201.000
 -15385794.31349 -11958458.38047  20035785.478    20035785.188    20035791.471
       239.000         205.000
   -855226.54549   -637977.43345  24718715.084    24718714.475    24718722.989
       206.000         144.000
 -18233900.23149 -14183771.82846  21558735.388    21558734.610    21558742.414
       230.000         186.000
   7981200.90749   6220461.45246  22531758.711    22531757.685    22531765.956
       222.000         179.000
 -12539671.96749  -9744761.63647  21001876.588    21001875.986    21001883.161
       241.000         206.000
 00  5  2 17 19 59.9980000  0  7G 2G24G 4G30G 5G 7G 9
   9178890.56149   7153063.65944  23620131.241    23620129.503    23620140.830
       196.000         127.000
 -27599202.37349 -21481465.69847  20298065.864    20298065.438    20298073.839
       238.000         200.000
 -15367836.60449 -11944465.37247  20039202.558    20039202.377    20039208.814
       238.000         204.000
   -964939.01749   -723467.52845  24697837.263    24697836.829    24697845.969
       199.000         133.000
 -18319720.04849 -14250644.39046  21542404.496    21542403.627    21542411.445
       231.000         186.000
   8035925.30849   6263103.79746  22542172.492    22542171.442    22542179.686
       227.000         178.000
 -12514033.17849  -9724783.39447  21006755.602    21006754.926    21006762.103
       241.000         206.000
 00  5  2 17 20 29.9980000  0  7G 2G24G 4G30G 5G 7G 9
   9255129.06649   7212470.03744  23634639.061    23634637.488    23634648.689
       195.000         124.000
 -27661098.30449 -21529696.25147  20286287.492    20286287.008    20286295.359
       237.000         200.000
 -15349273.49349 -11930000.61447  20042735.049    20042734.842    20042741.221
       239.000         204.000
  -1074649.13649   -808955.86745  24676960.439    24676959.795    24676969.222
       212.000         139.000
 -18405317.12849 -14317343.39346  21526115.946    21526115.068    21526122.860
       231.000         186.000
   8090745.08449   6305820.51346  22552604.476    22552603.359    22552611.488
       228.000         172.000
 -12487826.03449  -9704362.28147  21011742.724    21011742.007    21011749.221
       240.000         206.000
 00  5  2 17 20 59.9980000  0  7G 2G24G 4G30G 5G 7G 9
   9331659.78048   7272104.09944  23649202.480    23649201.025    23649212.171
       191.000         123.000
 -27722429.04849 -21577486.40147  20274616.501    20274616.091    20274624.447
       236.000         200.000
 -15330085.84849 -11915049.20647  20046386.407    20046386.149    20046392.520
       239.000         204.000
  -1184335.45949   -894425.88144  24656087.724    24656087.225    24656096.698
       213.000         128.000
 -18490668.95949 -14383851.29246  21509874.075    21509873.149    21509880.918
       231.000         186.000
   8145680.36349   6348627.25346  22563058.481    22563057.263    22563065.301
       227.000         170.000
 -12461031.64649  -9683483.57347  21016841.489    21016840.820    21016848.076
       240.000         206.000
 00  5  2 17 21 29.9980000  0  7G 2G24G 4G30G 5G 7G 9
   9408450.84948   7331941.06544  23663815.516    23663814.079    23663825.493
       191.000         115.000
 -27783224.31549 -21624859.30347  20263047.522    20263047.100    20263055.473
       236.000         200.000
 -15310306.10649 -11899636.43347  20050150.437    20050150.154    20050156.499
       239.000         205.000
  -1294027.77549   -979900.35544  24635213.786    24635213.386    24635222.575
       202.000         125.000
 -18575804.80249 -14450190.88846  21493673.223    21493672.322    21493680.066
       232.000         187.000
   8200699.87749   6391499.57146  22573528.502    22573527.239    22573535.200
       222.000         173.000
 -12433682.50549  -9662172.59447  21022045.848    21022045.199    21022052.477
       240.000         205.000
 00  5  2 17 21 59.9980000  0  7G 2G24G 4G30G 5G 7G 9
   9485500.21448   7391979.25344  23678477.805    23678476.025    23678487.949
       190.000         114.000
 -27843483.98949 -21671814.84847  20251580.558    20251580.035    20251588.385
       237.000         201.000
 -15289937.18749 -11883764.55847  20054026.622    20054026.286    20054032.556
       240.000         204.000
  -1403725.81749  -1065379.27845  24614339.074    24614338.545    24614347.665
       214.000         140.000
 -18660723.67049 -14516361.41646  21477513.701    21477512.771    21477520.506
       231.000         187.000
   8255802.15649   6434436.34346  22584014.052    22584012.865    22584020.865
       220.000         176.000
 -12405781.18749  -9640431.34147  21027355.269    21027354.643    21027361.945
       240.000         205.000
 00  5  2 17 22 29.9980000  0  7G 2G24G 4G30G 5G 7G 9
   9562828.30248   7452234.63144  23693193.053    23693191.504    23693203.161
       184.000         111.000
 -27903185.58049 -21718335.53947  20240219.595    20240219.157    20240227.484
       236.000         200.000
 -15268959.02849 -11867417.95547  20058018.495    20058018.250    20058024.524
       238.000         203.000
  -1513406.30749  -1150844.68445  24593467.692    24593467.142    24593476.051
       207.000         148.000
 -18745401.99849 -14582344.51446  21461399.932    21461399.008    21461406.743
       232.000         187.000
   8311008.16849   6477453.93346  22594519.387    22594518.244    22594526.292
       222.000         180.000
 -12377307.80549  -9618244.33647  21032773.528    21032772.959    21032780.271
       240.000         205.000
 00  5  2 17 22 59.9980000  0  7G 2G24G 4G30G 5G 7G 9
                   7512694.69954  23707958.252
       179.000         104.000
 -27962343.14549 -21764432.30047  20228962.197    20228961.785    20228970.186
       235.000         200.000
 -15247388.62049 -11850609.84147  20062123.145    20062122.928    20062129.206
       239.000         204.000
  -1623083.77249  -1236307.54345  24572596.463    24572596.045    24572605.151
       212.000         146.000
 -18829853.27349 -14648150.67246  21445329.309    21445328.438    21445336.197
       231.000         187.000
   8366302.36649   6520540.24346  22605041.518    22605040.391    22605048.525
       225.000         184.000
 -12348279.32049  -9595624.77547  21038297.456    21038296.904    21038304.212
       240.000         205.000
 00  5  2 17 23 29.9980000  0  7G 2G24G 4G30G 5G 7G 9
                   7573365.98054  23722775.116
       179.000          98.000
 -28020946.20849 -21810096.99247  20217810.206    20217809.912    20217818.418
       235.000         200.000
 -15225218.18149 -11833334.17047  20066342.130    20066341.877    20066348.057
       240.000         204.000
  -1732747.26849  -1321759.51345  24551728.019    24551727.877    24551737.250
       210.000         152.000
 -18914066.35449 -14713771.23346  21429304.146    21429303.215    21429310.965
       231.000         187.000
   8421693.77249   6563702.31546  22615582.236    22615581.088    22615589.265
       227.000         187.000
 -12318688.05449  -9572566.69147  21043928.520    21043927.950    21043935.261
       240.000         205.000
 00  5  2 17 23 59.9980000  0  7G 2G24G 4G30G 5G 7G 9
                   7634239.37754  23737641.211
       178.000          98.000
 -28079004.23949 -21855336.97947  20206762.101    20206761.778    20206770.353
       236.000         201.000
 -15202459.91949 -11815600.46147  20070672.868    20070672.645    20070678.802
       239.000         204.000
  -1842406.50049  -1407208.26744  24530860.644    24530860.484    24530869.800
       210.000         126.000
 -18998049.96049 -14779212.98547  21413322.636    21413321.655    21413329.397
       232.000         188.000
   8477171.20549   6606931.43646  22626139.325    22626138.148    22626146.368
       227.000         186.000
 -12288546.03849  -9549079.44947  21049664.479    21049663.826    21049671.104
       240.000         204.000
 00  5  2 17 24 29.9980000  0  7G 2G24G 4G30G 5G 7G 9
                     30273.60053  23752560.522
       169.000          74.000
 -28136494.06649 -21900134.21047  20195822.158    20195821.807    20195830.427
       236.000         201.000
 -15179093.29449 -11797392.71347  20075119.361    20075119.151    20075125.401
       239.000         204.000
  -1952037.58849  -1492635.23045  24509998.563    24509998.314    24510007.250
       207.000         145.000
 -19081779.88649 -14844457.06046  21397389.415    21397388.374    21397396.085
       232.000         187.000
   8532756.79349   6650244.82446  22636717.006    22636715.804    22636724.017
       226.000         183.000
 -12257832.78849  -9525147.08447  21055508.981    21055508.367    21055515.677
       240.000         204.000
 00  5  2 17 24 59.9980000  0  7G 2G24G 4G30G 5G 7G 9
                     91652.25453  23767532.948
       164.000          73.000
 -28193418.05249 -21944490.53747  20184990.056    20184989.566    20184998.121
       236.000         201.000
 -15155123.46449 -11778714.93847  20079680.585    20079680.432    20079686.721
       238.000         203.000
  -2061642.69349  -1578041.69945  24489141.483    24489141.137    24489150.296
       211.000         150.000
 -19165257.47149 -14909504.51347  21381504.055    21381503.108    21381510.813
       230.000         188.000
   8588446.64549   6693639.44446  22647314.454    22647313.277    22647321.527
       223.000         179.000
 -12226553.52149  -9500773.66947  21061461.205    21061460.622    21061467.977
       240.000         204.000
 00  5  2 17 25 29.9980000  0  7G 2G24G 4G30G 5G 7G 9
                    153260.75853  23782551.763
       164.000          70.000
 -28249803.95949 -21988427.58547  20174260.183    20174259.657    20174268.172
       236.000         201.000
 -15130581.11949 -11759591.03547  20084350.797    20084350.657    20084356.967
       238.000         203.000
  -2171249.19949  -1663449.25745  24468284.070    24468283.697    24468292.794
       214.000         143.000
 -19248509.71349 -14974376.35947  21365661.620    21365660.684    21365668.453
       231.000         188.000
   8644211.71049   6737092.69346  22657926.219    22657925.052    22657933.348
       222.000         175.000
 -12194738.63349  -9475982.87947  21067515.451    21067514.793    21067522.180
       240.000         204.000
 00  5  2 17 25 59.9980000  0  7G 2G24G 4G30G 5G 7G 9
                     26452.93553  23797624.885
       156.000          74.000
 -28305611.23949 -22031913.73947  20163640.510    20163639.894    20163648.406
       237.000         202.000
 -15105428.04149 -11739991.24947  20089137.188    20089137.100    20089143.506
       237.000         203.000
  -2280816.10449  -1748826.21245  24447434.533    24447433.966    24447442.351
       208.000         133.000
 -19331494.94549 -15039040.16047  21349869.889    21349869.094    21349876.851
       231.000         188.000
   8700091.12649   6780635.03846  22668559.814    22668558.622    22668566.927
       219.000         169.000
 -12162350.24349  -9450745.20647  21073678.854    21073678.123    21073685.503
       240.000         204.000
 00  5  2 17 26 29.9980000  0  6G24G 4G30G 5G 7G 9
 -28360860.16249 -22074964.82347  20153127.043    20153126.377    20153134.862
       237.000         202.000
 -15079687.20549 -11719933.45547  20094035.564    20094035.410    20094041.812
       237.000         203.000
  -2390363.26549  -1834187.55145  24426588.434    24426587.809    24426596.287
       212.000         147.000
 -19414232.25449 -15103510.76347  21334125.539    21334124.682    21334132.390
       232.000         189.000
   8756063.45949   6824249.78945  22679211.125    22679209.902    22679218.197
       215.000         162.000
 -12129411.41549  -9425078.62847  21079946.905    21079946.191    21079953.580
       240.000         204.000
 00  5  2 17 26 59.9980000  0  6G24G 4G30G 5G 7G 9
 -28415540.52749 -22117572.86947  20142721.722    20142721.070    20142729.457
       237.000         202.000
 -15053351.42749 -11699412.07947  20099047.146    20099046.938    20099053.373
       237.000         204.000
  -2499880.66749  -1919525.57045  24405747.983    24405747.233    24405756.053
       216.000         148.000
 -19496710.79149 -15167779.72947  21318430.410    21318429.513    21318437.183
       230.000         188.000
   8812137.43449   6867943.75345  22689881.665    22689880.459    22689888.779
       211.000         154.000
 -12095914.74949  -9398977.36847  21086321.033    21086320.388    21086327.798
       238.000         203.000
 00  5  2 17 27 29.9980000  0  6G24G 4G30G 5G 7G 9
 -28469676.33649 -22159756.58547  20132420.036    20132419.370    20132427.712
       237.000         202.000
 -15026447.46249 -11678447.96747  20104166.947    20104166.657    20104173.066
       240.000         205.000
  -2609391.28049  -2004858.61245  24384908.978    24384908.262    24384917.134
       219.000         143.000
 -19578953.51349 -15231864.93347  21302780.157    21302779.234    21302786.931
       231.000         189.000
   8868287.88149   6911697.28745  22700566.702    22700565.585    22700573.897
       207.000         147.000
 -12061886.81049  -9372462.13047  21092796.264    21092795.705    21092803.116
       240.000         204.000
 00  5  2 17 27 59.9980000  0  6G24G 4G30G 5G 7G 9
 -28523263.70449 -22201512.94447  20122222.622    20122222.012    20122230.367
       236.000         202.000
 -14998974.17549 -11657040.21347  20109395.045    20109394.706    20109401.108
       238.000         204.000
  -2718891.02849  -2090183.21545  24364071.235    24364071.131    24364079.982
       203.000         137.000
 -19660955.37849 -15295762.47147  21287175.745    21287174.782    21287182.507
       231.000         189.000
   8924517.42749   6955512.46745  22711266.901    22711265.805    22711274.082
       206.000         140.000
 -12027326.55549  -9345532.10247  21099373.016    21099372.345    21099379.768
       240.000         204.000
 00  5  2 17 28 29.9980000  0  6G24G 4G30G 5G 7G 9
 -28576282.07949 -22242825.93547  20112133.474    20112132.915    20112141.300
       236.000         201.000
 -14970913.54049 -11635174.79847  20114734.783    20114734.470    20114740.895
       238.000         204.000
  -2828358.93149  -2175482.67545  24343239.803    24343239.872    24343249.036
       217.000         152.000
 -19742694.90049 -15359455.57447  21271621.120    21271620.226    21271627.989
       230.000         190.000
   8980845.34049   6999404.26445  22721985.784    22721983.391    22721992.967
       200.000         134.000
 -11992216.23049  -9318173.44847  21106054.357    21106053.659    21106061.075
       240.000         204.000
 00  5  2 17 28 59.9980000  0  6G24G 4G30G 5G 7G 9
 -28628720.66449 -22283687.15047  20102154.729    20102154.170    20102162.554
       237.000         202.000
 -14942257.60249 -11612845.51747  20120187.902    20120187.532    20120193.916
       238.000         205.000
  -2937783.22449  -2260748.40245  24322417.245    24322417.155    24322426.584
       211.000         140.000
 -19824160.01349 -15422934.86647  21256118.690    21256117.881    21256125.690
       231.000         190.000
   9037281.36949   7043380.31844  22732725.213    22732723.230    22732732.241
       199.000         130.000
 -11956547.40849  -9290379.60147  21112841.871    21112841.236    21112848.668
       239.000         204.000
 00  5  2 17 29 29.9980000  0  6G24G 4G30G 5G 7G 9
 -28680595.28749 -22324108.90247  20092283.357    20092282.757    20092291.127
       237.000         201.000
 -14913024.73249 -11590066.66947  20125750.831    20125750.407    20125756.789
       239.000         205.000
  -3047179.60849  -2345992.36545  24301599.176    24301599.525    24301608.891
       206.000         138.000
 -19905365.45549 -15486211.81247  21240665.752    21240664.967    21240672.810
       231.000         190.000
   9093808.48648   7087427.35944  22743481.997    22743480.800    22743488.907
       194.000         124.000
 -11920338.76149  -9262165.12147  21119732.138    21119731.532    21119738.998
       239.000         204.000
 00  5  2 17 29 59.9980000  0  6G24G 4G30G 5G 7G 9
 -28731921.96049 -22364103.68647  20082516.224    20082515.606    20082523.938
       239.000         202.000
 -14883233.73049 -11566852.91447  20131419.888    20131419.470    20131425.818
       238.000         204.000
  -3156563.20349  -2431226.26745  24280784.324    24280784.540    24280794.119
       218.000         159.000
 -19986326.21149 -15549298.09447  21225259.443    21225258.607    21225266.492
       230.000         190.000
   9150409.46848   7131531.96344  22754252.960    22754251.670    22754259.934
       193.000         121.000
 -11883608.89849  -9233544.50047  21126721.660    21126721.039    21126728.512
       241.000         204.000
 00  5  2 17 30 29.9980000  0  6G24G 4G30G 5G 7G 9
 -28782678.64549 -22403654.32147  20072857.578    20072856.931    20072865.205
       239.000         202.000
 -14852865.12549 -11543189.07647  20137198.848    20137198.437    20137204.745
       239.000         205.000
  -3265911.17749  -2516432.39245  24259976.558    24259976.370    24259985.982
       198.000         142.000
 -20067018.79749 -15612175.41547  21209904.009    21209903.273    21209911.197
       231.000         191.000
   9207105.54848   7175710.67644  22765042.065    22765040.714    22765048.319
       186.000         115.000
 -11846338.26049  -9204502.48547  21133814.183    21133813.471    21133820.951
       241.000         205.000
 00  5  2 17 30 59.9980000  0  6G24G 4G30G 5G 7G 9
 -28832879.24349 -22442771.64547  20063304.687    20063304.084    20063312.330
       239.000         202.000
 -14821935.76649 -11519088.29747  20143084.522    20143084.115    20143090.384
       239.000         205.000
  -3375237.34049  -2601621.59845  24239172.348    24239172.165    24239181.705
       215.000         140.000
 -20147455.99449 -15674853.72647  21194597.306    21194596.547    21194604.535
       232.000         191.000
   9263881.68748   7219951.78044  22775846.338    22775842.940    22775856.067
       183.000         108.000
 -11808543.68949  -9175052.20747  21141006.299    21141005.613    21141013.091
       240.000         205.000
 00  5  2 17 31 29.9980000  0  6G24G 4G30G 5G 7G 9
 -28882504.44949 -22481440.61247  20053861.302    20053860.698    20053868.924
       238.000         202.000
 -14790428.98649 -11494537.56947  20149080.124    20149079.690    20149085.896
       238.000         204.000
  -3484520.92649  -2686777.64245  24218376.567    24218376.194    24218385.711
       208.000         151.000
 -20227617.46649 -15737317.19747  21179343.149    21179342.314    21179350.297
       232.000         191.000
                   7264269.33054  22786669.363
       182.000         103.000
 -11770208.80049  -9145180.91047  21148301.255    21148300.544    21148308.024
       240.000         205.000
 00  5  2 17 31 59.9980000  0  6G24G 4G30G 5G 7G 9
 -28931554.07449 -22519661.07447  20044527.442    20044526.856    20044535.081
       239.000         202.000
 -14758347.26649 -11469538.84747  20155184.945    20155184.590    20155190.769
       238.000         204.000
  -3593761.59749  -2771900.11445  24197588.613    24197588.251    24197597.815
       207.000         141.000
 -20307501.69949 -15799564.63047  21164141.739    21164140.862    21164148.818
       232.000         192.000
                   7308662.76044  22797510.418
       181.000          97.000
 -11731335.82349  -9114890.32047  21155698.687    21155697.881    21155705.348
       241.000         204.000
 00  5  2 17 32 29.9980000  0  6G24G 4G30G 5G 7G 9
 -28980034.37149 -22557437.91347  20035302.042    20035301.386    20035309.604
       239.000         203.000
 -14725699.35549 -11444098.93247  20161397.552    20161397.238    20161403.466
       237.000         203.000
  -3702964.72149  -2856993.49045  24176807.896    24176807.572    24176816.922
       213.000         142.000
 -20387113.54049 -15861599.80847  21148992.145    21148991.224    21148999.190
       232.000         192.000
                   7353126.46944  22808369.196
       176.000          97.000
 -11691933.70849  -9084187.41947  21163196.643    21163195.895    21163203.372
       240.000         204.000
 00  5  2 17 32 59.9980000  0  6G24G 4G30G 5G 7G 9
 -29027949.65449 -22594774.47847  20026184.027    20026183.403    20026191.592
       238.000         202.000
 -14692492.41349 -11418223.42447  20167716.598    20167716.287    20167722.603
       239.000         205.000
  -3812133.81349  -2942060.31145  24156033.927    24156033.360    24156042.396
       207.000         146.000
 -20466455.99549 -15923425.08447  21133893.784    21133892.872    21133900.798
       232.000         193.000
                     11666.20153  22819243.857
       181.000          74.000
 -11652009.63849  -9053077.79547  21170794.084    21170793.245    21170800.731
       241.000         205.000
 00  5  2 17 33 29.9980000  0  6G24G 4G30G 5G 7G 9
 -29075311.64149 -22631679.90147  20017171.287    20017170.721    20017178.854
       239.000         202.000
 -14658740.76549 -11391923.45547  20174139.390    20174139.040    20174145.373
       238.000         205.000
  -3921279.72749  -3027108.93045  24135264.169    24135263.578    24135272.879
       214.000         154.000
 -20545539.53149 -15985048.59747  21118844.898    21118843.806    21118851.675
       233.000         193.000
                     56205.06153  22830132.187
       176.000          84.000
 -11611578.09649  -9021572.74247  21178488.118    21178487.169    21178494.680
       241.000         205.000
 00  5  2 17 33 59.9980000  0  7G24G 4G30G 5G 7G 9G10
 -29122104.68849 -22668141.99847  20008266.962    20008266.315    20008274.357
       238.000         202.000
 -14624431.41449 -11365188.91747  20180668.470    20180667.998    20180674.309
       241.000         205.000
  -4030385.96449  -3112126.76245  24114501.799    24114501.368    24114510.872
       207.000         139.000
 -20624347.14149 -16046457.10047  21103848.296    21103847.232    21103855.079
       232.000         193.000
                    100746.00153  22841037.267
       175.000          69.000
 -11570626.06049  -8989662.10747  21186281.044    21186280.142    21186287.653
       239.000         204.000
   -201556.89853                  24602977.965
       199.000          88.000
 00  5  2 17 34 29.9980000  0  7G24G 4G30G 5G 7G 9G10
 -29168309.56949 -22704145.78047  19999474.417    19999473.809    19999481.804
       238.000         201.000
 -14589547.93149 -11338006.99547  20187306.725    20187306.198    20187312.381
       240.000         203.000
  -4139432.78249  -3197098.34245  24093750.885    24093750.406    24093759.666
       217.000         142.000
 -20702858.08449 -16107634.44047  21088908.182    21088907.121    21088914.956
       234.000         194.000
                      8729.01953  22851962.214
       161.000          74.000
 -11529136.70449  -8957332.79147  21194176.182    21194175.333    21194182.886
       240.000         205.000
    -32384.23543                  24582953.749
       197.000          74.000
 00  5  2 17 34 59.9980000  0  7G24G 4G30G 5G 7G 9G10
 -29213953.31549 -22739712.31547  19990788.815    19990788.096    19990796.077
       239.000         202.000
 -14554119.65549 -11310400.55147  20194048.281    20194047.902    20194054.126
       238.000         204.000
  -4248445.80549  -3282043.46745  24073006.207    24073005.885    24073015.169
       217.000         148.000
 -20781097.95149 -16168600.54447  21074019.650    21074018.594    21074026.389
       233.000         193.000
                     53544.11453  22862902.136
       173.000          79.000
 -11487139.64249  -8924607.86047  21202168.046    21202167.155    21202174.728
       241.000         205.000
   -114462.40043                  24562910.176
       200.000          90.000
 00  5  2 17 35 29.9980000  0  7G24G 4G30G 5G 7G 9G10
 -29259033.39249 -22774839.63147  19982210.502    19982209.692    19982217.600
       239.000         202.000
 -14518146.98749 -11282369.92447  20200893.528    20200893.229    20200899.559
       239.000         205.000
  -4357421.71949  -3366959.69745  24052268.824    24052268.458    24052277.767
       210.000         146.000
 -20859062.81349 -16229352.37247  21059183.365    21059182.372    21059190.146
       233.000         194.000
                     98454.76853  22873857.320
       165.000          85.000
 -11444635.28549  -8891487.62847  21210256.441    21210255.504    21210263.079
       240.000         205.000
   -196618.94243                  24542848.024
       199.000          88.000
 00  5  2 17 35 59.9980000  0  7G24G 4G30G 5G 7G 9G10
 -29303545.49149 -22809524.36447  19973740.102    19973739.314    19973747.204
       237.000         201.000
 -14481628.13049 -11253913.69547  20207842.729    20207842.492    20207848.950
       238.000         205.000
  -4466355.36549  -3451842.96145  24031539.244    24031538.911    24031548.390
       215.000         135.000
 -20936746.75849 -16289885.29647  21044400.527    21044399.606    21044407.374
       233.000         194.000
                      4271.48953  22884827.692
       151.000          74.000
 -11401621.75549  -8857970.64847  21218441.661    21218440.734    21218448.342
       240.000         204.000
    -26979.25743                  24522768.745
       205.000          74.000
 00  5  2 17 36 29.9980000  0  6G24G 4G30G 5G 9G10
 -29347491.54749 -22843768.02447  19965377.241    19965376.596    19965384.512
       236.000         201.000
 -14444567.84649 -11225035.57447  20214895.071    20214894.837    20214901.318
       240.000         205.000
  -4575247.45949  -3536694.05445  24010818.001    24010817.561    24010826.507
       214.000         147.000
 -21014150.43549 -16350199.83247  21029671.199    21029670.187    21029677.946
       233.000         194.000
 -11358103.74049  -8824060.56147  21226722.847    21226721.961    21226729.627
       241.000         204.000
   -109272.37943                  24502671.935
       205.000          79.000
 00  5  2 17 36 59.9980000  0  6G24G 4G30G 5G 9G10
 -29390863.00249 -22877563.94647  19957123.886    19957123.271    19957131.167
       237.000         201.000
 -14406959.89849 -11195730.69447  20222051.732    20222051.433    20222057.859
       241.000         205.000
  -4684088.44649  -3621505.07545  23990106.123    23990105.897    23990115.004
       207.000         148.000
 -21091263.90849 -16410288.23247  21014997.020    21014995.973    21015003.701
       233.000         194.000
 -11314075.37949  -8789752.80047  21235101.269    21235100.338    21235108.026
       240.000         204.000
   -191629.28543                  24482559.948
       196.000          83.000
 00  5  2 17 37 29.9980000  0  6G24G 4G30G 5G 9G10
 -29433670.97249 -22910920.78747  19948977.730    19948977.135    19948985.066
       236.000         201.000
 -14368818.27749 -11166009.97547  20229309.767    20229309.502    20229315.948
       239.000         204.000
  -4792888.29049  -3706284.05745  23969402.313    23969401.926    23969411.193
       217.000         142.000
 -21168096.68649 -16470157.91347  21000376.191    21000375.171    21000382.909
       233.000         194.000
 -11269550.30249  -8755057.98647  21243574.088    21243573.212    21243580.920
       239.000         204.000
    -18828.11243                  24462431.153
       200.000          74.000
 00  5  2 17 37 59.9980000  0  6G24G 4G30G 5G 9G10
 -29475916.85649 -22943839.64047  19940938.547    19940937.989    19940945.965
       237.000         201.000
 -14330146.93549 -11135876.46547  20236668.880    20236668.522    20236674.858
       241.000         206.000
  -4901647.35249  -3791031.51645  23948706.219    23948705.913    23948714.872
       213.000         147.000
 -21244648.62149 -16529808.75147  20985808.861    20985807.806    20985815.547
       234.000         194.000
 -11224532.62949  -8719979.33447  21252140.650    21252139.827    21252147.532
       239.000         203.000
   -101321.96744                  24442285.026
       204.000         116.000
 00  5  2 17 38 29.9980000  0  6G24G 4G30G 5G 9G10
 -29517569.98349 -22976296.60347  19933012.155    19933011.619    19933019.627
       236.000         201.000
 -14290917.85449 -11105308.37947  20244134.064    20244133.632    20244140.020
       239.000         205.000
  -5010334.04249  -3875722.23145  23928023.919    23928023.518    23928032.785
       213.000         153.000
 -21320887.32549 -16589215.51247  20971301.034    20971300.030    20971307.781
       233.000         194.000
 -11178994.38149  -8684495.03647  21260806.270    21260805.501    21260813.199
       239.000         203.000
   -183858.55943                  24422128.619
       205.000          84.000
 00  5  2 17 38 59.9980000  0  6G24G 4G30G 5G 9G10
 -29558662.76649 -23008316.93647  19925192.441    19925191.885    19925199.945
       237.000         201.000
 -14251165.80249 -11074332.76947  20251698.618    20251698.215    20251704.524
       240.000         204.000
  -5118979.56849  -3960381.10345  23907349.710    23907349.123    23907358.254
       215.000         145.000
 -21396843.52449 -16648402.14147  20956847.019    20956846.034    20956853.760
       233.000         194.000
 -11132970.56049  -8648632.37347  21269564.277    21269563.562    21269571.294
       238.000         203.000
    -10607.86143                  24401956.132
       198.000          74.000
 00  5  2 17 39 29.9980000  0  6G24G 4G30G 5G 9G10
 -29599192.76149 -23039898.73447  19917479.867    19917479.268    19917487.312
       236.000         200.000
 -14210891.05049 -11042949.85747  20259362.757    20259362.309    20259368.525
       240.000         205.000
  -5227580.22049  -4045004.96745  23886683.605    23886683.068    23886692.065
       216.000         147.000
 -21472513.09149 -16707365.42247  20942447.576    20942446.585    20942454.317
       235.000         195.000
 -11086461.24949  -8612391.41247  21278414.674    21278414.004    21278421.756
       239.000         203.000
    -93273.44044                  24381768.066
       197.000         114.000
 00  5  2 17 39 59.9980000  0  6G24G 4G30G 5G 9G10
 -29639151.23849 -23071035.19547  19909876.094    19909875.437    19909883.461
       237.000         200.000
 -14170087.53349 -11011154.93147  20267127.421    20267126.961    20267133.244
       239.000         205.000
  -5336125.99649  -4129585.96845  23866027.870    23866027.415    23866036.631
       215.000         157.000
 -21547885.71149 -16766097.31847  20928104.701    20928103.680    20928111.363
       234.000         195.000
 -11039460.48349  -8575767.50047  21287358.761    21287357.978    21287365.752
       240.000         203.000
   -175993.38244                  24361566.495
       193.000         127.000
 00  5  2 17 40 29.9980000  0  6G24G 4G30G 5G 9G10
 -29678543.07649 -23101730.12047  19902380.073    19902379.407    19902387.427
       236.000         200.000
 -14128762.48949 -10978953.63047  20274991.125    20274990.783    20274997.111
       238.000         203.000
  -5444620.39549  -4214127.03745  23845381.931    23845381.567    23845390.674
       212.000         144.000
 -21622964.73949 -16824600.43747  20913817.680    20913816.629    20913824.288
       234.000         196.000
 -10991975.70249  -8538766.43147  21296394.811    21296394.066    21296401.863
       240.000         202.000
  -1667696.92249   -258769.75644  24341351.479    24341350.090    24341368.338
       199.000         130.000
 00  5  2 17 40 59.9980000  0  6G24G 4G30G 5G 9G10
 -29717351.42349 -23131970.37247  19894995.041    19894994.409    19895002.410
       236.000         199.000
 -14086901.64249 -10946334.80247  20282956.941    20282956.624    20282962.973
       239.000         205.000
  -5553045.30349  -4298613.94445  23824748.799    23824748.781    23824757.796
       214.000         149.000
 -21697731.45249 -16882860.19147  20899589.951    20899588.980    20899596.638
       234.000         196.000
 -10943992.19349  -8501376.73447  21305525.878    21305525.081    21305532.856
       240.000         202.000
  -1773979.76548   -341587.13344  24321125.931    24321123.756    24321143.062
       192.000         127.000
 00  5  2 17 41 29.9980000  0  6G24G 4G30G 5G 9G10
 -29755600.79149 -23161775.06147  19887716.425    19887715.779    19887723.766
       236.000         200.000
 -14044532.10249 -10913319.60147  20291019.698    20291019.309    20291025.663
       240.000         205.000
  -5661423.89049  -4383064.74645  23804125.171    23804125.087    23804134.086
       219.000         158.000
 -21772208.76449 -16940894.43747  20885417.464    20885416.427    20885424.055
       234.000         195.000
 -10895537.36449  -8463619.78847  21314746.555    21314745.748    21314753.564
       239.000         201.000
  -1880337.77358   -424463.07754  24300886.268    24300884.709    24300903.675
       190.000         128.000
 00  5  2 17 41 59.9980000  0  6G24G 4G30G 5G 9G10
 -29793277.21749 -23191133.30047  19880546.861    19880546.215    19880554.181
       236.000         200.000
 -14001642.64649 -10879899.26547  20299181.354    20299180.954    20299187.215
       239.000         204.000
  -5769741.28849  -4467467.79845  23783512.781    23783512.769    23783521.929
       214.000         142.000
 -21846381.00849 -16998690.97847  20871302.927    20871301.885    20871309.521
       233.000         195.000
 -10846600.01149  -8425486.84947  21324059.079    21324058.248    21324066.091
       239.000         201.000
  -1986754.88948   -507385.08044  24280635.522    24280634.032    24280652.644
       191.000         123.000
 00  5  2 17 42 29.9980000  0  6G24G 4G30G 5G 9G10
 -29830380.39649 -23220044.85447  19873486.326    19873485.725    19873493.694
       235.000         200.000
 -13958235.26549 -10846075.34847  20307441.496    20307441.107    20307447.362
       239.000         205.000
  -5877995.22349  -4551821.54345  23762913.001    23762912.819    23762921.790
       218.000         156.000
 -21920245.71949 -17056247.88047  20857246.807    20857245.872    20857253.493
       233.000         195.000
 -10797182.12849  -8386979.46647  21333463.067    21333462.199    21333470.041
       238.000         201.000
  -2093227.77358   -590350.53254  24260374.083    24260372.437    24260391.017
       181.000         120.000
 00  5  2 17 42 59.9980000  0  6G24G 4G30G 5G 9G10
 -29866926.60749 -23248522.40347  19866531.824    19866531.197    19866539.169
       235.000         200.000
 -13914328.68849 -10811862.46247  20315796.566    20315796.227    20315802.553
       238.000         204.000
  -5986200.80249  -4636137.45945  23742322.158    23742321.905    23742331.050
       211.000         151.000
 -21993817.46549 -17113576.49947  20843246.545    20843245.590    20843253.234
       234.000         195.000
 -10747302.57949  -8348112.34947  21342954.863    21342954.007    21342961.836
       238.000         201.000
  -2199770.39058   -673370.28554  24240098.870    24240097.435    24240116.498
       185.000         123.000
 00  5  2 17 43 29.9980000  0  6G24G 4G30G 5G 9G10
 -29902898.76749 -23276552.64747  19859686.502    19859685.917    19859693.922
       236.000         200.000
 -13869908.31849 -10777249.20447  20324249.486    20324249.173    20324255.493
       238.000         205.000
  -6094339.42149  -4720401.22645  23721744.048    23721743.688    23721752.966
       218.000         147.000
 -22067077.38149 -17170662.13347  20829305.597    20829304.674    20829312.304
       233.000         195.000
 -10696946.89249  -8308874.22047  21352537.161    21352536.411    21352544.259
       239.000         200.000
  -2306362.83148   -756428.90544  24219814.949    24219813.291    24219832.730
       190.000         123.000
 00  5  2 17 43 59.9980000  0  6G24G 4G30G 5G 9G10
 -29938296.37449 -23304135.18247  19852950.598    19852950.006    19852957.975
       235.000         200.000
 -13824976.44349 -10742237.36847  20332799.856    20332799.466    20332805.821
       240.000         205.000
  -6202409.21749  -4804611.49945  23701179.168    23701178.734    23701187.718
       210.000         152.000
 -22140023.17149 -17227502.98647  20815424.495    20815423.528    20815431.157
       234.000         195.000
 -10646117.39749  -8269266.88047  21362209.790    21362208.983    21362216.870
       238.000         201.000
  -2413002.35948   -839524.23744  24199521.660    24199520.272    24199539.968
       192.000         125.000
 00  5  2 17 44 29.9980000  0  6G24G 4G30G 5G 9G10
 -29973122.53249 -23331272.42547  19846323.556    19846322.818    19846330.772
       235.000         200.000
 -13779538.53849 -10706831.22947  20341446.419    20341446.023    20341452.470
       240.000         205.000
  -6310411.80349  -4888769.20445  23680626.769    23680626.462    23680635.744
       217.000         158.000
 -22212656.21949 -17284100.15447  20801602.918    20801601.906    20801609.537
       234.000         195.000
 -10594819.59349  -8229294.63047  21371971.491    21371970.667    21371978.599
       238.000         200.000
  -2519689.30748   -922656.48544  24179219.735    24179218.332    24179237.822
       192.000         128.000
 00  5  2 17 44 59.9980000  0  6G24G 4G30G 5G 9G10
 -30007365.38149 -23357955.15247  19839807.296    19839806.593    19839814.571
       235.000         199.000
 -13733585.21649 -10671023.46547  20350191.050    20350190.653    20350197.063
       239.000         204.000
  -6418333.50449  -4972864.06045  23660090.045    23660089.673    23660098.885
       216.000         146.000
 -22284962.65849 -17340442.81747  20787843.437    20787842.452    20787850.066
       234.000         195.000
 -10543044.04249  -8188950.11147  21381824.190    21381823.276    21381831.239
       238.000         200.000
  -2626409.32348  -1005814.51244  24158911.206    24158910.072    24158929.257
       184.000         127.000
 00  5  2 17 45 29.9980000  0  6G24G 4G30G 5G 9G10
 -30041041.41349 -23384196.20147  19833399.010    19833398.235    19833406.247
       235.000         199.000
 -13687135.16749 -10634828.66447  20359030.194    20359029.791    20359036.224
       241.000         205.000
  -6526189.49649  -5056907.59745  23639565.780    23639565.263    23639574.554
       218.000         157.000
 -22356956.90349 -17396542.21547  20774143.483    20774142.417    20774150.013
       234.000         195.000
 -10490809.47349  -8148247.91447  21391764.074    21391763.221    21391771.210
       238.000         199.000
  -2733176.17248  -1089009.02644  24138593.712    24138592.784    24138612.112
       192.000         128.000
 00  5  2 17 45 59.9980000  0  6G24G 4G30G 5G 9G10
 -30074134.07049 -23409982.66847  19827101.758    19827100.924    19827108.906
       236.000         199.000
 -13640174.60149 -10598236.02547  20367966.665    20367966.167    20367972.442
       241.000         203.000
  -6633961.61249  -5140885.82545  23619057.314    23619056.951    23619066.207
       210.000         153.000
 -22428620.25849 -17452383.77947  20760506.420    20760505.331    20760512.921
       234.000         194.000
 -10438102.12849  -8107177.32547  21401793.906    21401793.121    21401801.171
       237.000         200.000
  -2839970.83349  -1172225.24444  24118271.261    24118270.308    24118289.390
       200.000         127.000
 00  5  2 17 46 29.9980000  0  6G24G 4G30G 5G 9G10
 -30106670.38149 -23435335.62847  19820910.186    19820909.458    19820917.415
       234.000         198.000
 -13592732.89249 -10561268.47847  20376994.547    20376994.053    20377000.248
       240.000         204.000
  -6741675.14149  -5224818.40045  23598560.104    23598559.623    23598568.702
       217.000         147.000
 -22499978.04849 -17507987.23147  20746927.526    20746926.381    20746933.951
       235.000         195.000
 -10384951.51649  -8065761.32947  21411908.156    21411907.373    21411915.479
       238.000         200.000
  -2946817.37549  -1255481.92545  24097938.894    24097938.094    24097956.967
       196.000         132.000
 00  5  2 17 46 59.9980000  0  6G24G 4G30G 5G 9G10
 -30138632.03949 -23460240.79547  19814828.066    19814827.350    19814835.291
       234.000         198.000
 -13544794.06349 -10523913.55947  20386117.125    20386116.566    20386122.756
       241.000         204.000
  -6849310.06149  -5308689.73045  23578077.874    23578077.366    23578086.453
       219.000         160.000
 -22571010.08849 -17563336.85647  20733410.560    20733409.410    20733416.987
       234.000         194.000
 -10331341.81949  -8023987.61047  21422109.832    21422108.990    21422117.134
       238.000         200.000
  -3053694.87849  -1338762.66644  24077600.425    24077599.750    24077618.629
       200.000         129.000
 00  5  2 17 47 29.9980000  0  6G24G 4G30G 5G 9G10
 -30170007.40749 -23484689.12947  19808857.444    19808856.795    19808864.737
       234.000         197.000
 -13496348.94949 -10486164.15347  20395335.827    20395335.315    20395341.590
       239.000         203.000
  -6956852.84149  -5392489.20145  23557613.031    23557612.621    23557621.877
       213.000         150.000
 -22641702.55949 -17618421.89047  20719958.155    20719957.037    20719964.606
       234.000         194.000
 -10277263.83349  -7981848.98947  21432400.635    21432399.744    21432407.891
       238.000         200.000
  -3160588.48548  -1422056.02044  24057259.099    24057258.358    24057277.054
       192.000         130.000
 00  5  2 17 47 59.9980000  0  6G24G 4G30G 5G 9G10
 -30200817.58449 -23508697.04247  19802994.440    19802993.807    19803001.728
       234.000         197.000
 -13447421.04949 -10448038.53847  20404646.638    20404646.063    20404652.346
       240.000         206.000
  -7064323.10649  -5476232.29945  23537161.976    23537161.633    23537170.691
       219.000         155.000
 -22712074.43949 -17673257.10347  20706566.677    20706565.660    20706573.229
       233.000         194.000
 -10222740.95849  -7939363.70647  21442775.997    21442775.143    21442783.323
       237.000         199.000
  -3267516.29449  -1505375.98244  24036910.860    24036910.303    24036928.996
       199.000         128.000
 00  5  2 17 48 29.9980000  0  6G24G 4G30G 5G 9G10
 -30231062.85249 -23532264.76947  19797238.952    19797238.297    19797246.233
       233.000         196.000
 -13398013.03249 -10409538.80547  20414048.755    20414048.132    20414054.497
       240.000         205.000
  -7171719.61349  -5559917.77045  23516725.197    23516724.736    23516733.992
       217.000         158.000
 -22782123.88249 -17727841.07547  20693236.690    20693235.652    20693243.239
       233.000         195.000
 -10167776.18949  -7896534.08447  21453235.560    21453234.638    21453242.864
       237.000         199.000
  -3374476.05149  -1588720.85844  24016556.920    24016556.245    24016574.792
       198.000         129.000
 00  5  2 17 48 59.9980000  0  6G24G 4G30G 5G 9G10
 -30260751.32349 -23555398.62847  19791589.432    19791588.751    19791596.674
       233.000         196.000
 -13348135.61449 -10370673.30447  20423540.125    20423539.542    20423545.921
       241.000         205.000
  -7279048.51549  -5643550.65445  23496300.820    23496300.674    23496309.947
       215.000         152.000
 -22851857.32749 -17782178.80047  20679966.824    20679965.804    20679973.404
       234.000         195.000
 -10112380.40049  -7853368.60747  21463777.069    21463776.155    21463784.398
       237.000         199.000
  -3481473.43549  -1672095.02545  23996195.359    23996194.909    23996213.348
       195.000         132.000
 00  5  2 17 49 29.9980000  0  6G24G 4G30G 5G 9G10
 -30289884.77749 -23578100.00847  19786045.472    19786044.830    19786052.729
       232.000         196.000
 -13297792.50549 -10331444.92247  20433120.023    20433119.507    20433125.938
       240.000         204.000
  -7386309.44549  -5727130.54845  23475889.614    23475889.478    23475898.694
       216.000         155.000
 -22921274.05449 -17836269.74047  20666757.280    20666756.250    20666763.828
       236.000         196.000
 -10056556.98049  -7809869.90647  21474400.009    21474399.057    21474407.331
       237.000         198.000
  -3588506.70049  -1755497.21045  23975827.363    23975826.889    23975845.208
       201.000         133.000
 00  5  2 17 49 59.9980000  0  6G24G 4G30G 5G 9G10
 -30318470.63249 -23600374.68747  19780605.820    19780605.099    19780612.974
       231.000         195.000
 -13246993.78449 -10291861.52547  20442786.591    20442786.159    20442792.619
       239.000         203.000
  -7493508.11949  -5810661.93245  23455490.443    23455490.314    23455499.503
       217.000         157.000
 -22990379.40749 -17890118.05747  20653607.035    20653605.956    20653613.525
       233.000         195.000
 -10000316.38349  -7766046.14047  21485102.218    21485101.313    21485109.622
       236.000         197.000
  -3695580.54149  -1838930.98645  23955451.939    23955451.345    23955469.400
       200.000         136.000
 00  5  2 17 50 29.9980000  0  6G24G 4G30G 5G 9G10
 -30346506.61449 -23622220.90047  19775270.653    19775270.022    19775277.863
       231.000         196.000
 -13195739.47749 -10251923.12047  20452540.011    20452539.564    20452546.004
       239.000         203.000
  -7600640.41049  -5894141.55745  23435103.891    23435103.618    23435112.801
       220.000         157.000
 -23059168.96649 -17943720.29047  20640516.876    20640515.736    20640523.307
       235.000         196.000
  -9943658.70449  -7721897.37147  21495883.841    21495882.969    21495891.282
       237.000         198.000
  -3802689.80849  -1922392.34745  23935069.386    23935068.917    23935086.889
       196.000         138.000
 00  5  2 17 50 59.9980000  0  6G24G 4G30G 5G 9G10
 -30373987.47649 -23643634.54247  19770041.240    19770040.561    19770048.397
       231.000         196.000
 -13144026.59449 -10211627.37647  20462380.705    20462380.227    20462386.556
       239.000         203.000
  -7707699.09449  -5977563.86746  23414731.659    23414731.165    23414740.317
       219.000         163.000
 -23127635.13549 -17997070.53647  20627488.205    20627487.078    20627494.598
       234.000         196.000
  -9886580.99549  -7677421.31447  21506745.394    21506744.546    21506752.878
       237.000         198.000
  -3909825.83849  -2005874.58445  23914681.907    23914681.403    23914699.381
       200.000         137.000
 00  5  2 17 51 29.9980000  0  6G24G 4G30G 5G 9G10
 -30400911.50649 -23664614.29547  19764917.729    19764917.073    19764924.865
       231.000         196.000
 -13091855.80449 -10170974.85047  20472308.559    20472308.056    20472314.392
       240.000         203.000
  -7814680.77749  -6060926.14245  23394373.580    23394373.152    23394382.421
       217.000         155.000
 -23195774.33149 -18050166.00147  20614521.735    20614520.643    20614528.132
       235.000         196.000
  -9829084.17949  -7632618.67847  21517686.758    21517685.884    21517694.232
       237.000         198.000
  -4016984.32449  -2089374.33445  23894289.732    23894289.399    23894307.582
       197.000         135.000
 00  5  2 17 51 59.9980000  0  6G24G 4G30G 5G 9G10
 -30427275.72449 -23685157.83447  19759900.821    19759900.138    19759907.919
       231.000         197.000
 -13039226.47749 -10129965.00847  20482323.656    20482323.122    20482329.453
       241.000         204.000
  -7921580.31549  -6144224.46645  23374031.208    23374030.845    23374040.019
       220.000         159.000
 -23263581.17349 -18103002.48947  20601618.479    20601617.422    20601624.909
       234.000         196.000
  -9771167.44449  -7587488.84047  21528708.095    21528707.154    21528715.483
       237.000         198.000
  -4124159.28649  -2172886.90145  23873894.759    23873894.297    23873912.591
       199.000         137.000
 00  5  2 17 52 29.9980000  0  6G24G 4G30G 5G 9G10
 -30453107.89849 -23705286.78847  19754985.080    19754984.419    19754992.219
       231.000         196.000
 -12986168.52449 -10088621.17547  20492420.300    20492419.751    20492426.094
       239.000         204.000
  -8028423.47749  -6227478.76545  23353699.788    23353699.272    23353708.525
       219.000         159.000
 -23331081.23949 -18155599.92947  20588773.636    20588772.591    20588780.045
       235.000         196.000
  -9712861.03949  -7542055.35347  21539803.455    21539802.566    21539810.892
       237.000         197.000
  -4231375.10148  -2256431.35845  23853491.981    23853491.460    23853509.920
       193.000         135.000
 00  5  2 17 52 59.9980000  0  6G24G 4G30G 5G 9G10
 -30478379.21749 -23724978.71247  19750176.078    19750175.435    19750183.257
       231.000         196.000
 -12932655.49249 -10046922.72847  20502603.445    20502602.940    20502609.239
       239.000         201.000
  -8135179.35849  -6310665.11945  23333384.698    23333384.283    23333393.494
       222.000         160.000
 -23398243.36749 -18207934.04647  20575993.114    20575992.073    20575999.464
       235.000         196.000
  -9654138.43249  -7496297.56147  21550978.040    21550977.163    21550985.482
       236.000         197.000
  -4338600.39249  -2339983.13345  23833087.749    23833087.011    23833105.238
       204.000         141.000
 00  5  2 17 53 29.9980000  0  6G24G 4G30G 5G 9G10
 -30503090.76149 -23744234.45347  19745473.712    19745472.992    19745480.809
       230.000         197.000
 -12878690.59849 -10004872.20347  20512872.515    20512872.093    20512878.480
       240.000         204.000
  -8241846.86149  -6393782.60445  23313086.525    23313086.095    23313095.217
       217.000         160.000
 -23465066.28949 -18260003.84147  20563277.152    20563276.078    20563283.429
       234.000         196.000
  -9595003.05049  -7450218.12747  21562231.207    21562230.330    21562238.626
       237.000         197.000
  -4445832.52349  -2423540.26045  23812681.641    23812681.121    23812699.252
       200.000         136.000
 00  5  2 17 53 59.9980000  0  6G24G 4G30G 5G 9G10
 -30527230.49849 -23763044.62147  19740880.168    19740879.374    19740887.198
       231.000         197.000
 -12824264.18249  -9962462.01247  20523229.584    20523229.130    20523235.444
       238.000         202.000
  -8348412.09449  -6476820.36845  23292807.558    23292807.315    23292816.424
       219.000         159.000
 -23531535.82949 -18311798.27347  20550628.351    20550627.339    20550634.645
       234.000         196.000
  -9535445.33749  -7403809.60147  21573564.733    21573563.846    21573572.156
       236.000         196.000
  -4553056.32249  -2507090.92945  23792277.447    23792276.835    23792294.917
       197.000         138.000
 00  5  2 17 54 29.9980000  0  6G24G 4G30G 5G 9G10
 -30550829.25449 -23781433.25447  19736389.445    19736388.704    19736396.527
       231.000         197.000
 -12769409.21549  -9919717.90547  20533668.149    20533667.709    20533673.992
       240.000         203.000
  -8454903.51449  -6559800.66145  23272542.848    23272542.625    23272551.532
       218.000         154.000
 -23597680.51549 -18363339.56547  20538041.480    20538040.403    20538047.709
       235.000         196.000
  -9475498.42849  -7357097.80647  21584972.251    21584971.403    21584979.742
       235.000         196.000
  -4660299.55249  -2590656.70445  23771869.414    23771868.883    23771886.916
       201.000         139.000
 00  5  2 17 54 59.9980000  0  6G24G 4G30G 5G 9G10
 -30573865.80749 -23799383.80047  19732005.838    19732004.993    19732012.824
       231.000         197.000
 -12714107.00549  -9876625.29447  20544191.604    20544191.288    20544197.615
       238.000         201.000
  -8561298.02549  -6642705.41346  23252296.570    23252296.328    23252305.184
       221.000         163.000
 -23663476.70949 -18414609.30547  20525520.969    20525519.807    20525527.105
       235.000         197.000
  -9415143.41749  -7310068.01447  21596457.459    21596456.621    21596464.995
       236.000         196.000
  -4767537.69549  -2674218.53145  23751462.380    23751461.957    23751480.007
       200.000         139.000
 00  5  2 17 55 29.9980000  0  6G24G 4G30G 5G 9G10
 -30596359.61249 -23816911.42747  19727725.345    19727724.540    19727732.400
       230.000         196.000
 -12658378.70649  -9833200.67947  20554796.410    20554796.047    20554802.488
       239.000         204.000
  -8667612.46549  -6725547.72945  23232065.683    23232065.330    23232074.166
       219.000         158.000
 -23728941.33349 -18465620.69047  20513063.433    20513062.299    20513069.590
       235.000         197.000
  -9354401.88449  -7262737.03847  21608016.437    21608015.417    21608023.758
       236.000         196.000
  -4874786.84349  -2757788.87345  23731053.340    23731052.825    23731070.897
       201.000         138.000
 00  5  2 17 55 59.9980000  0  6G24G 4G30G 5G 9G10
 -30618289.85549 -23833999.91647  19723552.063    19723551.337    19723559.228
       229.000         196.000
 -12602206.12249  -9789429.86447  20565485.764    20565485.356    20565491.803
       241.000         203.000
  -8773823.93649  -6808309.91445  23211854.178    23211853.930    23211862.495
       219.000         158.000
 -23794051.47049 -18516355.84547  20500673.484    20500672.291    20500679.496
       236.000         197.000
  -9293255.48449  -7215090.57847  21619652.241    21619651.246    21619659.580
       236.000         196.000
  -4982023.17849  -2841349.28345  23710646.463    23710646.049    23710664.013
       200.000         138.000
 00  5  2 17 56 29.9980000  0  6G24G 4G30G 5G 9G10
 -30639669.69149 -23850659.51747  19719483.593    19719482.895    19719490.759
       230.000         196.000
 -12545604.44549  -9745324.68047  20576256.835    20576256.362    20576262.800
       240.000         204.000
  -8879943.62749  -6891000.47245  23191660.189    23191660.014    23191668.624
       219.000         160.000
 -23858817.81549 -18566823.11747  20488348.753    20488347.673    20488354.803
       235.000         197.000
  -9231719.76649  -7167140.75447  21631362.083    21631361.152    21631369.486
       235.000         196.000
  -5089256.45549  -2924907.30245  23690240.249    23690239.975    23690257.916
       198.000         134.000
 00  5  2 17 56 59.9980000  0  6G24G 4G30G 5G 9G10
 -30660493.93649 -23866886.19347  19715520.899    19715520.156    19715527.999
       230.000         196.000
 -12488570.60749  -9700882.76247  20587110.119    20587109.594    20587116.051
       239.000         202.000
  -8985963.72649  -6973613.51245  23171485.212    23171484.994    23171493.546
       217.000         157.000
 -23923232.72849 -18617016.53847  20476091.063    20476089.929    20476096.995
       236.000         197.000
  -9169792.05249  -7118885.48647  21643146.669    21643145.707    21643154.031
       237.000         196.000
  -5196478.02749  -3008456.23845  23669836.682    23669836.012    23669853.855
       201.000         133.000
 00  5  2 17 57 29.9980000  0  6G24G 4G30G 5G 9G10
 -30680768.34849 -23882684.42347  19711662.782    19711662.064    19711669.912
       230.000         197.000
 -12431112.59949  -9656110.30447  20598044.028    20598043.511    20598049.973
       239.000         204.000
  -9091887.84249  -7056151.71845  23151328.606    23151328.318    23151336.767
       219.000         162.000
 -23987299.57249 -18666938.74147  20463899.570    20463898.446    20463905.420
       236.000         197.000
  -9107480.13949  -7070330.83747  21655004.375    21655003.370    21655011.647
       237.000         196.000
  -5303690.21749  -3091997.84745  23649434.556    23649434.011    23649451.585
       203.000         134.000
 00  5  2 17 57 59.9980000  0  6G24G 4G30G 5G 9G10
 -30700496.34349 -23898056.88247  19707908.651    19707907.936    19707915.844
       230.000         197.000
 -12373235.85549  -9611011.56247  20609057.514    20609057.051    20609063.565
       237.000         203.000
  -9197717.05849  -7138615.97245  23131189.908    23131189.661    23131198.076
       221.000         162.000
 -24051019.27049 -18716590.44347  20451774.029    20451772.964    20451779.971
       235.000         198.000
  -9044789.54649  -7021481.11947  21666934.215    21666933.077    21666941.338
       237.000         196.000
  -5410893.25449  -3175532.36645  23629034.122    23629033.651    23629051.225
       198.000         134.000
 00  5  2 17 58 29.9980000  0  6G24G 4G30G 5G 9G10
 -30719681.40949 -23913006.28047  19704257.880    19704257.160    19704265.054
       231.000         197.000
 -12314945.95549  -9565590.90447  20620149.692    20620149.237    20620155.850
       239.000         204.000
  -9303452.63549  -7221007.27145  23111069.029    23111068.743    23111077.152
       216.000         159.000
 -24114392.86949 -18765972.45547  20439714.473    20439713.383    20439720.409
       236.000         198.000
  -8981726.14549  -6972340.90547  21678934.871    21678933.728    21678941.984
       235.000         196.000
  -5518087.08849  -3259059.68145  23608635.656    23608635.111    23608652.386
       206.000         137.000
 00  5  2 17 58 59.9980000  0  7G24G 4G30G 5G 6G 9G10
 -30738289.18349 -23927505.82847  19700717.088    19700716.234    19700724.089
       230.000         197.000
 -12256210.76649  -9519823.25547  20631326.487    20631326.130    20631332.804
       240.000         204.000
  -9409057.46349  -7303296.67945  23090973.037    23090972.750    23090981.106
       221.000         160.000
 -24177383.43949 -18815056.00747  20427727.802    20427726.694    20427733.741
       236.000         198.000
   -131253.15355                  24745953.650
       201.000         139.000
  -8918257.74049  -6922885.08747  21691012.509    21691011.456    21691019.685
       236.000         196.000
  -5625233.65549  -3342550.12745  23588246.353    23588245.587    23588262.589
       205.000         140.000
 00  5  2 17 59 29.9980000  0  7G24G 4G30G 5G 6G 9G10
 -30756373.25849 -23941597.30847  19697275.664    19697274.925    19697282.796
       228.000         196.000
 -12197085.76149  -9473751.86147  20642577.759    20642577.312    20642584.052
       240.000         205.000
  -9514582.89149  -7385524.22445  23070891.852    23070891.824    23070900.154
       218.000         160.000
 -24240042.16049 -18863880.97347  20415804.189    20415803.102    20415810.179
       236.000         198.000
   -265989.92449   -194861.01845  24730419.860    24730418.866    24730432.486
       204.000         138.000
  -8854440.16849  -6873157.20147  21703156.552    21703155.589    21703163.816
       236.000         195.000
  -5732383.31149  -3426043.00145  23567856.302    23567855.559    23567872.329
       202.000         142.000
 00  5  2 17 59 59.9980000  0  7G24G 4G30G 5G 6G 9G10
 -30773876.77849 -23955236.41247  19693944.722    19693944.087    19693952.007
       229.000         197.000
 -12137516.30349  -9427334.10947  20653913.736    20653913.156    20653919.819
       241.000         205.000
  -9619969.39049  -7467643.52346  23050837.485    23050837.348    23050845.730
       223.000         165.000
 -24302309.42949 -18912400.91847  20403955.043    20403953.983    20403961.077
       235.000         197.000
   -347530.67649   -258399.21845  24714903.354    24714902.168    24714914.215
       206.000         138.000
  -8790218.71149  -6823114.60047  21715377.556    21715376.576    21715384.812
       235.000         195.000
  -5839475.46749  -3509491.08345  23547477.085    23547476.425    23547492.975
       205.000         143.000
 00  5  2 18  0 29.9980000  0  7G24G 4G30G 5G 6G 9G10
 -30790814.89249 -23968434.93347  19690721.584    19690720.877    19690728.779
       230.000         197.000
 -12077519.49549  -9380583.38947  20665330.764    20665330.182    20665336.837
       241.000         203.000
  -9725229.85649  -7549664.58345  23030807.123    23030806.878    23030815.231
       221.000         160.000
 -24364197.76149 -18960625.58447  20392178.058    20392177.011    20392184.099
       235.000         198.000
   -428996.71059   -321879.15955  24699401.105    24699401.188    24699411.487
       205.000         140.000
  -8725610.84749  -6772770.90947  21727672.042    21727671.091    21727679.354
       235.000         195.000
  -5946522.02949  -3592903.57345  23527106.507    23527105.841    23527122.443
       204.000         140.000
 00  5  2 18  0 59.9980000  0  7G24G 4G30G 5G 6G 9G10
 -30807199.31549 -23981202.01347  19687603.762    19687603.069    19687610.921
       229.000         197.000
 -12017109.22049  -9333510.47647  20676826.447    20676825.875    20676832.473
       238.000         201.000
  -9830373.28449  -7631594.49646  23010799.052    23010798.750    23010807.052
       221.000         164.000
 -24425716.19549 -19008562.01747  20380471.455    20380470.426    20380477.542
       235.000         198.000
   -510399.34049   -385309.68245  24683910.793    24683910.741    24683921.353
       202.000         141.000
  -8660630.70949  -6722137.13547  21740037.382    21740036.462    21740044.725
       235.000         194.000
  -6053530.85449  -3676286.71545  23506743.019    23506742.410    23506759.048
       204.000         142.000
 00  5  2 18  1 29.9980000  0  7G24G 4G30G 5G 6G 9G10
 -30823031.00249 -23993538.38647  19684591.189    19684590.435    19684598.260
       230.000         196.000
 -11956288.26349  -9286117.55747  20688400.116    20688399.678    20688406.304
       239.000         204.000
  -9935398.23949  -7713432.03745  22990813.293    22990813.065    22990821.426
       221.000         161.000
 -24486863.09849 -19056208.94747  20368835.652    20368834.560    20368841.659
       236.000         198.000
   -591739.08149   -448691.14645  24668432.117    24668431.657    24668443.222
       204.000         141.000
  -8595281.13549  -6671215.48847  21752473.154    21752472.147    21752480.433
       235.000         194.000
  -6160499.23749  -3759638.35745  23486387.230    23486386.729    23486403.321
       205.000         144.000
 00  5  2 18  1 59.9980000  0  7G24G 4G30G 5G 6G 9G10
 -30838305.22349 -24005440.36547  19681684.750    19681683.845    19681691.650
       230.000         195.000
 -11895053.98249  -9238402.55247  20700052.668    20700052.194    20700058.794
       238.000         201.000
 -10040297.17649  -7795171.45745  22970851.744    22970851.465    22970859.646
       220.000         162.000
 -24547631.18149 -19103560.68947  20357271.848    20357270.768    20357277.864
       236.000         198.000
   -673010.78249   -512019.66345  24652966.544    24652965.941    24652978.124
       209.000         144.000
  -8529559.63649  -6620004.03147  21764979.577    21764978.609    21764986.899
       235.000         194.000
  -6267418.86749  -3842951.94645  23466041.184    23466040.442    23466056.866
       209.000         146.000
 00  5  2 18  2 29.9980000  0  7G24G 4G30G 5G 6G 9G10
 -30853021.95349 -24016907.94147  19678884.178    19678883.323    19678891.124
       228.000         195.000
 -11833408.56749  -9190367.19747  20711783.509    20711782.985    20711789.565
       242.000         204.000
 -10145067.78149  -7876810.80046  22950914.665    22950914.184    22950922.454
       223.000         163.000
 -24608017.93649 -19150615.29447  20345780.581    20345779.536    20345786.653
       235.000         198.000
   -754214.08149   -575294.90045  24637514.348    24637513.622    24637525.803
       211.000         148.000
  -8463468.39349  -6568504.46547  21777556.472    21777555.449    21777563.684
       236.000         194.000
  -6374286.04249  -3926224.69245  23445704.799    23445704.020    23445720.389
       205.000         145.000
 00  5  2 18  2 59.9980000  0  7G24G 4G30G 5G 6G 9G10
 -30867185.03349 -24027944.10447  19676188.991    19676188.156    19676195.997
       229.000         195.000
 -11771357.56749  -9142015.81647  20723591.556    20723590.963    20723597.549
       240.000         203.000
 -10249711.18949  -7958351.07345  22931001.560    22931001.171    22931009.287
       218.000         161.000
 -24668024.61349 -19197373.74147  20334361.625    20334360.617    20334367.806
       235.000         198.000
   -835352.49449   -638519.58645  24622074.093    24622073.486    24622085.780
       208.000         149.000
  -8397013.38549  -6516721.44847  21790202.600    21790201.525    21790209.731
       236.000         195.000
  -6481101.31949  -4009457.03145  23425378.012    23425377.338    23425393.763
       201.000         141.000
 00  5  2 18  3 29.9980000  0  7G24G 4G30G 5G 6G 9G10
 -30880789.40049 -24038544.90447  19673600.019    19673599.292    19673607.171
       229.000         194.000
 -11708898.08349  -9093346.11647  20735477.392    20735476.705    20735483.252
       241.000         204.000
 -10354219.60549  -8039786.13046  22911113.924    22911113.772    22911121.965
       221.000         165.000
 -24727643.41549 -19243829.93947  20323016.463    20323015.500    20323022.748
       235.000         198.000
   -916420.19249   -701689.07845  24606647.265    24606646.741    24606659.240
       206.000         149.000
  -8330191.44049  -6464652.50247  21802918.488    21802917.417    21802925.643
       235.000         194.000
  -6587855.74549  -4092641.95545  23405062.838    23405062.233    23405078.638
       203.000         140.000
 00  5  2 18  3 59.9980000  0  7G24G 4G30G 5G 6G 9G10
 -30893850.15949 -24048722.11347  19671114.603    19671113.914    19671121.757
       228.000         194.000
 -11646046.93249  -9044371.20947  20747437.550    20747436.902    20747443.367
       240.000         203.000
 -10458605.23149  -8121125.52945  22891250.074    22891249.756    22891257.998
       224.000         161.000
 -24786886.73649 -19289993.56647  20311742.857    20311741.857    20311749.070
       235.000         197.000
   -997431.81349   -764814.87945  24591231.091    24591230.669    24591243.340
       207.000         146.000
  -8263020.03949  -6412311.25947  21815700.784    21815699.761    21815708.053
       235.000         193.000
  -6694560.50549  -4175788.14245  23384757.184    23384756.658    23384773.110
       199.000         138.000
 00  5  2 18  4 29.9980000  0  7G24G 4G30G 5G 6G 9G10
 -30906348.13449 -24058460.77947  19668736.354    19668735.628    19668743.419
       228.000         193.000
 -11582786.99949  -8995077.79247  20759475.572    20759474.907    20759481.360
       239.000         203.000
 -10562846.30149  -8202352.28546  22871413.761    22871413.328    22871421.561
       225.000         168.000
 -24845732.44449 -19335847.34947  20300544.895    20300543.857    20300551.067
       234.000         197.000
  -1078367.65349   -827881.65245  24575829.570    24575829.063    24575841.786
       211.000         147.000
  -8195482.03149  -6359684.34947  21828552.826    21828551.867    21828560.246
       234.000         193.000
  -6801192.58449  -4258877.69745  23364464.928    23364464.651    23364481.418
       200.000         137.000
 00  5  2 18  4 59.9980000  0  7G24G 4G30G 5G 6G 9G10
 -30918292.10049 -24067767.76347  19666463.392    19666462.691    19666470.525
       226.000         193.000
 -11519128.83749  -8945474.04947  20771589.335    20771588.684    20771595.087
       238.000         201.000
 -10666948.83749  -8283471.10045  22851603.506    22851603.226    22851611.430
       222.000         162.000
 -24904186.74849 -19381396.15147  20289421.289    20289420.354    20289427.547
       235.000         198.000
  -1159235.96149   -890895.87845  24560440.836    24560440.291    24560453.042
       213.000         146.000
  -8127588.25849  -6306780.22447  21841472.600    21841471.676    21841480.147
       235.000         194.000
  -6907757.30249  -4341914.78245  23344186.011    23344185.704    23344202.390
       204.000         137.000
 00  5  2 18  5 29.9980000  0  7G24G 4G30G 5G 6G 9G10
 -30929684.55249 -24076644.99347  19664295.407    19664294.732    19664302.587
       226.000         194.000
 -11455077.07749  -8895563.63247  20783777.892    20783777.322    20783783.775
       239.000         201.000
 -10770912.70249  -8364481.84746  22831819.816    22831819.538    22831827.708
       223.000         167.000
 -24962249.62849 -19426639.94747  20278372.378    20278371.369    20278378.509
       234.000         198.000
  -1240038.70349   -953859.00845  24545064.428    24545064.017    24545076.748
       206.000         147.000
  -8059343.28449  -6253602.44147  21854459.344    21854458.360    21854466.867
       235.000         194.000
  -7014253.04049  -4424898.12345  23323920.600    23323920.054    23323936.398
       206.000         140.000
 00  5  2 18  5 59.9980000  0  7G24G 4G30G 5G 6G 9G10
 -30940549.44349 -24085111.13547  19662227.875    19662227.221    19662235.020
       228.000         194.000
 -11390657.39849  -8845366.51647  20796036.549    20796036.004    20796042.545
       238.000         201.000
 -10874758.86449  -8445400.88146  22812058.406    22812058.221    22812066.417
       222.000         166.000
 -25019942.34749 -19471595.30147  20267393.813    20267392.807    20267399.904
       235.000         198.000
  -1320799.10549  -1016789.05445  24529696.241    24529695.818    24529708.471
       206.000         146.000
  -7990773.20149  -6200171.32247  21867507.954    21867506.903    21867515.450
       234.000         193.000
  -7120700.13449  -4507843.54445  23303664.108    23303663.687    23303679.574
       206.000         141.000
 00  5  2 18  6 29.9980000  0  7G24G 4G30G 5G 6G 9G10
 -30950839.92249 -24093129.68147  19660269.740    19660269.032    19660276.830
       229.000         194.000
 -11325824.86749  -8794847.69247  20808373.817    20808373.231    20808379.822
       236.000         202.000
 -10978437.75049  -8526189.57746  22792328.999    22792328.754    22792336.853
       222.000         167.000
 -25077215.38649 -19516223.62847  20256495.252    20256494.117    20256501.217
       235.000         198.000
  -1401469.92249  -1079649.29745  24514344.892    24514344.523    24514357.273
       208.000         142.000
  -7921833.47149  -6146452.17047  21880626.809    21880625.793    21880634.367
       234.000         193.000
  -7227047.97049  -4590711.64145  23283426.636    23283426.139    23283442.086
       206.000         137.000
 00  5  2 18  6 59.9980000  0  7G24G 4G30G 5G 6G 9G10
 -30960572.84949 -24100713.78547  19658417.507    19658416.891    19658424.736
       228.000         194.000
 -11260597.89549  -8744021.52847  20820785.991    20820785.487    20820792.173
       237.000         200.000
 -11081963.38749  -8606858.84646  22772628.658    22772628.450    22772636.577
       221.000         168.000
 -25134082.48849 -19560535.65747  20245673.720    20245672.656    20245679.790
       235.000         198.000
  -1482067.27949  -1142452.36445  24499007.710    24499007.192    24499019.850
       206.000         144.000
  -7852542.59049  -6092459.40547  21893812.479    21893811.492    21893820.104
       234.000         192.000
  -7333309.41649  -4673512.44745  23263205.746    23263205.121    23263220.593
       205.000         138.000
 00  5  2 18  7 29.9980000  0  7G24G 4G30G 5G 6G 9G10
 -30969768.66249 -24107879.35047  19656667.622    19656667.004    19656674.833
       228.000         194.000
 -11194999.07649  -8692905.57847  20833269.024    20833268.549    20833275.193
       238.000         201.000
 -11185353.20549  -8687422.27246  22752954.258    22752953.941    22752962.132
       223.000         169.000
 -25190561.22549 -19604545.05247  20234926.263    20234925.136    20234932.289
       235.000         199.000
  -1562610.88449  -1205213.49345  24483680.666    24483680.221    24483692.752
       211.000         147.000
  -7782923.02049  -6038210.50247  21907060.543    21907059.695    21907068.383
       233.000         192.000
  -7439500.64149  -4756258.48245  23242997.865    23242997.380    23243012.711
       201.000         136.000
 00  5  2 18  7 59.9980000  0  7G24G 4G30G 5G 6G 9G10
 -30978392.70049 -24114599.37247  19655026.641    19655025.934    19655033.697
       228.000         194.000
 -11128995.40149  -8641474.19047  20845829.008    20845828.596    20845835.305
       236.000         199.000
 -11288569.53449  -8767850.52346  22733312.817    22733312.576    22733320.765
       222.000         166.000
 -25246614.32949 -19648222.78747  20224259.763    20224258.604    20224265.766
       236.000         199.000
  -1643065.42649  -1267905.24045  24468370.786    24468370.231    24468382.765
       211.000         154.000
  -7712942.26949  -5983680.16847  21920377.621    21920376.693    21920385.348
       234.000         191.000
  -7545583.35249  -4838920.02845  23222810.674    23222810.079    23222825.519
       199.000         140.000
 00  5  2 18  8 29.9980000  0  7G24G 4G30G 5G 6G 9G10
 -30986456.94949 -24120883.18847  19653492.189    19653491.408    19653499.119
       229.000         194.000
 -11062600.68249  -8589738.07547  20858463.420    20858463.032    20858469.777
       235.000         198.000
 -11391621.38949  -8848150.62246  22713702.712    22713702.383    22713710.595
       223.000         168.000
 -25302250.70149 -19691575.79547  20213672.514    20213671.378    20213678.503
       234.000         198.000
  -1723441.99049  -1330536.22045  24453075.544    24453075.050    24453087.676
       208.000         151.000
  -7642614.23549  -5928879.22047  21933760.737    21933759.746    21933768.423
       234.000         191.000
  -7651565.42549  -4921503.15845  23202642.676    23202642.006    23202657.396
       204.000         143.000
 00  5  2 18  8 59.9980000  0  7G24G 4G30G 5G 6G 9G10
 -30994002.30349 -24126762.67947  19652056.389    19652055.586    19652063.283
       228.000         194.000
 -10995857.61549  -8537730.51447  20871164.338    20871163.865    20871170.606
       239.000         202.000
 -11494546.96749  -8928352.30946  22694116.442    22694116.230    22694124.541
       221.000         167.000
 -25357508.41249 -19734633.74147  20203157.369    20203156.173    20203163.284
       235.000         198.000
  -1803781.10749  -1393137.98345  24437786.992    24437786.770    24437799.526
       203.000         140.000
  -7571982.00549  -5873841.24247  21947201.645    21947200.668    21947209.368
       234.000         190.000
  -7757484.28349  -5004036.94245  23182486.662    23182486.084    23182501.462
       208.000         145.000
 00  5  2 18  9 29.9980000  0  7G24G 4G30G 5G 6G 9G10
 -31000993.18249 -24132210.11147  19650726.020    19650725.255    19650732.949
       228.000         194.000
 -10928732.02349  -8485424.90747  20883937.918    20883937.473    20883944.293
       238.000         202.000
 -11597307.46249  -9008425.37146  22674561.726    22674561.512    22674569.778
       223.000         167.000
 -25412348.89349 -19777366.57447  20192721.533    20192720.392    20192727.468
       235.000         198.000
  -1884046.00549  -1455681.97645  24422513.075    24422512.785    24422525.483
       216.000         146.000
  -7501011.63949  -5818539.77647  21960706.986    21960705.965    21960714.712
       233.000         190.000
  -7863299.46549  -5086490.07845  23162350.472    23162349.949    23162365.095
       209.000         148.000
 00  5  2 18  9 59.9980000  0  7G24G 4G30G 5G 6G 9G10
 -31007438.79149 -24137232.65847  19649499.573    19649498.720    19649506.396
       229.000         194.000
 -10861235.25849  -8432830.06547  20896782.118    20896781.702    20896788.542
       235.000         196.000
 -11699908.95949  -9088374.50846  22655037.401    22655037.110    22655045.411
       226.000         170.000
 -25466779.03049 -19819779.66347  20182363.867    20182362.684    20182369.743
       235.000         199.000
  -1964245.79149  -1518175.32645  24407251.708    24407251.396    24407263.828
       214.000         150.000
  -7429714.78649  -5762983.90847  21974274.378    21974273.362    21974282.147
       232.000         189.000
  -7969016.78149  -5168866.88045  23142233.271    23142232.552    23142247.528
       210.000         150.000
 00  5  2 18 10 29.9980000  0  7G24G 4G30G 5G 6G 9G10
 -31013341.38549 -24141832.07847  19648376.381    19648375.531    19648383.172
       228.000         193.000
 -10793371.37149  -8379949.14947  20909696.076    20909695.741    20909702.604
       237.000         199.000
 -11802350.70649  -9168199.22946  22635543.679    22635543.145    22635551.230
       225.000         168.000
 -25520797.91949 -19861872.29947  20172084.379    20172083.216    20172090.313
       234.000         198.000
  -2044381.79749  -1580618.81345  24392002.400    24392001.945    24392014.451
       204.000         147.000
  -7358095.46949  -5707176.77647  21987903.041    21987902.114    21987910.963
       232.000         189.000
  -8074634.44649  -5251166.05045  23122134.568    23122133.826    23122148.854
       211.000         151.000
 00  5  2 18 10 59.9980000  0  7G24G 4G30G 5G 6G 9G10
 -31018703.69549 -24146010.49347  19647355.875    19647355.076    19647362.756
       227.000         192.000
 -10725144.50649  -8326785.38247  20922679.136    20922678.825    20922685.668
       233.000         197.000
 -11904632.43049  -9247899.20446  22616080.133    22616079.565    22616087.656
       226.000         172.000
 -25574405.36349 -19903644.33047  20161883.097    20161882.030    20161889.176
       234.000         198.000
  -2124455.91749  -1643014.01745  24376764.582    24376764.137    24376776.823
       214.000         148.000
  -7286158.13249  -5651121.83547  22001592.292    22001591.409    22001600.292
       232.000         189.000
  -8180150.92049  -5333386.39645  23102055.578    23102054.665    23102069.398
       213.000         153.000
 00  5  2 18 11 29.9980000  0  7G24G 4G30G 5G 6G 9G10
 -31023527.38549 -24149769.20747  19646437.843    19646437.111    19646444.870
       227.000         193.000
 -10656558.03349  -8273341.40447  20935730.746    20935730.413    20935737.256
       235.000         198.000
 -12006752.63649  -9327473.35846  22596647.142    22596646.673    22596654.698
       223.000         169.000
 -25627600.21849 -19945094.86047  20151760.406    20151759.373    20151766.559
       234.000         198.000
  -2204468.99649  -1705361.85045  24361538.631    24361538.168    24361550.689
       216.000         149.000
  -7213906.37749  -5594821.89147  22015341.441    22015340.530    22015349.446
       233.000         188.000
  -8285563.76649  -5415526.01945  23081996.033    23081995.101    23082009.579
       212.000         152.000
 00  5  2 18 11 59.9980000  0  7G24G 4G30G 5G 6G 9G10
 -31027829.09549 -24153121.18347  19645619.301    19645618.531    19645626.318
       227.000         194.000
 -10587630.39349  -8219631.59647  20948847.451    20948846.991    20948853.813
       236.000         198.000
 -12108725.03349  -9406932.29046  22577242.245    22577241.929    22577250.050
       223.000         172.000
 -25680396.12949 -19986234.52747  20141713.707    20141712.647    20141719.807
       234.000         198.000
  -2284436.75349  -1767674.34945  24346321.036    24346320.774    24346332.913
       207.000         139.000
  -7141358.87149  -5538291.49147  22029146.995    22029145.978    22029154.870
       233.000         188.000
  -8390885.26549  -5497594.42445  23061953.760    23061952.830    23061967.271
       215.000         155.000
 00  5  2 18 12 29.9980000  0  7G24G 4G30G 5G 6G 9G10
 -31031617.51749 -24156073.19647  19644898.475    19644897.615    19644905.411
       228.000         193.000
 -10518371.82549  -8165663.94647  20962026.862    20962026.447    20962033.387
       236.000         201.000
 -12210554.93549  -9486280.23946  22557864.681    22557864.327    22557872.333
       226.000         172.000
 -25732798.71849 -20027067.71047  20131741.793    20131740.772    20131747.893
       234.000         198.000
  -2364367.29449  -1829957.77945  24331110.608    24331110.367    24331122.390
       212.000         149.000
  -7068526.11049  -5481538.81647  22043006.883    22043005.733    22043014.588
       233.000         188.000
  -8496120.39149  -5579595.57145  23041927.998    23041927.090    23041941.351
       212.000         153.000
 00  5  2 18 12 59.9980000  0  7G24G 4G30G 5G 6G 9G10
 -31034898.28249 -24158629.62547  19644274.247    19644273.315    19644281.080
       228.000         193.000
 -10448789.57049  -8111444.04247  20975268.026    20975267.587    20975274.571
       237.000         200.000
 -12312244.90349  -9565519.10746  22538513.743    22538513.313    22538521.430
       225.000         172.000
 -25784810.85549 -20067596.64247  20121844.273    20121843.177    20121850.268
       234.000         198.000
  -2444265.12849  -1892215.68545  24315906.657    24315906.312    24315918.461
       215.000         157.000
  -6995415.56749  -5424569.70046  22056919.570    22056918.335    22056927.211
       233.000         187.000
  -8601270.34049  -5661530.33145  23021918.343    23021917.480    23021931.683
       210.000         151.000
 00  5  2 18 13 29.9980000  0  7G24G 4G30G 5G 6G 9G10
 -31037632.16249 -24160759.92247  19643753.894    19643753.046    19643760.850
       227.000         192.000
 -10378845.95749  -8056942.56247  20988577.921    20988577.445    20988584.412
       237.000         200.000
 -12413752.34749  -9644615.78246  22519197.572    22519197.109    22519205.084
       226.000         172.000
 -25836390.43949 -20107788.52047  20112028.966    20112027.911    20112034.982
       234.000         198.000
  -2524090.05049  -1954416.81545  24300716.539    24300716.089    24300728.362
       214.000         150.000
  -6921989.93649  -5367355.04646  22070892.230    22070890.903    22070899.740
       232.000         187.000
  -8706291.70349  -5743364.90045  23001933.257    23001932.387    23001946.585
       211.000         151.000
 00  5  2 18 13 59.9980000  0  7G24G 4G30G 5G 6G 9G10
 -31039851.62849 -24162489.37347  19643331.469    19643330.664    19643338.503
       225.000         192.000
 -10308575.46049  -8002186.36347  21001950.092    21001949.550    21001956.474
       238.000         199.000
 -12515106.83849  -9723593.25246  22499910.499    22499909.963    22499917.945
       226.000         173.000
 -25887567.10049 -20147666.43647  20102290.468    20102289.322    20102296.430
       235.000         198.000
  -2603873.89049  -2016586.01845  24285533.987    24285533.689    24285545.743
       208.000         139.000
  -6848283.73249  -5309921.76247  22084918.263    22084916.869    22084925.673
       233.000         188.000
  -8811212.84149  -5825121.39945  22981967.311    22981966.408    22981980.246
       211.000         149.000
 00  5  2 18 14 29.9980000  0  7G24G 4G30G 5G 6G 9G10
 -31041564.09449 -24163823.76247  19643005.515    19643004.779    19643012.646
       227.000         193.000
 -10237986.62049  -7947182.12647  21015382.800    21015382.226    21015389.196
       236.000         201.000
 -12616312.13249  -9802454.46746  22480651.527    22480651.172    22480659.111
       225.000         171.000
 -25938344.88849 -20187233.53347  20092627.736    20092626.610    20092633.788
       233.000         198.000
  -2683623.07249  -2078728.13645  24270358.068    24270357.742    24270369.827
       211.000         150.000
  -6774305.92049  -5252276.84747  22098995.877    22098994.483    22099003.363
       232.000         188.000
  -8916036.48749  -5906801.89945  22962019.781    22962018.885    22962032.791
       212.000         148.000
 00  5  2 18 14 59.9980000  0  7G24G 4G30G 5G 6G 9G10
 -31042773.43549 -24164766.10047  19642775.386    19642774.650    19642782.507
       227.000         193.000
 -10167085.04949  -7891934.19447  21028874.782    21028874.311    21028881.365
       235.000         201.000
 -12717368.96049  -9881199.99146  22461421.065    22461420.688    22461428.584
       225.000         173.000
 -25988724.64149 -20226490.48847  20083040.809    20083039.665    20083046.842
       236.000         198.000
  -2763340.51749  -2140845.51145  24255188.345    24255187.965    24255200.078
       215.000         155.000
  -6700062.18749  -5194424.72047  22113124.044    22113122.694    22113131.668
       232.000         188.000
  -9020762.61049  -5988406.44145  22942090.674    22942089.924    22942103.762
       214.000         153.000
 00  5  2 18 15 29.9980000  0  7G24G 4G30G 5G 6G 9G10
 -31043491.22249 -24165325.41647  19642638.801    19642638.065    19642645.905
       227.000         193.000
 -10095883.83149  -7836452.75147  21042423.974    21042423.507    21042430.486
       236.000         197.000
 -12818285.50849  -9959836.21746  22442217.163    22442216.859    22442224.731
       229.000         174.000
 -26038715.00449 -20265444.01047  20073527.973    20073526.822    20073534.038
       235.000         198.000
  -2843036.71149  -2202946.36145  24240022.798    24240022.288    24240034.273
       209.000         148.000
  -6625566.14649  -5136375.99147  22127300.177    22127298.911    22127308.012
       232.000         188.000
  -9125398.53749  -6069940.72045  22922179.004    22922178.185    22922192.030
       213.000         154.000
 00  5  2 18 15 59.9980000  0  7G24G 4G30G 5G 6G 9G10
 -31043682.08949 -24165474.14147  19642602.528    19642601.763    19642609.560
       228.000         193.000
 -10024349.08949  -7780711.43947  21056036.613    21056036.143    21056043.157
       235.000         197.000
 -12919023.27949 -10038333.12146  22423047.360    22423047.125    22423055.020
       226.000         174.000
 -26088277.68449 -20304064.27247  20064096.609    20064095.358    20064102.582
       236.000         198.000
  -2922675.44949  -2265002.45645  24224867.626    24224867.271    24224879.150
       210.000         137.000
  -6550784.03249  -5078104.35047  22141530.833    22141529.549    22141538.772
       232.000         189.000
  -9229904.69549  -6151373.82245  22902291.786    22902291.106    22902304.847
       214.000         156.000
 00  5  2 18 16 29.9980000  0  7G24G 4G30G 5G 6G 9G10
 -31043376.33749 -24165235.89947  19642660.787    19642659.936    19642667.737
       226.000         193.000
  -9952512.60649  -7724735.02047  21069706.713    21069706.219    21069713.293
       237.000         200.000
 -13019608.82549 -10116711.45346  22403906.674    22403906.334    22403914.168
       227.000         174.000
 -26137439.91649 -20342372.50547  20054741.317    20054740.093    20054747.320
       235.000         198.000
  -3002286.11049  -2327036.67045  24209718.273    24209717.832    24209729.484
       216.000         152.000
  -6475748.08449  -5019634.91147  22155809.759    22155808.512    22155817.807
       231.000         188.000
  -9334306.79549  -6232725.85245  22882424.469    22882423.820    22882437.455
       214.000         157.000
 00  5  2 18 16 59.9980000  0  7G24G 4G30G 5G 6G 9G10
 -31042550.11649 -24164592.08047  19642817.976    19642817.156    19642824.958
       226.000         193.000
  -9880352.08649  -7668506.05647  21083438.498    21083437.963    21083444.953
       236.000         197.000
 -13120015.16549 -10194950.11246  22384799.878    22384799.606    22384807.509
       227.000         174.000
 -26186174.85249 -20380347.76847  20045467.360    20045466.133    20045473.372
       235.000         198.000
  -3081843.67149  -2389029.49245  24194578.977    24194578.585    24194590.259
       207.000         153.000
  -6400436.11949  -4960950.39147  22170141.128    22170140.001    22170149.357
       233.000         189.000
  -9438576.79449  -6313974.95345  22862582.414    22862581.784    22862595.376
       213.000         154.000
 00  5  2 18 17 29.9980000  0  7G24G 4G30G 5G 6G 9G10
 -31041235.32949 -24163567.57047  19643068.225    19643067.404    19643075.152
       227.000         193.000
  -9807901.02549  -7612050.73047  21097225.399    21097224.919    21097231.962
       232.000         192.000
 -13220270.69449 -10273071.25446  22365721.730    22365721.546    22365729.474
       227.000         175.000
 -26234511.21049 -20418012.46447  20036269.267    20036268.029    20036275.288
       235.000         198.000
  -3161379.23049  -2451005.05345  24179443.653    24179443.314    24179455.297
       207.000         149.000
  -6324882.03949  -4902077.22147  22184518.662    22184517.555    22184526.981
       231.000         188.000
  -9542741.99249  -6395142.43145  22842760.256    22842759.601    22842773.059
       208.000         156.000
 00  5  2 18 17 59.9980000  0  7G24G 4G30G 5G 6G 9G10
 -31039431.02949 -24162161.61147  19643411.717    19643410.785    19643418.459
       229.000         192.000
  -9735159.69249  -7555369.23647  21111067.551    21111067.121    21111074.274
       236.000         200.000
 -13320371.17549 -10351071.59046  22346673.380    22346673.044    22346680.948
       227.000         173.000
 -26282445.05449 -20455363.50447  20027147.782    20027146.540    20027153.769
       235.000         198.000
  -3240890.59049  -2512961.86445  24164313.058    24164312.745    24164324.747
       214.000         147.000
  -6249086.69049  -4843016.04147  22198942.123    22198941.024    22198950.470
       232.000         188.000
  -9646797.41549  -6476224.35745  22822958.978    22822958.287    22822971.767
       212.000         157.000
 00  5  2 18 18 29.9980000  0  7G24G 4G30G 5G 6G 9G10
 -31037146.90549 -24160381.77447  19643846.372    19643845.438    19643853.078
       226.000         192.000
  -9662139.32649  -7498470.28447  21124962.880    21124962.463    21124969.627
       234.000         197.000
 -13420322.74649 -10428955.89346  22327653.010    22327652.814    22327660.717
       226.000         175.000
 -26329983.19549 -20492406.21447  20018101.468    20018100.311    20018107.540
       235.000         198.000
  -3320386.55749  -2574906.81845  24149185.825    24149185.223    24149196.927
       214.000         147.000
  -6173061.26549  -4783775.58547  22213409.336    22213408.266    22213417.730
       230.000         188.000
  -9750748.22149  -6557224.74145  22803177.635    22803176.921    22803190.429
       211.000         159.000
 00  5  2 18 18 59.9980000  0  7G24G 4G30G 5G 6G 9G10
 -31034390.73149 -24158234.10747  19644370.692    19644369.902    19644377.514
       226.000         192.000
  -9588849.06549  -7441361.04047  21138909.654    21138909.175    21138916.329
       237.000         198.000
 -13520129.69649 -10506727.50346  22308660.403    22308660.146    22308668.084
       227.000         175.000
 -26377130.18749 -20529144.12947  20009129.626    20009128.525    20009135.739
       235.000         198.000
  -3399873.70849  -2636844.68945  24134059.883    24134059.212    24134071.004
       205.000         148.000
  -6096815.01749  -4724363.06847  22227918.598    22227917.515    22227927.043
       231.000         188.000
  -9854597.64649  -6638146.13445  22783415.601    22783414.821    22783428.225
       212.000         153.000
 00  5  2 18 19 29.9980000  0  7G24G 4G30G 5G 6G 9G10
 -31031167.14149 -24155722.22247  19644984.088    19644983.325    19644990.934
       227.000         191.000
  -9515294.86549  -7384046.10847  21152906.726    21152906.163    21152913.272
       235.000         198.000
 -13619793.19549 -10584387.32446  22289695.159    22289694.780    22289702.726
       226.000         175.000
 -26423887.29649 -20565578.24147  20000232.012    20000230.930    20000238.142
       235.000         198.000
  -3479355.39349  -2698778.31545  24118934.838    24118934.204    24118946.216
       214.000         154.000
  -6020354.40549  -4664783.50947  22242468.706    22242467.563    22242477.136
       232.000         188.000
  -9958345.64749  -6718988.49145  22763672.878    22763672.069    22763685.480
       213.000         154.000
 00  5  2 18 19 59.9980000  0  7G24G 4G30G 5G 6G 9G10
 -31027477.76949 -24152847.38447  19645686.003    19645685.336    19645692.950
       225.000         191.000
  -9441479.87849  -7326527.97847  21166953.320    21166952.750    21166959.818
       236.000         193.000
 -13719311.32249 -10661933.88546  22270757.539    22270757.087    22270765.034
       226.000         175.000
 -26470253.54449 -20601707.78847  19991408.835    19991407.720    19991414.911
       236.000         198.000
  -3558832.29949  -2760708.32845  24103810.989    24103810.350    24103822.114
       212.000         149.000
  -5943683.01549  -4605039.70847  22257058.930    22257057.748    22257067.344
       231.000         188.000
 -10061989.80849  -6799749.94445  22743949.990    22743949.180    22743962.381
       210.000         155.000
 00  5  2 18 20 29.9980000  0  7G24G 4G30G 5G 6G 9G10
 -31023323.52549 -24149610.31047  19646476.593    19646475.855    19646483.416
       227.000         191.000
  -9367406.34149  -7268808.40147  21181048.929    21181048.400    21181055.512
       238.000         198.000
 -13818681.36549 -10739365.04846  22251847.926    22251847.553    22251855.525
       227.000         176.000
 -26516226.62049 -20637530.97247  19982660.413    19982659.339    19982666.498
       235.000         198.000
  -3638304.10249  -2822634.35645  24088687.626    24088687.239    24088698.882
       205.000         139.000
  -5866803.19549  -4545133.50246  22271688.779    22271687.610    22271697.202
       231.000         187.000
 -10165526.10249  -6880427.37845  22724247.392    22724246.637    22724259.877
       209.000         155.000
 00  5  2 18 20 59.9980000  0  7G24G 4G30G 5G 6G 9G10
 -31018712.87749 -24146017.60347  19647353.807    19647353.191    19647360.796
       227.000         192.000
  -9293084.07949  -7210894.98047  21195192.162    21195191.538    21195198.603
       235.000         195.000
 -13917908.20149 -10816684.61746  22232965.743    22232965.248    22232973.271
       227.000         176.000
 -26561812.13449 -20673052.15347  19973985.889    19973984.744    19973991.844
       236.000         198.000
  -3717778.31949  -2884562.21945  24073563.617    24073563.571    24073575.330
       213.000         151.000
  -5789725.39549  -4485073.02546  22286356.444    22286355.160    22286364.758
       231.000         186.000
 -10268958.87649  -6961024.09345  22704564.398    22704563.746    22704577.096
       206.000         151.000
 00  5  2 18 21 29.9980000  0  7G24G 4G30G 5G 6G 9G10
 -31013645.59649 -24142069.07047  19648318.220    19648317.480    19648325.037
       227.000         192.000
  -9218514.04849  -7152788.48947  21209382.401    21209381.759    21209388.747
       235.000         191.000
 -14016988.02549 -10893889.63146  22214111.394    22214110.919    22214119.037
       227.000         176.000
 -26607006.34549 -20708268.42247  19965385.724    19965384.562    19965391.700
       234.000         198.000
  -3797253.43749  -2946490.76145  24058440.491    24058440.040    24058451.817
       216.000         159.000
  -5712450.81249  -4424859.21946  22301061.375    22301060.154    22301069.757
       230.000         186.000
 -10372283.31149  -7041536.39245  22684901.953    22684901.381    22684914.862
       208.000         154.000
 00  5  2 18 21 59.9980000  0  7G24G 4G30G 5G 6G 9G10
 -31008112.44949 -24137757.52547  19649371.183    19649370.386    19649377.907
       229.000         192.000
  -9143688.45149  -7094482.88047  21223621.284    21223620.651    21223627.647
       234.000         196.000
 -14115907.84249 -10970969.97646  22195287.572    22195287.069    22195295.190
       228.000         176.000
 -26651796.89849 -20743170.15447  19956862.407    19956861.214    19956868.329
       236.000         198.000
  -3876719.13249  -3008411.99845  24043318.596    24043318.230    24043329.967
       208.000         148.000
  -5634971.67449  -4364486.02246  22315805.364    22315804.087    22315813.672
       230.000         185.000
 -10475485.29549  -7121953.30245  22665263.254    22665262.531    22665275.989
       214.000         159.000
 00  5  2 18 22 29.9980000  0  7G24G 4G30G 5G 6G 9G10
 -31002122.22249 -24133089.83447  19650511.096    19650510.317    19650517.818
       227.000         192.000
  -9068617.50449  -7035986.08147  21237906.911    21237906.234    21237913.173
       236.000         197.000
 -14214673.35349 -11047930.05946  22176493.105    22176492.601    22176500.689
       228.000         177.000
 -26696189.66249 -20777761.91547  19948414.681    19948413.548    19948420.685
       235.000         198.000
  -3956183.16149  -3070331.92845  24028196.891    24028196.524    24028208.341
       209.000         147.000
  -5557298.66049  -4303961.75146  22330586.149    22330584.890    22330594.478
       229.000         185.000
 -10578569.57449  -7202278.48845  22645646.859    22645646.061    22645659.472
       214.000         157.000
